Darstellungsparameter: Aktuell verwendete Einstellungen:
Skalierung der Graphiken ... ?
xyx+y,   Skalierungsfaktor:      Skalierung: Modus: x, Faktor: 1
Darstellungszeitraum ... ?
Vom - - bis: - -   Zeitraum: 15.11.2019 - 13.12.2019
Min/Max/Avg-Anzeige ... ?
Zeige MMA aktuell
Zeige MMA Monat
Zeige MMA alles
Zeige --A aktuell
Zeige --A Monat
Zeige --A alles
Keine MMA-Anzeige
MMA:
Average (ber die Originaldaten)
MMA-Basis: 15.11.2019 - 13.12.2019
Quicknavigation für Darstellung... ?
Tage:      1T, 2T, 3T, 5T -1T -2T -3T -5T +1T +2T +3T +5T
Wochen: 1W, 2W, 3W -1W -2W -3W +1W +2W +3W
Monate: 1M, 3M, 6M -1M -3M -6M +1M +3M +6M
Jahre:    1J, 3J, 5J, 10J -1J -3J -5J -10J +1J +3J +5J +10J
Nutze für die Darstellung ... ?
Originaldaten oder Mittelwerte auf ...
Stundenbasis Tagesbasis Wochenbasis
Monatsbasis Jahresbasis      Datenbasis: Original-Daten
Darstellen als:
Statistik (Auto) Statistik J:M      Darstellung:
Zur Graphik,    zurück zur Übersicht aller Sensoren.
 
Tabellarische Datenbersicht: ?
 
Sensor: Nr:Datum:Temp:Feuchte:
Aussen-T/F 1 15-11-2019 00:09:17 2.1 C 36 %
2 15-11-2019 00:19:17 2.2 C 35 %
3 15-11-2019 00:29:17 2.3 C 36 %
4 15-11-2019 00:39:17 2.5 C 36 %
5 15-11-2019 00:49:17 2.8 C 33 %
6 15-11-2019 00:59:17 3 C 31 %
7 15-11-2019 01:09:17 3.2 C 30 %
8 15-11-2019 01:19:17 2.9 C 31 %
9 15-11-2019 01:29:17 2.8 C 32 %
10 15-11-2019 01:39:17 3.1 C 30 %
11 15-11-2019 01:49:17 3.2 C 30 %
12 15-11-2019 01:59:17 3.1 C 30 %
13 15-11-2019 02:09:17 2.7 C 30 %
14 15-11-2019 02:19:17 2.6 C 31 %
15 15-11-2019 02:29:17 2.6 C 31 %
16 15-11-2019 02:39:17 2.7 C 30 %
17 15-11-2019 02:49:17 2.8 C 31 %
18 15-11-2019 02:59:17 3.2 C 30 %
19 15-11-2019 03:09:17 2.9 C 30 %
20 15-11-2019 03:19:17 2.7 C 30 %
21 15-11-2019 03:29:17 2.5 C 30 %
22 15-11-2019 03:39:17 2.3 C 30 %
23 15-11-2019 03:49:17 2.2 C 30 %
24 15-11-2019 03:59:17 2.2 C 31 %
25 15-11-2019 04:09:17 2.2 C 31 %
Sensor: Nr:Datum:Temp:Feuchte:
Aussen-T/F 26 15-11-2019 04:19:17 2.6 C 30 %
27 15-11-2019 04:29:17 3.1 C 26 %
28 15-11-2019 04:39:17 3.2 C 25 %
29 15-11-2019 04:49:17 3 C 25 %
30 15-11-2019 04:59:17 3.1 C 25 %
31 15-11-2019 05:09:17 2.8 C 27 %
32 15-11-2019 05:19:17 2.6 C 26 %
33 15-11-2019 05:29:17 2.7 C 25 %
34 15-11-2019 05:39:17 2.5 C 27 %
35 15-11-2019 05:49:17 2.6 C 25 %
36 15-11-2019 05:59:17 3.2 C 23 %
37 15-11-2019 06:09:17 3.3 C 20 %
38 15-11-2019 06:19:17 3.4 C 20 %
39 15-11-2019 06:29:17 3.3 C 20 %
40 15-11-2019 06:39:17 3.4 C 20 %
41 15-11-2019 06:49:17 3.4 C 20 %
42 15-11-2019 06:59:17 3.1 C 20 %
43 15-11-2019 07:09:17 3 C 20 %
44 15-11-2019 07:19:17 2.9 C 21 %
45 15-11-2019 07:29:17 3 C 21 %
46 15-11-2019 07:39:17 2.9 C 23 %
47 15-11-2019 07:49:17 2.8 C 25 %
48 15-11-2019 07:59:17 3.2 C 20 %
49 15-11-2019 08:09:17 3.3 C 20 %
50 15-11-2019 08:19:17 3.3 C 20 %
Sensor: Nr:Datum:Temp:Feuchte:
Aussen-T/F 51 15-11-2019 08:29:17 3.3 C 20 %
52 15-11-2019 08:39:17 3.3 C 20 %
53 15-11-2019 08:49:17 3.1 C 23 %
54 15-11-2019 08:59:17 3.3 C 21 %
55 15-11-2019 09:09:17 3.3 C 21 %
56 15-11-2019 09:19:17 3.6 C 20 %
57 15-11-2019 09:29:17 4.1 C 20 %
58 15-11-2019 09:39:17 4.5 C 20 %
59 15-11-2019 09:49:17 4.4 C 20 %
60 15-11-2019 09:59:17 4.6 C 20 %
61 15-11-2019 10:09:17 4.9 C 20 %
62 15-11-2019 10:19:17 5.2 C 20 %
63 15-11-2019 10:29:17 5.5 C 20 %
64 15-11-2019 10:39:17 5.4 C 20 %
65 15-11-2019 10:49:17 5.5 C 20 %
66 15-11-2019 10:59:17 5.8 C 20 %
67 15-11-2019 11:09:17 5.9 C 20 %
68 15-11-2019 11:19:17 5.3 C 20 %
69 15-11-2019 11:29:17 5.2 C 20 %
70 15-11-2019 11:39:17 5.8 C 20 %
71 15-11-2019 11:49:17 6.1 C 20 %
72 15-11-2019 11:59:17 6.4 C 20 %
73 15-11-2019 12:09:17 6.5 C 20 %
74 15-11-2019 12:19:17 6.5 C 20 %
75 15-11-2019 12:29:17 6.3 C 20 %
Sensor: Nr:Datum:Temp:Feuchte:
Aussen-T/F 76 15-11-2019 12:39:17 6.3 C 20 %
77 15-11-2019 12:49:17 6.4 C 20 %
78 15-11-2019 12:59:17 6.5 C 20 %
79 15-11-2019 13:09:17 6.8 C 20 %
80 15-11-2019 13:19:17 6.9 C 20 %
81 15-11-2019 13:29:17 7 C 20 %
82 15-11-2019 13:39:17 7.4 C 20 %
83 15-11-2019 13:49:17 7.4 C 20 %
84 15-11-2019 13:59:17 7.3 C 20 %
85 15-11-2019 14:09:17 7.5 C 20 %
86 15-11-2019 14:19:17 7.6 C 20 %
87 15-11-2019 14:29:17 7.7 C 20 %
88 15-11-2019 14:39:17 7.5 C 20 %
89 15-11-2019 14:49:17 7.8 C 20 %
90 15-11-2019 14:59:17 8 C 20 %
91 15-11-2019 15:09:17 7.8 C 20 %
92 15-11-2019 15:19:17 7.7 C 20 %
93 15-11-2019 15:29:17 7.6 C 20 %
94 15-11-2019 15:39:17 7.3 C 20 %
95 15-11-2019 15:49:17 7.1 C 20 %
96 15-11-2019 15:59:17 6.8 C 20 %
97 15-11-2019 16:09:17 6.7 C 20 %
98 15-11-2019 16:19:17 5.5 C 20 %
99 15-11-2019 16:29:17 5 C 20 %
100 15-11-2019 16:39:17 4.4 C 20 %
Sensor: Nr:Datum:Temp:Feuchte:
Aussen-T/F 101 15-11-2019 16:49:17 4 C 23 %
102 15-11-2019 16:59:17 3.9 C 26 %
103 15-11-2019 17:09:17 3.8 C 27 %
104 15-11-2019 17:19:17 3.9 C 27 %
105 15-11-2019 17:29:17 3.8 C 28 %
106 15-11-2019 17:39:17 4 C 27 %
107 15-11-2019 17:49:17 3.8 C 28 %
108 15-11-2019 17:59:17 3.8 C 29 %
109 15-11-2019 18:09:17 3.8 C 29 %
110 15-11-2019 18:19:17 4.3 C 27 %
111 15-11-2019 18:29:17 4.2 C 26 %
112 15-11-2019 18:39:17 4.1 C 27 %
113 15-11-2019 18:49:17 4 C 28 %
114 15-11-2019 18:59:17 4 C 28 %
115 15-11-2019 19:09:17 3.9 C 31 %
116 15-11-2019 19:19:17 3.6 C 31 %
117 15-11-2019 19:29:17 3.7 C 32 %
118 15-11-2019 19:39:17 3.6 C 31 %
119 15-11-2019 19:49:17 3.7 C 32 %
120 15-11-2019 19:59:17 3.7 C 32 %
121 15-11-2019 20:09:17 3.4 C 33 %
122 15-11-2019 20:19:17 3.3 C 34 %
123 15-11-2019 20:29:17 3.2 C 35 %
124 15-11-2019 20:39:17 3.5 C 32 %
125 15-11-2019 20:49:17 3.2 C 32 %
Sensor: Nr:Datum:Temp:Feuchte:
Aussen-T/F 126 15-11-2019 20:59:17 3.5 C 32 %
127 15-11-2019 21:09:17 3.5 C 31 %
128 15-11-2019 21:19:17 3.5 C 31 %
129 15-11-2019 21:29:17 3.2 C 31 %
130 15-11-2019 21:39:17 3 C 34 %
131 15-11-2019 21:49:17 2.9 C 36 %
132 15-11-2019 21:59:17 3 C 36 %
133 15-11-2019 22:09:17 2.8 C 36 %
134 15-11-2019 22:19:17 2.6 C 37 %
135 15-11-2019 22:29:17 2.6 C 39 %
136 15-11-2019 22:39:17 2.7 C 39 %
137 15-11-2019 22:49:17 2.7 C 39 %
138 15-11-2019 22:59:17 2.5 C 38 %
139 15-11-2019 23:09:17 2.6 C 39 %
140 15-11-2019 23:19:17 2.7 C 39 %
141 15-11-2019 23:29:17 2.6 C 38 %
142 15-11-2019 23:39:17 2.5 C 38 %
143 15-11-2019 23:49:17 2.5 C 40 %
144 15-11-2019 23:59:17 2.3 C 40 %
145 16-11-2019 00:09:17 2.3 C 40 %
146 16-11-2019 00:19:17 2.3 C 40 %
147 16-11-2019 00:29:17 2.3 C 40 %
148 16-11-2019 00:39:17 2.3 C 40 %
149 16-11-2019 00:49:17 2.4 C 40 %
150 16-11-2019 00:59:17 2.3 C 40 %
Sensor: Nr:Datum:Temp:Feuchte:
Aussen-T/F 151 16-11-2019 01:09:17 2.3 C 40 %
152 16-11-2019 01:19:17 2.2 C 40 %
153 16-11-2019 01:29:17 2.2 C 40 %
154 16-11-2019 01:39:17 2.2 C 40 %
155 16-11-2019 01:49:17 2.3 C 40 %
156 16-11-2019 01:59:17 2.3 C 40 %
157 16-11-2019 02:09:17 2.3 C 40 %
158 16-11-2019 02:19:17 2.3 C 40 %
159 16-11-2019 02:29:17 2.2 C 40 %
160 16-11-2019 02:39:17 2.1 C 39 %
161 16-11-2019 02:49:17 2.1 C 40 %
162 16-11-2019 02:59:17 2 C 40 %
163 16-11-2019 03:09:17 2 C 40 %
164 16-11-2019 03:19:17 1.9 C 41 %
165 16-11-2019 03:29:17 1.5 C 40 %
166 16-11-2019 03:39:18 1.3 C 40 %
167 16-11-2019 03:49:17 1.3 C 41 %
168 16-11-2019 03:59:17 1.3 C 41 %
169 16-11-2019 04:09:17 1.1 C 41 %
170 16-11-2019 04:19:17 0.8 C 41 %
171 16-11-2019 04:29:17 0.3 C 40 %
172 16-11-2019 04:39:17 0 C 41 %
173 16-11-2019 04:49:17 -0.2 C 41 %
174 16-11-2019 04:59:17 -0.1 C 42 %
175 16-11-2019 05:09:17 -0.4 C 42 %
Sensor: Nr:Datum:Temp:Feuchte:
Aussen-T/F 176 16-11-2019 05:19:17 -0.5 C 42 %
177 16-11-2019 05:29:17 -0.7 C 42 %
178 16-11-2019 05:39:17 -0.6 C 42 %
179 16-11-2019 05:49:17 -0.8 C 42 %
180 16-11-2019 05:59:17 -1 C 42 %
181 16-11-2019 06:09:17 -1 C 42 %
182 16-11-2019 06:19:17 -1.1 C 42 %
183 16-11-2019 06:29:17 -1 C 43 %
184 16-11-2019 06:39:17 -1 C 43 %
185 16-11-2019 06:49:17 -1.4 C 42 %
186 16-11-2019 06:59:17 -1.5 C 42 %
187 16-11-2019 07:09:17 -1.5 C 42 %
188 16-11-2019 07:19:17 -1.6 C 42 %
189 16-11-2019 07:29:17 -1.4 C 43 %
190 16-11-2019 07:39:17 -1 C 43 %
191 16-11-2019 07:49:17 -0.9 C 43 %
192 16-11-2019 07:59:17 -0.7 C 43 %
193 16-11-2019 08:09:17 -0.7 C 43 %
194 16-11-2019 08:19:17 -0.7 C 43 %
195 16-11-2019 08:29:17 -0.6 C 43 %
196 16-11-2019 08:39:17 -0.5 C 43 %
197 16-11-2019 08:49:17 -0.4 C 43 %
198 16-11-2019 08:59:17 -0.3 C 43 %
199 16-11-2019 09:09:17 -0.4 C 43 %
200 16-11-2019 09:19:17 -0.5 C 43 %
Sensor: Nr:Datum:Temp:Feuchte:
Aussen-T/F 201 16-11-2019 09:29:17 -0.5 C 43 %
202 16-11-2019 09:39:17 -0.4 C 43 %
203 16-11-2019 09:49:17 -0.4 C 43 %
204 16-11-2019 09:59:17 -0.2 C 43 %
205 16-11-2019 10:09:17 0.2 C 43 %
206 16-11-2019 10:19:17 0.6 C 43 %
207 16-11-2019 10:29:17 0.6 C 41 %
208 16-11-2019 10:39:17 0.3 C 40 %
209 16-11-2019 10:49:17 0.5 C 40 %
210 16-11-2019 10:59:17 0.6 C 39 %
211 16-11-2019 11:09:17 0.7 C 38 %
212 16-11-2019 11:19:17 1.1 C 36 %
213 16-11-2019 11:29:17 1.6 C 32 %
214 16-11-2019 11:39:17 2.4 C 32 %
215 16-11-2019 11:49:17 2.1 C 30 %
216 16-11-2019 11:59:17 1.8 C 31 %
217 16-11-2019 12:09:17 1.6 C 32 %
218 16-11-2019 12:19:17 1.6 C 33 %
219 16-11-2019 12:29:17 2.3 C 31 %
220 16-11-2019 12:39:17 2.5 C 30 %
221 16-11-2019 12:49:17 2.6 C 32 %
222 16-11-2019 12:59:17 2.6 C 33 %
223 16-11-2019 13:09:17 2.5 C 35 %
224 16-11-2019 13:19:17 2.6 C 36 %
225 16-11-2019 13:29:17 3.2 C 36 %
Sensor: Nr:Datum:Temp:Feuchte:
Aussen-T/F 226 16-11-2019 13:39:17 3.7 C 35 %
227 16-11-2019 13:49:17 4 C 32 %
228 16-11-2019 13:59:17 3.9 C 32 %
229 16-11-2019 14:09:17 3.7 C 32 %
230 16-11-2019 14:19:17 3.7 C 33 %
231 16-11-2019 14:29:17 3.7 C 32 %
232 16-11-2019 14:39:17 3.9 C 32 %
233 16-11-2019 14:49:17 3.9 C 31 %
234 16-11-2019 14:59:17 4 C 30 %
235 16-11-2019 15:09:17 4.4 C 29 %
236 16-11-2019 15:19:17 4.7 C 29 %
237 16-11-2019 15:29:17 4.6 C 29 %
238 16-11-2019 15:39:17 4.4 C 28 %
239 16-11-2019 15:49:17 4.5 C 28 %
240 16-11-2019 15:59:17 4.2 C 28 %
241 16-11-2019 16:09:17 4 C 29 %
242 16-11-2019 16:19:17 4.3 C 26 %
243 16-11-2019 16:29:17 3.8 C 27 %
244 16-11-2019 16:39:17 3.5 C 30 %
245 16-11-2019 16:49:17 3.6 C 31 %
246 16-11-2019 16:59:17 3.4 C 32 %
247 16-11-2019 17:09:17 3.5 C 32 %
248 16-11-2019 17:19:17 3.3 C 32 %
249 16-11-2019 17:29:17 2.6 C 36 %
250 16-11-2019 17:39:17 2.2 C 36 %
Sensor: Nr:Datum:Temp:Feuchte:
Aussen-T/F 251 16-11-2019 17:49:17 2.3 C 39 %
252 16-11-2019 17:59:17 2.2 C 40 %
253 16-11-2019 18:09:17 2 C 39 %
254 16-11-2019 18:19:17 2.2 C 40 %
255 16-11-2019 18:29:17 2 C 40 %
256 16-11-2019 18:39:17 1.9 C 40 %
257 16-11-2019 18:49:17 1.7 C 40 %
258 16-11-2019 18:59:17 1.6 C 40 %
259 16-11-2019 19:09:17 1.4 C 40 %
260 16-11-2019 19:19:17 1.3 C 41 %
261 16-11-2019 19:29:17 1 C 41 %
262 16-11-2019 19:39:17 1.1 C 42 %
263 16-11-2019 19:49:17 0.7 C 42 %
264 16-11-2019 19:59:17 0.5 C 42 %
265 16-11-2019 20:09:17 0.5 C 43 %
266 16-11-2019 20:19:17 0.6 C 43 %
267 16-11-2019 20:29:17 0.7 C 44 %
268 16-11-2019 20:39:17 0.7 C 44 %
269 16-11-2019 20:49:17 0.6 C 43 %
270 16-11-2019 20:59:17 0.6 C 43 %
271 16-11-2019 21:09:17 1.1 C 43 %
272 16-11-2019 21:19:17 0.3 C 43 %
273 16-11-2019 21:29:17 0.1 C 43 %
274 16-11-2019 21:39:17 0 C 43 %
275 16-11-2019 21:49:17 -0.2 C 42 %
Sensor: Nr:Datum:Temp:Feuchte:
Aussen-T/F 276 16-11-2019 21:59:17 -0.3 C 43 %
277 16-11-2019 22:09:17 0 C 43 %
278 16-11-2019 22:19:17 -0.5 C 43 %
279 16-11-2019 22:29:17 -0.7 C 42 %
280 16-11-2019 22:39:17 -0.9 C 42 %
281 16-11-2019 22:49:17 -0.9 C 42 %
282 16-11-2019 22:59:17 -1 C 42 %
283 16-11-2019 23:09:17 -1.2 C 42 %
284 16-11-2019 23:19:17 -1 C 42 %
285 16-11-2019 23:29:17 -1.3 C 42 %
286 16-11-2019 23:39:17 -1.3 C 42 %
287 16-11-2019 23:49:17 -1.6 C 42 %
288 16-11-2019 23:59:17 -1.6 C 42 %
289 17-11-2019 00:09:17 -1.6 C 42 %
290 17-11-2019 00:19:17 -1.3 C 43 %
291 17-11-2019 00:29:17 -1.6 C 42 %
292 17-11-2019 00:39:17 -1.9 C 42 %
293 17-11-2019 00:49:17 -1.9 C 42 %
294 17-11-2019 00:59:17 -2 C 41 %
295 17-11-2019 01:09:17 -2.2 C 41 %
296 17-11-2019 01:19:17 -1.4 C 42 %
297 17-11-2019 01:29:17 -2 C 41 %
298 17-11-2019 01:39:17 -1.7 C 42 %
299 17-11-2019 01:49:17 -1.3 C 42 %
300 17-11-2019 01:59:17 -1.2 C 42 %
Sensor: Nr:Datum:Temp:Feuchte:
Aussen-T/F 301 17-11-2019 02:09:17 -1 C 43 %
302 17-11-2019 02:19:17 -1 C 43 %
303 17-11-2019 02:29:17 -0.5 C 43 %
304 17-11-2019 02:39:17 -0.3 C 43 %
305 17-11-2019 02:49:17 -0.2 C 43 %
306 17-11-2019 02:59:17 -0.2 C 43 %
307 17-11-2019 03:09:17 0 C 43 %
308 17-11-2019 03:19:17 0.1 C 43 %
309 17-11-2019 03:29:17 0.2 C 43 %
310 17-11-2019 03:39:17 0.3 C 43 %
311 17-11-2019 03:49:17 0.5 C 43 %
312 17-11-2019 03:59:17 0.5 C 43 %
313 17-11-2019 04:09:17 0.7 C 43 %
314 17-11-2019 04:19:17 0.8 C 43 %
315 17-11-2019 04:29:17 0.9 C 43 %
316 17-11-2019 04:39:17 0.9 C 43 %
317 17-11-2019 04:49:17 0.8 C 43 %
318 17-11-2019 04:59:17 0.8 C 43 %
319 17-11-2019 05:09:17 0.8 C 43 %
320 17-11-2019 05:19:17 0.8 C 43 %
321 17-11-2019 05:29:17 1 C 42 %
322 17-11-2019 05:39:17 0.8 C 43 %
323 17-11-2019 05:49:17 0.8 C 43 %
324 17-11-2019 05:59:17 0.8 C 43 %
325 17-11-2019 06:09:17 0.8 C 43 %
Sensor: Nr:Datum:Temp:Feuchte:
Aussen-T/F 326 17-11-2019 06:19:17 0.8 C 43 %
327 17-11-2019 06:29:17 0.8 C 43 %
328 17-11-2019 06:39:17 0.9 C 43 %
329 17-11-2019 06:49:17 1 C 41 %
330 17-11-2019 06:59:17 0.9 C 43 %
331 17-11-2019 07:09:17 1 C 41 %
332 17-11-2019 07:19:17 1 C 41 %
333 17-11-2019 07:29:17 1 C 41 %
334 17-11-2019 07:39:17 1.1 C 41 %
335 17-11-2019 07:49:17 1.1 C 41 %
336 17-11-2019 07:59:17 1.1 C 41 %
337 17-11-2019 08:09:17 1.2 C 41 %
338 17-11-2019 08:19:17 1.2 C 41 %
339 17-11-2019 08:29:17 1.2 C 41 %
340 17-11-2019 08:39:17 1.3 C 41 %
341 17-11-2019 08:49:17 1.4 C 41 %
342 17-11-2019 08:59:17 1.5 C 42 %
343 17-11-2019 09:09:17 1.5 C 42 %
344 17-11-2019 09:19:17 1.8 C 42 %
345 17-11-2019 09:29:17 2 C 41 %
346 17-11-2019 09:39:17 2.1 C 41 %
347 17-11-2019 09:49:17 2.1 C 41 %
348 17-11-2019 09:59:17 2.3 C 41 %
349 17-11-2019 10:09:17 2.5 C 42 %
350 17-11-2019 10:19:17 2.6 C 42 %
Sensor: Nr:Datum:Temp:Feuchte:
Aussen-T/F 351 17-11-2019 10:29:17 2.6 C 42 %
352 17-11-2019 10:39:17 2.7 C 41 %
353 17-11-2019 10:49:17 2.8 C 41 %
354 17-11-2019 10:59:17 3 C 41 %
355 17-11-2019 11:09:17 3.2 C 40 %
356 17-11-2019 11:19:17 3.3 C 40 %
357 17-11-2019 11:29:17 3.5 C 39 %
358 17-11-2019 11:39:17 3.5 C 39 %
359 17-11-2019 11:49:17 3.5 C 39 %
360 17-11-2019 11:59:17 3.7 C 38 %
361 17-11-2019 12:09:17 3.9 C 38 %
362 17-11-2019 12:19:17 3.8 C 38 %
363 17-11-2019 12:29:17 3.9 C 38 %
364 17-11-2019 12:39:17 4 C 37 %
365 17-11-2019 12:49:17 4.1 C 37 %
366 17-11-2019 12:59:17 4.4 C 37 %
367 17-11-2019 13:09:17 4.5 C 36 %
368 17-11-2019 13:19:17 4.6 C 33 %
369 17-11-2019 13:29:17 4.7 C 32 %
370 17-11-2019 13:39:17 4.7 C 32 %
371 17-11-2019 13:49:17 4.8 C 32 %
372 17-11-2019 13:59:17 4.8 C 32 %
373 17-11-2019 14:09:17 4.9 C 33 %
374 17-11-2019 14:19:17 4.9 C 31 %
375 17-11-2019 14:29:17 5.1 C 31 %
Sensor: Nr:Datum:Temp:Feuchte:
Aussen-T/F 376 17-11-2019 14:39:17 4.6 C 29 %
377 17-11-2019 14:49:17 4.4 C 31 %
378 17-11-2019 14:59:17 4.3 C 35 %
379 17-11-2019 15:09:17 4.3 C 35 %
380 17-11-2019 15:19:17 4.2 C 37 %
381 17-11-2019 15:29:17 4.1 C 37 %
382 17-11-2019 15:39:18 4.2 C 38 %
383 17-11-2019 15:49:17 4 C 38 %
384 17-11-2019 15:59:17 4 C 37 %
385 17-11-2019 16:09:17 4 C 38 %
386 17-11-2019 16:19:17 4 C 38 %
387 17-11-2019 16:29:17 3.8 C 40 %
388 17-11-2019 16:39:17 3.8 C 40 %
389 17-11-2019 16:49:17 3.8 C 39 %
390 17-11-2019 16:59:17 3.7 C 40 %
391 17-11-2019 17:09:17 3.7 C 40 %
392 17-11-2019 17:19:17 3.6 C 40 %
393 17-11-2019 17:29:17 3.6 C 40 %
394 17-11-2019 17:39:17 3.6 C 40 %
395 17-11-2019 17:49:17 3.6 C 41 %
396 17-11-2019 17:59:17 3.7 C 41 %
397 17-11-2019 18:09:17 3.8 C 41 %
398 17-11-2019 18:19:17 3.9 C 42 %
399 17-11-2019 18:29:17 3.9 C 42 %
400 17-11-2019 18:39:17 3.9 C 41 %
Sensor: Nr:Datum:Temp:Feuchte:
Aussen-T/F 401 17-11-2019 18:49:17 3.9 C 41 %
402 17-11-2019 18:59:17 3.8 C 41 %
403 17-11-2019 19:09:17 3.8 C 40 %
404 17-11-2019 19:19:17 3.8 C 41 %
405 17-11-2019 19:29:17 3.8 C 41 %
406 17-11-2019 19:39:17 3.8 C 41 %
407 17-11-2019 19:49:17 3.9 C 41 %
408 17-11-2019 19:59:17 3.9 C 41 %
409 17-11-2019 20:09:17 3.9 C 41 %
410 17-11-2019 20:19:17 3.9 C 41 %
411 17-11-2019 20:29:17 3.9 C 41 %
412 17-11-2019 20:39:17 3.9 C 41 %
413 17-11-2019 20:49:17 4 C 40 %
414 17-11-2019 20:59:17 4 C 40 %
415 17-11-2019 21:09:17 3.9 C 41 %
416 17-11-2019 21:19:17 4 C 40 %
417 17-11-2019 21:29:17 3.9 C 41 %
418 17-11-2019 21:39:17 3.9 C 41 %
419 17-11-2019 21:49:17 3.9 C 41 %
420 17-11-2019 21:59:17 3.9 C 41 %
421 17-11-2019 22:09:17 3.9 C 41 %
422 17-11-2019 22:19:17 3.9 C 41 %
423 17-11-2019 22:29:17 3.9 C 41 %
424 17-11-2019 22:39:17 3.9 C 41 %
425 17-11-2019 22:49:17 3.9 C 41 %
Sensor: Nr:Datum:Temp:Feuchte:
Aussen-T/F 426 17-11-2019 22:59:17 3.8 C 41 %
427 17-11-2019 23:09:17 3.8 C 41 %
428 17-11-2019 23:19:17 3.8 C 41 %
429 17-11-2019 23:29:17 3.8 C 41 %
430 17-11-2019 23:39:17 3.8 C 41 %
431 17-11-2019 23:49:17 3.7 C 41 %
432 17-11-2019 23:59:17 3.6 C 41 %
433 18-11-2019 00:09:17 3.6 C 40 %
434 18-11-2019 00:19:17 3.6 C 40 %
435 18-11-2019 00:29:17 3.5 C 40 %
436 18-11-2019 00:39:17 3.5 C 40 %
437 18-11-2019 00:49:17 3.4 C 40 %
438 18-11-2019 00:59:17 3.4 C 39 %
439 18-11-2019 01:09:17 3.4 C 39 %
440 18-11-2019 01:19:17 3.4 C 38 %
441 18-11-2019 01:29:17 3.4 C 38 %
442 18-11-2019 01:39:17 3.3 C 38 %
443 18-11-2019 01:49:17 3.4 C 39 %
444 18-11-2019 01:59:17 3.4 C 39 %
445 18-11-2019 02:09:17 3.4 C 40 %
446 18-11-2019 02:19:17 3.3 C 40 %
447 18-11-2019 02:29:17 3.4 C 40 %
448 18-11-2019 02:39:17 3.4 C 40 %
449 18-11-2019 02:49:17 3.4 C 40 %
450 18-11-2019 02:59:17 3.3 C 40 %
Sensor: Nr:Datum:Temp:Feuchte:
Aussen-T/F 451 18-11-2019 03:09:17 3.3 C 40 %
452 18-11-2019 03:19:17 3.4 C 41 %
453 18-11-2019 03:29:17 3.4 C 41 %
454 18-11-2019 03:39:17 3.3 C 40 %
455 18-11-2019 03:49:17 3.4 C 40 %
456 18-11-2019 03:59:17 3.4 C 40 %
457 18-11-2019 04:09:17 3.4 C 40 %
458 18-11-2019 04:19:17 3.3 C 40 %
459 18-11-2019 04:29:17 3.4 C 40 %
460 18-11-2019 04:39:18 3.3 C 40 %
461 18-11-2019 04:49:17 3.3 C 40 %
462 18-11-2019 04:59:17 3.3 C 40 %
463 18-11-2019 05:09:17 3.4 C 40 %
464 18-11-2019 05:19:18 3.3 C 40 %
465 18-11-2019 05:29:18 3.3 C 40 %
466 18-11-2019 05:39:17 3.3 C 41 %
467 18-11-2019 05:49:17 3.3 C 40 %
468 18-11-2019 05:59:17 3.3 C 41 %
469 18-11-2019 06:09:17 3.3 C 41 %
470 18-11-2019 06:19:17 3.3 C 41 %
471 18-11-2019 06:29:17 3.2 C 41 %
472 18-11-2019 06:39:17 3.2 C 41 %
473 18-11-2019 06:49:17 3.2 C 41 %
474 18-11-2019 06:59:17 3.2 C 41 %
475 18-11-2019 07:09:17 3.2 C 41 %
Sensor: Nr:Datum:Temp:Feuchte:
Aussen-T/F 476 18-11-2019 07:19:18 3.2 C 41 %
477 18-11-2019 07:29:18 3.2 C 41 %
478 18-11-2019 07:39:18 3.3 C 41 %
479 18-11-2019 07:49:17 3.3 C 41 %
480 18-11-2019 07:59:17 3.3 C 41 %
481 18-11-2019 08:09:17 3.3 C 41 %
482 18-11-2019 08:19:17 3.3 C 41 %
483 18-11-2019 08:29:17 3.4 C 41 %
484 18-11-2019 08:39:18 3.4 C 41 %
485 18-11-2019 08:49:18 3.4 C 41 %
486 18-11-2019 08:59:18 3.4 C 41 %
487 18-11-2019 09:09:17 3.5 C 41 %
488 18-11-2019 09:19:17 3.6 C 41 %
489 18-11-2019 09:29:17 3.6 C 40 %
490 18-11-2019 09:39:17 3.7 C 40 %
491 18-11-2019 09:49:17 3.9 C 38 %
492 18-11-2019 09:59:17 4.1 C 37 %
493 18-11-2019 10:09:17 4.1 C 35 %
494 18-11-2019 10:19:31 4.2 C 35 %
495 18-11-2019 10:29:31 4.1 C 35 %
496 18-11-2019 10:39:17 4.1 C 35 %
497 18-11-2019 10:49:17 4.2 C 36 %
498 18-11-2019 10:59:17 4.1 C 35 %
499 18-11-2019 11:09:17 4.1 C 35 %
500 18-11-2019 11:19:17 4.2 C 35 %
Sensor: Nr:Datum:Temp:Feuchte:
Aussen-T/F 501 18-11-2019 11:29:17 4.3 C 34 %
502 18-11-2019 11:39:17 4.4 C 34 %
503 18-11-2019 11:49:17 4.7 C 33 %
504 18-11-2019 11:59:17 5 C 29 %
505 18-11-2019 12:09:17 4.9 C 30 %
506 18-11-2019 12:19:17 5 C 28 %
507 18-11-2019 12:29:17 4.8 C 30 %
508 18-11-2019 12:39:17 4.8 C 30 %
509 18-11-2019 12:49:17 4.8 C 30 %
510 18-11-2019 12:59:17 4.8 C 30 %
511 18-11-2019 13:09:17 4.7 C 30 %
512 18-11-2019 13:19:17 4.7 C 31 %
513 18-11-2019 13:29:17 4.8 C 30 %
514 18-11-2019 13:39:17 4.8 C 30 %
515 18-11-2019 13:49:17 4.8 C 29 %
516 18-11-2019 13:59:17 4.8 C 30 %
517 18-11-2019 14:09:17 4.8 C 28 %
518 18-11-2019 14:19:17 4.8 C 30 %
519 18-11-2019 14:29:17 4.8 C 30 %
520 18-11-2019 14:39:17 4.8 C 30 %
521 18-11-2019 14:49:17 4.6 C 30 %
522 18-11-2019 14:59:17 4.5 C 30 %
523 18-11-2019 15:09:17 4.5 C 31 %
524 18-11-2019 15:19:18 4.5 C 31 %
525 18-11-2019 15:29:18 4.5 C 30 %
Sensor: Nr:Datum:Temp:Feuchte:
Aussen-T/F 526 18-11-2019 15:39:17 4.5 C 30 %
527 18-11-2019 15:49:17 4.4 C 30 %
528 18-11-2019 15:59:17 4.3 C 30 %
529 18-11-2019 16:09:17 4.2 C 31 %
530 18-11-2019 16:19:17 4.1 C 31 %
531 18-11-2019 16:29:17 4.1 C 30 %
532 18-11-2019 16:39:17 4.1 C 31 %
533 18-11-2019 16:49:17 4.1 C 32 %
534 18-11-2019 16:59:17 4.1 C 30 %
535 18-11-2019 17:09:17 4.1 C 30 %
536 18-11-2019 17:19:17 4.1 C 30 %
537 18-11-2019 17:29:17 4 C 31 %
538 18-11-2019 17:39:17 4 C 31 %
539 18-11-2019 17:49:17 4 C 31 %
540 18-11-2019 17:59:17 3.9 C 33 %
541 18-11-2019 18:09:17 3.9 C 34 %
542 18-11-2019 18:19:17 3.8 C 34 %
543 18-11-2019 18:29:17 3.8 C 35 %
544 18-11-2019 18:39:17 3.7 C 34 %
545 18-11-2019 18:49:17 3.5 C 36 %
546 18-11-2019 18:59:17 3.5 C 35 %
547 18-11-2019 19:09:17 3.3 C 34 %
548 18-11-2019 19:19:17 3.2 C 34 %
549 18-11-2019 19:29:17 3 C 36 %
550 18-11-2019 19:39:17 2.9 C 36 %
Sensor: Nr:Datum:Temp:Feuchte:
Aussen-T/F 551 18-11-2019 19:49:17 2.7 C 36 %
552 18-11-2019 19:59:17 2.7 C 36 %
553 18-11-2019 20:09:17 2.4 C 36 %
554 18-11-2019 20:19:17 2.3 C 37 %
555 18-11-2019 20:29:17 2.2 C 36 %
556 18-11-2019 20:39:17 2 C 37 %
557 18-11-2019 20:49:17 1.9 C 39 %
558 18-11-2019 20:59:17 1.8 C 38 %
559 18-11-2019 21:09:17 1.6 C 40 %
560 18-11-2019 21:19:17 1.5 C 39 %
561 18-11-2019 21:29:17 1.5 C 40 %
562 18-11-2019 21:39:17 1.5 C 40 %
563 18-11-2019 21:49:17 1.6 C 40 %
564 18-11-2019 21:59:17 1.8 C 40 %
565 18-11-2019 22:09:17 2 C 38 %
566 18-11-2019 22:19:17 2 C 38 %
567 18-11-2019 22:29:17 2.2 C 36 %
568 18-11-2019 22:39:17 2.2 C 36 %
569 18-11-2019 22:49:17 2.2 C 36 %
570 18-11-2019 22:59:17 2.2 C 36 %
571 18-11-2019 23:09:17 2.2 C 36 %
572 18-11-2019 23:19:17 2.4 C 36 %
573 18-11-2019 23:29:17 2.6 C 36 %
574 18-11-2019 23:39:17 2.7 C 35 %
575 18-11-2019 23:49:17 2.7 C 35 %
Sensor: Nr:Datum:Temp:Feuchte:
Aussen-T/F 576 18-11-2019 23:59:17 2.8 C 36 %
577 19-11-2019 00:09:17 2.9 C 36 %
578 19-11-2019 00:19:17 2.9 C 36 %
579 19-11-2019 00:29:17 3 C 36 %
580 19-11-2019 00:39:17 3 C 35 %
581 19-11-2019 00:49:18 3 C 35 %
582 19-11-2019 00:59:18 3 C 36 %
583 19-11-2019 01:09:17 3.2 C 36 %
584 19-11-2019 01:19:17 3.2 C 36 %
585 19-11-2019 01:29:17 3.2 C 36 %
586 19-11-2019 01:39:18 3.3 C 37 %
587 19-11-2019 01:49:18 3.4 C 36 %
588 19-11-2019 01:59:18 3.3 C 36 %
589 19-11-2019 02:09:18 3.3 C 36 %
590 19-11-2019 02:19:17 3.4 C 36 %
591 19-11-2019 02:29:17 3.3 C 36 %
592 19-11-2019 02:39:17 3.4 C 37 %
593 19-11-2019 02:49:17 3.3 C 37 %
594 19-11-2019 02:59:17 3.3 C 38 %
595 19-11-2019 03:09:17 3.3 C 40 %
596 19-11-2019 03:19:17 3.4 C 39 %
597 19-11-2019 03:29:17 3.4 C 39 %
598 19-11-2019 03:39:17 3.5 C 37 %
599 19-11-2019 03:49:17 3.5 C 37 %
600 19-11-2019 03:59:17 3.5 C 38 %
Sensor: Nr:Datum:Temp:Feuchte:
Aussen-T/F 601 19-11-2019 04:09:17 3.6 C 37 %
602 19-11-2019 04:19:18 3.6 C 36 %
603 19-11-2019 04:29:18 3.5 C 36 %
604 19-11-2019 04:39:17 3.5 C 37 %
605 19-11-2019 04:49:17 3.4 C 37 %
606 19-11-2019 04:59:17 3.1 C 39 %
607 19-11-2019 05:09:17 2.5 C 40 %
608 19-11-2019 05:19:18 2.3 C 41 %
609 19-11-2019 05:29:18 2 C 42 %
610 19-11-2019 05:39:17 1.6 C 43 %
611 19-11-2019 05:49:17 1.5 C 43 %
612 19-11-2019 05:59:17 1.8 C 44 %
613 19-11-2019 06:09:17 1.8 C 44 %
614 19-11-2019 06:19:17 1.7 C 43 %
615 19-11-2019 06:29:17 1.7 C 43 %
616 19-11-2019 06:39:17 1.8 C 43 %
617 19-11-2019 06:49:17 2 C 42 %
618 19-11-2019 06:59:17 2.1 C 42 %
619 19-11-2019 07:09:17 2.4 C 42 %
620 19-11-2019 07:19:17 2.2 C 42 %
621 19-11-2019 07:29:17 1.5 C 42 %
622 19-11-2019 07:39:17 1.3 C 42 %
623 19-11-2019 07:49:17 1.2 C 42 %
624 19-11-2019 07:59:17 1.8 C 43 %
625 19-11-2019 08:09:17 2.1 C 42 %
Sensor: Nr:Datum:Temp:Feuchte:
Aussen-T/F 626 19-11-2019 08:19:17 2.5 C 42 %
627 19-11-2019 08:29:17 2.8 C 42 %
628 19-11-2019 08:39:17 2.5 C 41 %
629 19-11-2019 08:49:17 2.6 C 41 %
630 19-11-2019 08:59:17 3.2 C 41 %
631 19-11-2019 09:09:17 3.3 C 40 %
632 19-11-2019 09:19:17 3.3 C 39 %
633 19-11-2019 09:29:17 3.4 C 38 %
634 19-11-2019 09:39:17 3.3 C 35 %
635 19-11-2019 09:49:17 3.2 C 35 %
636 19-11-2019 09:59:17 3.1 C 35 %
637 19-11-2019 10:09:17 3.1 C 36 %
638 19-11-2019 10:19:17 3.2 C 36 %
639 19-11-2019 10:29:17 3.3 C 37 %
640 19-11-2019 10:39:17 3.2 C 38 %
641 19-11-2019 10:49:17 3.3 C 38 %
642 19-11-2019 10:59:17 3.4 C 38 %
643 19-11-2019 11:09:17 3.5 C 38 %
644 19-11-2019 11:19:17 3.5 C 38 %
645 19-11-2019 11:29:17 4.2 C 33 %
646 19-11-2019 11:39:17 5 C 30 %
647 19-11-2019 11:49:17 5.5 C 23 %
648 19-11-2019 11:59:17 5.5 C 23 %
649 19-11-2019 12:09:17 5.5 C 23 %
650 19-11-2019 12:19:17 6.2 C 20 %
Sensor: Nr:Datum:Temp:Feuchte:
Aussen-T/F 651 19-11-2019 12:29:17 6.3 C 20 %
652 19-11-2019 12:39:17 5.5 C 20 %
653 19-11-2019 12:49:17 5.6 C 20 %
654 19-11-2019 12:59:17 5.7 C 20 %
655 19-11-2019 13:09:17 5.8 C 20 %
656 19-11-2019 13:19:17 5.7 C 20 %
657 19-11-2019 13:29:17 5.8 C 20 %
658 19-11-2019 13:39:17 5.7 C 20 %
659 19-11-2019 13:49:17 6 C 20 %
660 19-11-2019 13:59:17 6.3 C 20 %
661 19-11-2019 14:09:17 6.2 C 20 %
662 19-11-2019 14:19:17 6.2 C 20 %
663 19-11-2019 14:29:17 6 C 20 %
664 19-11-2019 14:39:17 5.9 C 20 %
665 19-11-2019 14:49:17 5.8 C 20 %
666 19-11-2019 14:59:17 5.9 C 25 %
667 19-11-2019 15:09:17 5.8 C 23 %
668 19-11-2019 15:19:18 5.6 C 28 %
669 19-11-2019 15:29:18 5.4 C 30 %
670 19-11-2019 15:39:17 5.1 C 32 %
671 19-11-2019 15:49:17 4.9 C 30 %
672 19-11-2019 15:59:17 4.8 C 32 %
673 19-11-2019 16:09:17 4.7 C 35 %
674 19-11-2019 16:19:17 4.5 C 36 %
675 19-11-2019 16:29:17 4.4 C 35 %
Sensor: Nr:Datum:Temp:Feuchte:
Aussen-T/F 676 19-11-2019 16:39:17 4.4 C 35 %
677 19-11-2019 16:49:17 3.8 C 38 %
678 19-11-2019 16:59:17 3.5 C 39 %
679 19-11-2019 17:09:17 3.3 C 40 %
680 19-11-2019 17:19:17 3.2 C 41 %
681 19-11-2019 17:29:17 2.9 C 41 %
682 19-11-2019 17:39:17 2.8 C 42 %
683 19-11-2019 17:49:17 2.7 C 42 %
684 19-11-2019 17:59:17 2.7 C 42 %
685 19-11-2019 18:09:17 2.4 C 42 %
686 19-11-2019 18:19:17 2.2 C 42 %
687 19-11-2019 18:29:17 2.3 C 42 %
688 19-11-2019 18:39:17 2.5 C 42 %
689 19-11-2019 18:49:17 2.6 C 42 %
690 19-11-2019 18:59:17 2 C 41 %
691 19-11-2019 19:09:17 1.4 C 41 %
692 19-11-2019 19:19:17 1.4 C 42 %
693 19-11-2019 19:29:17 1.5 C 42 %
694 19-11-2019 19:39:17 1.2 C 42 %
695 19-11-2019 19:49:17 1 C 42 %
696 19-11-2019 19:59:17 0.6 C 43 %
697 19-11-2019 20:09:17 0.9 C 44 %
698 19-11-2019 20:19:17 1.5 C 43 %
699 19-11-2019 20:29:17 1.8 C 43 %
700 19-11-2019 20:39:17 1.9 C 43 %
Sensor: Nr:Datum:Temp:Feuchte:
Aussen-T/F 701 19-11-2019 20:49:17 1.9 C 43 %
702 19-11-2019 20:59:17 1.9 C 43 %
703 19-11-2019 21:09:17 1.9 C 43 %
704 19-11-2019 21:19:17 1.9 C 43 %
705 19-11-2019 21:29:17 1.9 C 42 %
706 19-11-2019 21:39:17 2 C 41 %
707 19-11-2019 21:49:17 2 C 41 %
708 19-11-2019 21:59:17 1.9 C 42 %
709 19-11-2019 22:09:17 1.7 C 42 %
710 19-11-2019 22:19:17 1.5 C 41 %
711 19-11-2019 22:29:17 1.4 C 41 %
712 19-11-2019 22:39:17 1.1 C 41 %
713 19-11-2019 22:49:17 0.6 C 41 %
714 19-11-2019 22:59:17 0.6 C 42 %
715 19-11-2019 23:09:17 -0.1 C 42 %
716 19-11-2019 23:19:17 -0.2 C 42 %
717 19-11-2019 23:29:17 -0.4 C 42 %
718 19-11-2019 23:39:17 -0.5 C 42 %
719 19-11-2019 23:49:17 -0.5 C 42 %
720 19-11-2019 23:59:17 -0.6 C 42 %
721 20-11-2019 00:09:17 -0.7 C 42 %
722 20-11-2019 00:19:17 -0.6 C 42 %
723 20-11-2019 00:29:17 -0.5 C 42 %
724 20-11-2019 00:39:17 -0.7 C 42 %
725 20-11-2019 00:49:17 -0.7 C 43 %
Sensor: Nr:Datum:Temp:Feuchte:
Aussen-T/F 726 20-11-2019 00:59:17 -0.8 C 42 %
727 20-11-2019 01:09:17 -0.8 C 42 %
728 20-11-2019 01:19:17 -1.1 C 42 %
729 20-11-2019 01:29:17 -1.1 C 42 %
730 20-11-2019 01:39:17 -0.7 C 43 %
731 20-11-2019 01:49:17 -0.6 C 43 %
732 20-11-2019 01:59:17 -0.5 C 43 %
733 20-11-2019 02:09:17 -0.4 C 43 %
734 20-11-2019 02:19:17 -0.4 C 43 %
735 20-11-2019 02:29:17 -0.5 C 43 %
736 20-11-2019 02:39:17 -0.5 C 43 %
737 20-11-2019 02:49:17 -0.4 C 43 %
738 20-11-2019 02:59:17 -0.4 C 43 %
739 20-11-2019 03:09:17 -0.3 C 43 %
740 20-11-2019 03:19:17 -0.3 C 43 %
741 20-11-2019 03:29:17 -0.4 C 43 %
742 20-11-2019 03:39:17 -0.5 C 43 %
743 20-11-2019 03:49:17 -0.5 C 43 %
744 20-11-2019 03:59:17 -0.7 C 43 %
745 20-11-2019 04:09:17 -0.6 C 43 %
746 20-11-2019 04:19:17 -0.5 C 43 %
747 20-11-2019 04:29:17 -0.6 C 42 %
748 20-11-2019 04:39:17 -0.5 C 42 %
749 20-11-2019 04:49:17 -0.5 C 42 %
750 20-11-2019 04:59:17 -0.4 C 42 %
Sensor: Nr:Datum:Temp:Feuchte:
Aussen-T/F 751 20-11-2019 05:09:17 -0.3 C 42 %
752 20-11-2019 05:19:17 -0.3 C 42 %
753 20-11-2019 05:29:17 -0.3 C 42 %
754 20-11-2019 05:39:17 -0.3 C 42 %
755 20-11-2019 05:49:17 -0.3 C 42 %
756 20-11-2019 05:59:17 -0.2 C 42 %
757 20-11-2019 06:09:17 -0.1 C 42 %
758 20-11-2019 06:19:17 -0.1 C 42 %
759 20-11-2019 06:29:17 0 C 42 %
760 20-11-2019 06:39:17 0 C 42 %
761 20-11-2019 06:49:17 0 C 42 %
762 20-11-2019 06:59:17 0.2 C 42 %
763 20-11-2019 07:09:17 0.2 C 42 %
764 20-11-2019 07:19:17 0.2 C 42 %
765 20-11-2019 07:29:17 0.4 C 42 %
766 20-11-2019 07:39:18 0.3 C 42 %
767 20-11-2019 07:49:17 0.4 C 42 %
768 20-11-2019 07:59:17 0.4 C 42 %
769 20-11-2019 08:09:17 0.4 C 42 %
770 20-11-2019 08:19:17 0.5 C 42 %
771 20-11-2019 08:29:17 0.6 C 42 %
772 20-11-2019 08:39:17 0.7 C 43 %
773 20-11-2019 08:49:17 0.8 C 43 %
774 20-11-2019 08:59:17 0.9 C 43 %
775 20-11-2019 09:09:17 1.1 C 42 %
Sensor: Nr:Datum:Temp:Feuchte:
Aussen-T/F 776 20-11-2019 09:19:17 1 C 42 %
777 20-11-2019 09:29:17 1.2 C 42 %
778 20-11-2019 09:39:17 1.6 C 42 %
779 20-11-2019 09:49:17 1.7 C 42 %
780 20-11-2019 09:59:17 2 C 41 %
781 20-11-2019 10:09:17 2.1 C 41 %
782 20-11-2019 10:19:17 2.4 C 41 %
783 20-11-2019 10:29:17 2.9 C 41 %
784 20-11-2019 10:39:17 3 C 39 %
785 20-11-2019 10:49:17 2.6 C 39 %
786 20-11-2019 10:59:17 2.5 C 38 %
787 20-11-2019 11:09:17 2.6 C 38 %
788 20-11-2019 11:19:17 3.3 C 38 %
789 20-11-2019 11:29:17 3.3 C 37 %
790 20-11-2019 11:39:17 3 C 35 %
791 20-11-2019 11:49:17 3.7 C 35 %
792 20-11-2019 11:59:17 4.3 C 31 %
793 20-11-2019 12:09:17 3.9 C 30 %
794 20-11-2019 12:19:17 4.3 C 30 %
795 20-11-2019 12:29:17 4.5 C 30 %
796 20-11-2019 12:39:17 4.5 C 27 %
797 20-11-2019 12:49:17 4.6 C 26 %
798 20-11-2019 12:59:17 4.5 C 26 %
799 20-11-2019 13:09:17 4.7 C 25 %
800 20-11-2019 13:19:17 4.5 C 23 %
Sensor: Nr:Datum:Temp:Feuchte:
Aussen-T/F 801 20-11-2019 13:29:17 4.4 C 23 %
802 20-11-2019 13:39:17 4.7 C 20 %
803 20-11-2019 13:49:17 5.1 C 20 %
804 20-11-2019 13:59:17 4.8 C 20 %
805 20-11-2019 14:09:17 4.8 C 20 %
806 20-11-2019 14:19:17 4.8 C 20 %
807 20-11-2019 14:29:17 4.7 C 20 %
808 20-11-2019 14:39:17 4.7 C 20 %
809 20-11-2019 14:49:17 4.7 C 20 %
810 20-11-2019 14:59:17 4.7 C 20 %
811 20-11-2019 15:09:17 4.7 C 20 %
812 20-11-2019 15:19:17 4.7 C 20 %
813 20-11-2019 15:29:17 4.6 C 20 %
814 20-11-2019 15:39:17 4.5 C 20 %
815 20-11-2019 15:49:17 4.3 C 21 %
816 20-11-2019 15:59:17 3.4 C 26 %
817 20-11-2019 16:09:17 2.7 C 28 %
818 20-11-2019 16:19:17 2.2 C 29 %
819 20-11-2019 16:29:17 1.8 C 30 %
820 20-11-2019 16:39:17 1.8 C 30 %
821 20-11-2019 16:49:17 1.5 C 32 %
822 20-11-2019 16:59:17 1.5 C 32 %
823 20-11-2019 17:09:17 1.7 C 32 %
824 20-11-2019 17:19:17 1.8 C 34 %
825 20-11-2019 17:29:17 1.7 C 35 %
Sensor: Nr:Datum:Temp:Feuchte:
Aussen-T/F 826 20-11-2019 17:39:17 0.9 C 35 %
827 20-11-2019 17:49:17 0.5 C 38 %
828 20-11-2019 17:59:17 0.6 C 40 %
829 20-11-2019 18:09:17 0.3 C 40 %
830 20-11-2019 18:19:17 0.2 C 41 %
831 20-11-2019 18:29:17 0.1 C 40 %
832 20-11-2019 18:39:17 0 C 41 %
833 20-11-2019 18:49:17 -0.2 C 41 %
834 20-11-2019 18:59:17 -0.7 C 41 %
835 20-11-2019 19:09:17 -0.9 C 41 %
836 20-11-2019 19:19:17 -1.1 C 41 %
837 20-11-2019 19:29:17 -1.2 C 41 %
838 20-11-2019 19:39:18 -1.2 C 42 %
839 20-11-2019 19:49:18 -1.4 C 42 %
840 20-11-2019 19:59:18 -1.5 C 42 %
841 20-11-2019 20:09:18 -1.6 C 42 %
842 20-11-2019 20:19:17 -1.7 C 42 %
843 20-11-2019 20:29:17 -1.4 C 43 %
844 20-11-2019 20:39:17 -1.4 C 43 %
845 20-11-2019 20:59:17 -1.7 C 43 %
846 20-11-2019 20:59:17 -1.8 C 43 %
847 20-11-2019 21:09:17 -1.8 C 42 %
848 20-11-2019 21:19:17 -2 C 42 %
849 20-11-2019 21:29:17 -2.1 C 42 %
850 20-11-2019 21:39:17 -2.1 C 42 %
Sensor: Nr:Datum:Temp:Feuchte:
Aussen-T/F 851 20-11-2019 21:49:17 -2.3 C 42 %
852 20-11-2019 21:59:17 -2.1 C 42 %
853 20-11-2019 22:09:17 -2 C 43 %
854 20-11-2019 22:19:17 -2.1 C 42 %
855 20-11-2019 22:29:17 -2.2 C 42 %
856 20-11-2019 22:39:17 -2.1 C 42 %
857 20-11-2019 22:49:17 -1.8 C 43 %
858 20-11-2019 22:59:17 -1.7 C 43 %
859 20-11-2019 23:09:17 -1.6 C 43 %
860 20-11-2019 23:19:17 -1.4 C 43 %
861 20-11-2019 23:29:17 -1.6 C 43 %
862 20-11-2019 23:39:17 -1.3 C 43 %
863 20-11-2019 23:49:17 -1.1 C 43 %
864 20-11-2019 23:59:17 -1.1 C 43 %
865 21-11-2019 00:09:17 -1.3 C 43 %
866 21-11-2019 00:29:17 -1.8 C 42 %
867 21-11-2019 00:30:17 -1.9 C 42 %
868 21-11-2019 00:39:17 -2 C 41 %
869 21-11-2019 00:50:17 -2.1 C 41 %
870 21-11-2019 01:00:17 -2.4 C 41 %
871 21-11-2019 01:10:17 -2.4 C 41 %
872 21-11-2019 01:20:17 -2.5 C 41 %
873 21-11-2019 01:30:17 -2.3 C 41 %
874 21-11-2019 01:40:17 -2.7 C 40 %
875 21-11-2019 01:50:17 -2.6 C 41 %
Sensor: Nr:Datum:Temp:Feuchte:
Aussen-T/F 876 21-11-2019 02:00:17 -2.6 C 40 %
877 21-11-2019 02:10:17 -2.7 C 40 %
878 21-11-2019 02:20:17 -2.2 C 42 %
879 21-11-2019 02:30:17 -2.3 C 42 %
880 21-11-2019 02:40:17 -1.9 C 42 %
881 21-11-2019 02:50:17 -2.1 C 42 %
882 21-11-2019 03:00:17 -2.2 C 41 %
883 21-11-2019 03:10:17 -2.4 C 41 %
884 21-11-2019 03:20:17 -2.3 C 41 %
885 21-11-2019 03:30:17 -2.1 C 42 %
886 21-11-2019 03:40:17 -1.8 C 42 %
887 21-11-2019 03:50:17 -1.6 C 42 %
888 21-11-2019 04:00:17 -1.5 C 42 %
889 21-11-2019 04:10:17 -1.3 C 43 %
890 21-11-2019 04:20:17 -1.1 C 43 %
891 21-11-2019 04:30:17 -1 C 43 %
892 21-11-2019 04:40:17 -1 C 43 %
893 21-11-2019 04:50:17 -1 C 43 %
894 21-11-2019 05:00:17 -1 C 43 %
895 21-11-2019 05:10:17 -0.7 C 43 %
896 21-11-2019 05:20:17 -0.6 C 43 %
897 21-11-2019 05:30:17 -0.6 C 43 %
898 21-11-2019 05:40:17 -0.5 C 43 %
899 21-11-2019 05:50:17 -0.4 C 43 %
900 21-11-2019 06:00:17 -0.3 C 43 %
Sensor: Nr:Datum:Temp:Feuchte:
Aussen-T/F 901 21-11-2019 06:10:17 -0.3 C 43 %
902 21-11-2019 06:20:17 -0.3 C 43 %
903 21-11-2019 06:30:17 -0.3 C 43 %
904 21-11-2019 06:40:17 -0.3 C 43 %
905 21-11-2019 06:50:17 -0.2 C 43 %
906 21-11-2019 07:00:17 -0.2 C 43 %
907 21-11-2019 07:10:17 -0.2 C 43 %
908 21-11-2019 07:20:17 -0.1 C 43 %
909 21-11-2019 07:30:17 -0.2 C 43 %
910 21-11-2019 07:40:17 -0.2 C 43 %
911 21-11-2019 07:50:17 -0.1 C 43 %
912 21-11-2019 08:00:17 -0.1 C 43 %
913 21-11-2019 08:10:17 0 C 43 %
914 21-11-2019 08:20:17 0 C 43 %
915 21-11-2019 08:30:17 0.1 C 43 %
916 21-11-2019 08:40:17 0.2 C 43 %
917 21-11-2019 08:50:17 0.2 C 43 %
918 21-11-2019 09:00:17 0.2 C 43 %
919 21-11-2019 09:10:17 0.3 C 43 %
920 21-11-2019 09:20:17 0.4 C 43 %
921 21-11-2019 09:30:17 0.6 C 43 %
922 21-11-2019 09:40:17 0.8 C 43 %
923 21-11-2019 09:50:17 1.1 C 42 %
924 21-11-2019 10:00:17 1.1 C 41 %
925 21-11-2019 10:10:17 1.2 C 40 %
Sensor: Nr:Datum:Temp:Feuchte:
Aussen-T/F 926 21-11-2019 10:20:17 1.6 C 40 %
927 21-11-2019 10:30:17 1.5 C 39 %
928 21-11-2019 10:40:17 1.5 C 39 %
929 21-11-2019 10:50:17 1.7 C 38 %
930 21-11-2019 11:00:17 2.1 C 37 %
931 21-11-2019 11:10:17 2.2 C 37 %
932 21-11-2019 11:20:17 2.3 C 34 %
933 21-11-2019 11:30:17 2.5 C 33 %
934 21-11-2019 11:40:17 2.7 C 33 %
935 21-11-2019 11:50:17 3 C 32 %
936 21-11-2019 12:00:17 2.8 C 32 %
937 21-11-2019 12:10:17 2.5 C 33 %
938 21-11-2019 12:20:17 2.6 C 34 %
939 21-11-2019 12:30:18 2.8 C 35 %
940 21-11-2019 12:40:18 3.1 C 35 %
941 21-11-2019 12:50:18 3.3 C 34 %
942 21-11-2019 13:00:17 3.1 C 31 %
943 21-11-2019 13:10:17 3.7 C 34 %
944 21-11-2019 13:20:17 3.9 C 31 %
945 21-11-2019 13:30:17 4.1 C 32 %
946 21-11-2019 13:40:17 4 C 31 %
947 21-11-2019 13:50:17 3.9 C 32 %
948 21-11-2019 14:00:17 3.9 C 31 %
949 21-11-2019 14:10:17 3.9 C 30 %
950 21-11-2019 14:20:17 4.2 C 31 %
Sensor: Nr:Datum:Temp:Feuchte:
Aussen-T/F 951 21-11-2019 14:30:17 4.4 C 31 %
952 21-11-2019 14:40:17 4.4 C 30 %
953 21-11-2019 14:50:17 4.1 C 29 %
954 21-11-2019 15:00:17 4.1 C 30 %
955 21-11-2019 15:10:17 4.2 C 29 %
956 21-11-2019 15:20:17 4.4 C 30 %
957 21-11-2019 15:30:17 4.3 C 30 %
958 21-11-2019 15:40:17 4.2 C 29 %
959 21-11-2019 15:50:17 4.3 C 30 %
960 21-11-2019 16:00:17 4.3 C 30 %
961 21-11-2019 16:10:17 4.2 C 31 %
962 21-11-2019 16:20:17 4 C 33 %
963 21-11-2019 16:30:17 3.9 C 36 %
964 21-11-2019 16:40:17 3.7 C 37 %
965 21-11-2019 16:50:17 3.7 C 39 %
966 21-11-2019 17:00:17 3.6 C 39 %
967 21-11-2019 17:10:17 3.6 C 38 %
968 21-11-2019 17:20:17 3.5 C 39 %
969 21-11-2019 17:30:17 3.4 C 39 %
970 21-11-2019 17:40:17 3.4 C 39 %
971 21-11-2019 17:50:17 3.3 C 39 %
972 21-11-2019 18:00:17 3.3 C 39 %
973 21-11-2019 18:10:17 3.3 C 39 %
974 21-11-2019 18:20:17 3.3 C 38 %
975 21-11-2019 18:30:17 3.3 C 39 %
Sensor: Nr:Datum:Temp:Feuchte:
Aussen-T/F 976 21-11-2019 18:40:17 3.4 C 39 %
977 21-11-2019 18:50:17 3.3 C 40 %
978 21-11-2019 19:00:17 3.3 C 40 %
979 21-11-2019 19:10:17 3.2 C 40 %
980 21-11-2019 19:20:17 3 C 39 %
981 21-11-2019 19:30:17 3 C 40 %
982 21-11-2019 19:40:17 3.1 C 41 %
983 21-11-2019 19:50:17 2.9 C 41 %
984 21-11-2019 20:00:17 2.5 C 40 %
985 21-11-2019 20:10:17 2 C 40 %
986 21-11-2019 20:20:17 1.9 C 42 %
987 21-11-2019 20:30:17 2.1 C 42 %
988 21-11-2019 20:40:17 1.6 C 42 %
989 21-11-2019 20:50:17 1.5 C 42 %
990 21-11-2019 21:00:17 1.6 C 43 %
991 21-11-2019 21:10:17 1.6 C 43 %
992 21-11-2019 21:20:17 1.3 C 43 %
993 21-11-2019 21:30:17 1.3 C 43 %
994 21-11-2019 21:40:17 1.5 C 43 %
995 21-11-2019 21:50:17 1.2 C 43 %
996 21-11-2019 22:00:17 1 C 42 %
997 21-11-2019 22:10:17 0.8 C 44 %
998 21-11-2019 22:20:17 1.2 C 43 %
999 21-11-2019 22:30:17 0.9 C 44 %
1000 21-11-2019 22:40:17 0.8 C 44 %
Sensor: Nr:Datum:Temp:Feuchte:
Aussen-T/F 1001 21-11-2019 22:50:17 1 C 43 %
1002 21-11-2019 23:00:17 1.1 C 43 %
1003 21-11-2019 23:10:17 1.4 C 43 %
1004 21-11-2019 23:20:17 1 C 43 %
1005 21-11-2019 23:30:17 1 C 43 %
1006 21-11-2019 23:40:17 1.5 C 43 %
1007 21-11-2019 23:50:17 1.5 C 43 %
1008 22-11-2019 00:00:17 1.3 C 43 %
1009 22-11-2019 00:10:17 1.3 C 43 %
1010 22-11-2019 00:20:17 1.3 C 43 %
1011 22-11-2019 00:30:17 1.3 C 43 %
1012 22-11-2019 00:40:17 1 C 42 %
1013 22-11-2019 00:50:17 1.1 C 42 %
1014 22-11-2019 01:00:17 1 C 42 %
1015 22-11-2019 01:10:17 1.2 C 43 %
1016 22-11-2019 01:20:17 0.9 C 43 %
1017 22-11-2019 01:30:17 1 C 42 %
1018 22-11-2019 01:40:17 1 C 42 %
1019 22-11-2019 01:50:17 0.6 C 43 %
1020 22-11-2019 02:00:17 0.4 C 43 %
1021 22-11-2019 02:10:17 0 C 42 %
1022 22-11-2019 02:20:17 1 C 42 %
1023 22-11-2019 02:30:17 0.8 C 44 %
1024 22-11-2019 02:40:17 0.7 C 43 %
1025 22-11-2019 02:50:17 0.5 C 43 %
Sensor: Nr:Datum:Temp:Feuchte:
Aussen-T/F 1026 22-11-2019 03:00:17 0.6 C 43 %
1027 22-11-2019 03:10:17 0.8 C 44 %
1028 22-11-2019 03:20:17 0.8 C 43 %
1029 22-11-2019 03:30:17 0.6 C 43 %
1030 22-11-2019 03:40:17 0.7 C 43 %
1031 22-11-2019 03:50:17 1.1 C 42 %
1032 22-11-2019 04:00:17 1.1 C 42 %
1033 22-11-2019 04:10:17 1.1 C 42 %
1034 22-11-2019 04:20:17 1.2 C 42 %
1035 22-11-2019 04:30:17 1.3 C 42 %
1036 22-11-2019 04:40:17 1.3 C 42 %
1037 22-11-2019 04:50:17 1.2 C 42 %
1038 22-11-2019 05:00:18 1.4 C 42 %
1039 22-11-2019 05:10:18 1.6 C 42 %
1040 22-11-2019 05:20:17 1.9 C 42 %
1041 22-11-2019 05:30:17 2.1 C 41 %
1042 22-11-2019 05:40:17 2.2 C 41 %
1043 22-11-2019 05:50:17 2.6 C 41 %
1044 22-11-2019 06:00:18 2.5 C 41 %
1045 22-11-2019 06:10:18 2.8 C 41 %
1046 22-11-2019 06:20:18 2.6 C 41 %
1047 22-11-2019 06:30:18 2.7 C 41 %
1048 22-11-2019 06:40:18 2.9 C 41 %
1049 22-11-2019 06:50:18 3 C 41 %
1050 22-11-2019 07:00:17 3 C 41 %
Sensor: Nr:Datum:Temp:Feuchte:
Aussen-T/F 1051 22-11-2019 07:10:17 3 C 41 %
1052 22-11-2019 07:20:17 3.1 C 41 %
1053 22-11-2019 07:30:17 3.2 C 41 %
1054 22-11-2019 07:40:17 3.4 C 41 %
1055 22-11-2019 07:50:17 3.4 C 41 %
1056 22-11-2019 08:00:17 3.4 C 41 %
1057 22-11-2019 08:10:17 3.5 C 41 %
1058 22-11-2019 08:20:17 3.7 C 41 %
1059 22-11-2019 08:30:17 3.8 C 41 %
1060 22-11-2019 08:40:17 3.7 C 41 %
1061 22-11-2019 08:50:17 3.7 C 41 %
1062 22-11-2019 09:00:17 3.9 C 41 %
1063 22-11-2019 09:10:17 3.9 C 40 %
1064 22-11-2019 09:20:17 4 C 39 %
1065 22-11-2019 09:30:17 3.8 C 39 %
1066 22-11-2019 09:40:17 3.7 C 39 %
1067 22-11-2019 09:50:17 3.5 C 39 %
1068 22-11-2019 10:00:17 3.3 C 39 %
1069 22-11-2019 10:10:17 3.5 C 40 %
1070 22-11-2019 10:20:17 3.5 C 39 %
1071 22-11-2019 10:30:17 3.6 C 40 %
1072 22-11-2019 10:40:17 4.1 C 39 %
1073 22-11-2019 10:50:17 4.3 C 39 %
1074 22-11-2019 11:00:17 4.2 C 38 %
1075 22-11-2019 11:10:17 4.4 C 38 %
Sensor: Nr:Datum:Temp:Feuchte:
Aussen-T/F 1076 22-11-2019 11:20:17 4.5 C 37 %
1077 22-11-2019 11:30:17 5 C 35 %
1078 22-11-2019 11:40:17 5.3 C 33 %
1079 22-11-2019 11:50:17 5.3 C 32 %
1080 22-11-2019 12:00:17 5.6 C 32 %
1081 22-11-2019 12:10:17 5.5 C 32 %
1082 22-11-2019 12:20:17 5.6 C 32 %
1083 22-11-2019 12:30:17 5.6 C 32 %
1084 22-11-2019 12:40:17 5.8 C 32 %
1085 22-11-2019 12:50:17 5.8 C 31 %
1086 22-11-2019 13:00:17 5.7 C 30 %
1087 22-11-2019 13:10:17 5.9 C 31 %
1088 22-11-2019 13:20:17 6 C 30 %
1089 22-11-2019 13:30:17 5.7 C 29 %
1090 22-11-2019 13:40:17 5.5 C 29 %
1091 22-11-2019 13:50:17 5.5 C 29 %
1092 22-11-2019 14:00:17 5.5 C 29 %
1093 22-11-2019 14:10:17 5.7 C 29 %
1094 22-11-2019 14:20:17 5.7 C 28 %
1095 22-11-2019 14:30:17 5.9 C 28 %
1096 22-11-2019 14:40:17 5.8 C 27 %
1097 22-11-2019 14:50:17 5.8 C 28 %
1098 22-11-2019 15:00:17 5.6 C 28 %
1099 22-11-2019 15:10:17 5.6 C 28 %
1100 22-11-2019 15:20:17 5.6 C 29 %
Sensor: Nr:Datum:Temp:Feuchte:
Aussen-T/F 1101 22-11-2019 15:30:17 5.5 C 28 %
1102 22-11-2019 15:40:17 5.4 C 29 %
1103 22-11-2019 15:50:17 5.4 C 29 %
1104 22-11-2019 16:00:17 5.3 C 29 %
1105 22-11-2019 16:10:17 5.3 C 30 %
1106 22-11-2019 16:20:17 5.2 C 30 %
1107 22-11-2019 16:30:17 5.2 C 30 %
1108 22-11-2019 16:40:17 5.1 C 31 %
1109 22-11-2019 16:50:17 5 C 31 %
1110 22-11-2019 17:00:17 4.9 C 32 %
1111 22-11-2019 17:10:17 4.9 C 33 %
1112 22-11-2019 17:20:17 4.8 C 34 %
1113 22-11-2019 17:30:17 4.9 C 33 %
1114 22-11-2019 17:40:17 4.9 C 32 %
1115 22-11-2019 17:50:17 5 C 31 %
1116 22-11-2019 18:00:17 5 C 30 %
1117 22-11-2019 18:10:17 4.8 C 32 %
1118 22-11-2019 18:20:17 4.7 C 34 %
1119 22-11-2019 18:30:17 4.8 C 33 %
1120 22-11-2019 18:40:17 4.8 C 32 %
1121 22-11-2019 18:50:17 4.8 C 32 %
1122 22-11-2019 19:00:17 4.8 C 31 %
1123 22-11-2019 19:10:17 4.7 C 32 %
1124 22-11-2019 19:20:17 4.8 C 30 %
1125 22-11-2019 19:30:17 4.8 C 30 %
Sensor: Nr:Datum:Temp:Feuchte:
Aussen-T/F 1126 22-11-2019 19:40:17 4.8 C 30 %
1127 22-11-2019 19:50:17 4.7 C 31 %
1128 22-11-2019 20:00:17 4.6 C 31 %
1129 22-11-2019 20:10:17 4.6 C 30 %
1130 22-11-2019 20:20:17 4.6 C 30 %
1131 22-11-2019 20:30:17 4.5 C 30 %
1132 22-11-2019 20:40:17 4.5 C 30 %
1133 22-11-2019 20:50:17 4.3 C 30 %
1134 22-11-2019 21:00:17 4.3 C 30 %
1135 22-11-2019 21:10:17 4.4 C 31 %
1136 22-11-2019 21:20:17 4.3 C 31 %
1137 22-11-2019 21:30:17 4.3 C 31 %
1138 22-11-2019 21:40:17 4.3 C 31 %
1139 22-11-2019 21:50:17 4.3 C 30 %
1140 22-11-2019 22:00:17 4.2 C 31 %
1141 22-11-2019 22:10:17 4.2 C 31 %
1142 22-11-2019 22:20:17 4.2 C 30 %
1143 22-11-2019 22:30:17 4.2 C 30 %
1144 22-11-2019 22:40:17 4.2 C 29 %
1145 22-11-2019 22:50:17 4.1 C 30 %
1146 22-11-2019 23:00:17 4 C 30 %
1147 22-11-2019 23:10:17 4.1 C 28 %
1148 22-11-2019 23:20:17 4 C 30 %
1149 22-11-2019 23:30:17 4 C 30 %
1150 22-11-2019 23:40:17 4 C 30 %
Sensor: Nr:Datum:Temp:Feuchte:
Aussen-T/F 1151 22-11-2019 23:50:17 3.9 C 31 %
1152 23-11-2019 00:00:17 4 C 29 %
1153 23-11-2019 00:10:17 4 C 29 %
1154 23-11-2019 00:20:17 4 C 29 %
1155 23-11-2019 00:30:17 4 C 29 %
1156 23-11-2019 00:40:17 4 C 28 %
1157 23-11-2019 00:50:17 4 C 29 %
1158 23-11-2019 01:00:17 4.1 C 28 %
1159 23-11-2019 01:10:17 4.2 C 27 %
1160 23-11-2019 01:20:17 4.1 C 29 %
1161 23-11-2019 01:30:17 4 C 30 %
1162 23-11-2019 01:40:17 4.1 C 29 %
1163 23-11-2019 01:50:17 4 C 29 %
1164 23-11-2019 02:00:17 4.1 C 27 %
1165 23-11-2019 02:10:17 4.1 C 27 %
1166 23-11-2019 02:20:17 4 C 30 %
1167 23-11-2019 02:30:18 3.8 C 32 %
1168 23-11-2019 02:40:18 3.7 C 32 %
1169 23-11-2019 02:50:17 3.6 C 32 %
1170 23-11-2019 03:00:17 3.6 C 33 %
1171 23-11-2019 03:10:17 3.7 C 32 %
1172 23-11-2019 03:20:17 3.8 C 31 %
1173 23-11-2019 03:30:17 3.7 C 32 %
1174 23-11-2019 03:40:17 3.5 C 33 %
1175 23-11-2019 03:50:17 3.2 C 34 %
Sensor: Nr:Datum:Temp:Feuchte:
Aussen-T/F 1176 23-11-2019 04:00:17 3.2 C 35 %
1177 23-11-2019 04:10:17 3.1 C 38 %
1178 23-11-2019 04:20:17 3.3 C 36 %
1179 23-11-2019 04:30:17 3 C 36 %
1180 23-11-2019 04:40:17 3 C 37 %
1181 23-11-2019 04:50:17 3 C 37 %
1182 23-11-2019 05:00:17 3 C 38 %
1183 23-11-2019 05:10:17 3 C 39 %
1184 23-11-2019 05:20:17 2.7 C 39 %
1185 23-11-2019 05:30:17 2.9 C 40 %
1186 23-11-2019 05:40:17 2.8 C 40 %
1187 23-11-2019 05:50:17 2.9 C 40 %
1188 23-11-2019 06:00:17 3 C 39 %
1189 23-11-2019 06:10:17 3 C 39 %
1190 23-11-2019 06:20:17 3 C 39 %
1191 23-11-2019 06:30:17 3 C 40 %
1192 23-11-2019 06:40:17 3.1 C 40 %
1193 23-11-2019 06:50:17 3 C 40 %
1194 23-11-2019 07:00:17 3.2 C 40 %
1195 23-11-2019 07:10:17 3.2 C 39 %
1196 23-11-2019 07:20:17 3.3 C 40 %
1197 23-11-2019 07:30:17 3.2 C 39 %
1198 23-11-2019 07:40:17 3.3 C 40 %
1199 23-11-2019 07:50:17 3.2 C 40 %
1200 23-11-2019 08:00:17 3.3 C 39 %
Sensor: Nr:Datum:Temp:Feuchte:
Aussen-T/F 1201 23-11-2019 08:10:17 3.3 C 40 %
1202 23-11-2019 08:20:17 3.2 C 40 %
1203 23-11-2019 08:30:17 3.3 C 40 %
1204 23-11-2019 08:40:17 3.4 C 40 %
1205 23-11-2019 08:50:17 3.8 C 37 %
1206 23-11-2019 09:00:17 4.2 C 33 %
1207 23-11-2019 09:10:17 4.3 C 33 %
1208 23-11-2019 09:20:17 4.5 C 33 %
1209 23-11-2019 09:30:17 4.9 C 31 %
1210 23-11-2019 09:40:17 5.1 C 31 %
1211 23-11-2019 09:50:17 5.4 C 27 %
1212 23-11-2019 10:00:17 5.4 C 26 %
1213 23-11-2019 10:10:17 5.7 C 26 %
1214 23-11-2019 10:20:17 6 C 26 %
1215 23-11-2019 10:30:17 6 C 25 %
1216 23-11-2019 10:40:17 6.1 C 26 %
1217 23-11-2019 10:50:17 6.2 C 25 %
1218 23-11-2019 11:00:17 6.4 C 25 %
1219 23-11-2019 11:10:17 6.6 C 25 %
1220 23-11-2019 11:20:17 6.7 C 25 %
1221 23-11-2019 11:30:17 7.1 C 21 %
1222 23-11-2019 11:40:17 7.1 C 23 %
1223 23-11-2019 11:50:17 7 C 25 %
1224 23-11-2019 12:00:17 6.4 C 28 %
1225 23-11-2019 12:10:17 6.4 C 28 %
Sensor: Nr:Datum:Temp:Feuchte:
Aussen-T/F 1226 23-11-2019 12:20:17 6.5 C 27 %
1227 23-11-2019 12:30:17 6.5 C 28 %
1228 23-11-2019 12:40:17 6.5 C 29 %
1229 23-11-2019 12:50:17 7.3 C 25 %
1230 23-11-2019 13:00:17 7.3 C 25 %
1231 23-11-2019 13:10:17 6.7 C 28 %
1232 23-11-2019 13:20:17 6.8 C 29 %
1233 23-11-2019 13:30:17 6.6 C 29 %
1234 23-11-2019 13:40:17 6.6 C 30 %
1235 23-11-2019 13:50:17 6.6 C 30 %
1236 23-11-2019 14:00:17 6.6 C 30 %
1237 23-11-2019 14:10:17 6.8 C 30 %
1238 23-11-2019 14:20:17 7 C 29 %
1239 23-11-2019 14:30:17 7.2 C 27 %
1240 23-11-2019 14:40:17 7.1 C 28 %
1241 23-11-2019 14:50:17 7.2 C 28 %
1242 23-11-2019 15:00:17 7.7 C 26 %
1243 23-11-2019 15:10:17 8.1 C 26 %
1244 23-11-2019 15:20:17 8.4 C 23 %
1245 23-11-2019 15:30:17 8.4 C 25 %
1246 23-11-2019 15:40:17 8.1 C 25 %
1247 23-11-2019 15:50:17 7.5 C 26 %
1248 23-11-2019 16:00:17 7.5 C 26 %
1249 23-11-2019 16:10:17 7.3 C 25 %
1250 23-11-2019 16:20:17 7.3 C 25 %
Sensor: Nr:Datum:Temp:Feuchte:
Aussen-T/F 1251 23-11-2019 16:30:17 6.5 C 28 %
1252 23-11-2019 16:40:17 5.9 C 31 %
1253 23-11-2019 16:50:17 5.7 C 32 %
1254 23-11-2019 17:00:17 5.7 C 32 %
1255 23-11-2019 17:10:17 5.8 C 31 %
1256 23-11-2019 17:20:17 5.6 C 32 %
1257 23-11-2019 17:30:17 5.5 C 33 %
1258 23-11-2019 17:40:17 5.3 C 32 %
1259 23-11-2019 17:50:17 5.3 C 33 %
1260 23-11-2019 18:00:17 5.3 C 33 %
1261 23-11-2019 18:10:17 5 C 34 %
1262 23-11-2019 18:20:17 5.3 C 34 %
1263 23-11-2019 18:30:17 5.3 C 34 %
1264 23-11-2019 18:40:17 5.3 C 34 %
1265 23-11-2019 18:50:17 4.9 C 36 %
1266 23-11-2019 19:00:17 5.1 C 35 %
1267 23-11-2019 19:10:17 5 C 36 %
1268 23-11-2019 19:20:17 5 C 36 %
1269 23-11-2019 19:30:17 5 C 36 %
1270 23-11-2019 19:40:17 4.7 C 36 %
1271 23-11-2019 19:50:17 4.7 C 38 %
1272 23-11-2019 20:00:17 4.5 C 40 %
1273 23-11-2019 20:10:17 4.2 C 39 %
1274 23-11-2019 20:20:17 4.1 C 40 %
1275 23-11-2019 20:30:17 3.6 C 40 %
Sensor: Nr:Datum:Temp:Feuchte:
Aussen-T/F 1276 23-11-2019 20:40:18 3.6 C 40 %
1277 23-11-2019 20:50:17 3.6 C 42 %
1278 23-11-2019 21:00:17 3.6 C 42 %
1279 23-11-2019 21:10:17 3.5 C 42 %
1280 23-11-2019 21:20:17 3.3 C 41 %
1281 23-11-2019 21:30:17 3.2 C 41 %
1282 23-11-2019 21:40:17 3.2 C 42 %
1283 23-11-2019 21:50:17 3.2 C 42 %
1284 23-11-2019 22:00:17 3.1 C 42 %
1285 23-11-2019 22:10:17 2.8 C 42 %
1286 23-11-2019 22:20:17 2.6 C 42 %
1287 23-11-2019 22:30:17 2.7 C 42 %
1288 23-11-2019 22:40:17 2.6 C 42 %
1289 23-11-2019 22:50:17 2.6 C 42 %
1290 23-11-2019 23:00:17 2.5 C 42 %
1291 23-11-2019 23:10:17 2.2 C 42 %
1292 23-11-2019 23:20:17 2.2 C 42 %
1293 23-11-2019 23:30:17 2 C 42 %
1294 23-11-2019 23:40:17 2.1 C 42 %
1295 23-11-2019 23:50:17 2.1 C 42 %
1296 24-11-2019 00:00:17 1.9 C 43 %
1297 24-11-2019 00:10:17 1.7 C 43 %
1298 24-11-2019 00:20:17 1.7 C 43 %
1299 24-11-2019 00:30:17 1.6 C 43 %
1300 24-11-2019 00:40:17 1.4 C 42 %
Sensor: Nr:Datum:Temp:Feuchte:
Aussen-T/F 1301 24-11-2019 00:50:18 1.1 C 42 %
1302 24-11-2019 01:00:18 1.2 C 43 %
1303 24-11-2019 01:10:18 1.4 C 43 %
1304 24-11-2019 01:20:17 1.3 C 43 %
1305 24-11-2019 01:30:17 1.2 C 42 %
1306 24-11-2019 01:40:17 1.2 C 43 %
1307 24-11-2019 01:50:17 1.1 C 43 %
1308 24-11-2019 02:00:17 1.1 C 43 %
1309 24-11-2019 02:10:17 1.1 C 43 %
1310 24-11-2019 02:20:17 1.2 C 43 %
1311 24-11-2019 02:30:17 1 C 42 %
1312 24-11-2019 02:40:17 1.1 C 42 %
1313 24-11-2019 02:50:17 1.1 C 42 %
1314 24-11-2019 03:00:17 0.9 C 44 %
1315 24-11-2019 03:10:17 1.1 C 43 %
1316 24-11-2019 03:20:17 1.2 C 42 %
1317 24-11-2019 03:30:17 1 C 42 %
1318 24-11-2019 03:40:17 0.7 C 43 %
1319 24-11-2019 03:50:17 0.6 C 43 %
1320 24-11-2019 04:00:17 0.5 C 43 %
1321 24-11-2019 04:10:17 0.5 C 43 %
1322 24-11-2019 04:20:17 0.6 C 43 %
1323 24-11-2019 04:30:17 0.5 C 43 %
1324 24-11-2019 04:40:17 0.5 C 43 %
1325 24-11-2019 04:50:17 0.6 C 44 %
Sensor: Nr:Datum:Temp:Feuchte:
Aussen-T/F 1326 24-11-2019 05:00:17 0.6 C 44 %
1327 24-11-2019 05:10:17 0.8 C 44 %
1328 24-11-2019 05:20:17 1 C 42 %
1329 24-11-2019 05:30:17 1.1 C 42 %
1330 24-11-2019 05:40:17 1 C 42 %
1331 24-11-2019 05:50:17 0.6 C 43 %
1332 24-11-2019 06:00:18 0.4 C 43 %
1333 24-11-2019 06:10:18 0.5 C 43 %
1334 24-11-2019 06:20:17 0.5 C 43 %
1335 24-11-2019 06:30:17 0.5 C 43 %
1336 24-11-2019 06:40:17 0.5 C 43 %
1337 24-11-2019 06:50:17 0.3 C 43 %
1338 24-11-2019 07:00:18 0.4 C 43 %
1339 24-11-2019 07:10:18 0.1 C 43 %
1340 24-11-2019 07:20:18 0.1 C 43 %
1341 24-11-2019 07:30:17 0.1 C 43 %
1342 24-11-2019 07:40:17 -0.3 C 43 %
1343 24-11-2019 07:50:18 -0.3 C 43 %
1344 24-11-2019 08:00:18 -0.1 C 43 %
1345 24-11-2019 08:10:18 0.1 C 43 %
1346 24-11-2019 08:20:17 -0.1 C 43 %
1347 24-11-2019 08:30:17 0.3 C 43 %
1348 24-11-2019 08:40:17 0.5 C 43 %
1349 24-11-2019 08:50:17 0.5 C 43 %
1350 24-11-2019 09:00:17 0.6 C 43 %
Sensor: Nr:Datum:Temp:Feuchte:
Aussen-T/F 1351 24-11-2019 09:10:17 0.7 C 43 %
1352 24-11-2019 09:20:17 0.8 C 43 %
1353 24-11-2019 09:30:17 0.8 C 43 %
1354 24-11-2019 09:40:17 1 C 42 %
1355 24-11-2019 09:50:17 1.1 C 42 %
1356 24-11-2019 10:00:17 1.2 C 42 %
1357 24-11-2019 10:10:17 1.5 C 42 %
1358 24-11-2019 10:20:17 1.7 C 42 %
1359 24-11-2019 10:30:17 2 C 42 %
1360 24-11-2019 10:40:17 2.2 C 41 %
1361 24-11-2019 10:50:17 2.7 C 42 %
1362 24-11-2019 11:00:17 2.5 C 41 %
1363 24-11-2019 11:10:17 2.1 C 40 %
1364 24-11-2019 11:20:17 2.2 C 40 %
1365 24-11-2019 11:30:17 2.2 C 40 %
1366 24-11-2019 11:40:17 2.3 C 40 %
1367 24-11-2019 11:50:17 2.5 C 40 %
1368 24-11-2019 12:00:17 2.7 C 41 %
1369 24-11-2019 12:10:17 3 C 40 %
1370 24-11-2019 12:20:17 3.4 C 40 %
1371 24-11-2019 12:30:17 3.8 C 40 %
1372 24-11-2019 12:40:17 4 C 38 %
1373 24-11-2019 12:50:17 4.2 C 38 %
1374 24-11-2019 13:00:17 4.6 C 38 %
1375 24-11-2019 13:10:17 5.1 C 35 %
Sensor: Nr:Datum:Temp:Feuchte:
Aussen-T/F 1376 24-11-2019 13:20:17 5 C 35 %
1377 24-11-2019 13:30:17 5 C 35 %
1378 24-11-2019 13:40:17 4.7 C 35 %
1379 24-11-2019 13:50:17 4.8 C 35 %
1380 24-11-2019 14:00:17 5.1 C 35 %
1381 24-11-2019 14:10:17 5.1 C 35 %
1382 24-11-2019 14:20:17 5 C 35 %
1383 24-11-2019 14:30:17 4.8 C 37 %
1384 24-11-2019 14:40:17 4.6 C 37 %
1385 24-11-2019 14:50:17 4.6 C 39 %
1386 24-11-2019 15:00:17 4.5 C 38 %
1387 24-11-2019 15:10:17 4.7 C 40 %
1388 24-11-2019 15:20:17 4.9 C 39 %
1389 24-11-2019 15:30:17 4.8 C 38 %
1390 24-11-2019 15:40:17 4.7 C 38 %
1391 24-11-2019 15:50:17 4.6 C 38 %
1392 24-11-2019 16:00:17 4.5 C 40 %
1393 24-11-2019 16:10:17 4.2 C 39 %
1394 24-11-2019 16:20:17 3.9 C 40 %
1395 24-11-2019 16:30:17 3.7 C 41 %
1396 24-11-2019 16:40:17 3.5 C 41 %
1397 24-11-2019 16:50:17 3.2 C 41 %
1398 24-11-2019 17:00:17 3 C 41 %
1399 24-11-2019 17:10:17 2.8 C 42 %
1400 24-11-2019 17:20:17 2.7 C 42 %
Sensor: Nr:Datum:Temp:Feuchte:
Aussen-T/F 1401 24-11-2019 17:30:17 2.6 C 42 %
1402 24-11-2019 17:40:17 2.4 C 42 %
1403 24-11-2019 17:50:17 2.6 C 43 %
1404 24-11-2019 18:00:17 2.5 C 42 %
1405 24-11-2019 18:10:17 2.8 C 43 %
1406 24-11-2019 18:20:17 2.6 C 42 %
1407 24-11-2019 18:30:17 2.9 C 43 %
1408 24-11-2019 18:40:17 2.6 C 42 %
1409 24-11-2019 18:50:17 2.7 C 42 %
1410 24-11-2019 19:00:17 2.5 C 42 %
1411 24-11-2019 19:10:17 2.6 C 42 %
1412 24-11-2019 19:20:17 2.6 C 42 %
1413 24-11-2019 19:30:17 2.8 C 42 %
1414 24-11-2019 19:40:17 2.7 C 42 %
1415 24-11-2019 19:50:17 2.7 C 42 %
1416 24-11-2019 20:00:17 2.5 C 42 %
1417 24-11-2019 20:10:17 2.4 C 42 %
1418 24-11-2019 20:20:17 2.1 C 41 %
1419 24-11-2019 20:30:17 2 C 41 %
1420 24-11-2019 20:40:17 2 C 41 %
1421 24-11-2019 20:50:17 2 C 42 %
1422 24-11-2019 21:00:17 1.8 C 42 %
1423 24-11-2019 21:10:17 2.2 C 42 %
1424 24-11-2019 21:20:17 2 C 42 %
1425 24-11-2019 21:30:17 2 C 42 %
Sensor: Nr:Datum:Temp:Feuchte:
Aussen-T/F 1426 24-11-2019 21:40:17 1.8 C 43 %
1427 24-11-2019 21:50:17 1.8 C 43 %
1428 24-11-2019 22:00:17 1.7 C 42 %
1429 24-11-2019 22:10:17 1.3 C 42 %
1430 24-11-2019 22:20:17 1.2 C 42 %
1431 24-11-2019 22:30:17 1.2 C 42 %
1432 24-11-2019 22:40:17 1 C 42 %
1433 24-11-2019 22:50:17 1 C 42 %
1434 24-11-2019 23:00:17 1.2 C 42 %
1435 24-11-2019 23:10:17 1 C 42 %
1436 24-11-2019 23:20:17 1 C 42 %
1437 24-11-2019 23:30:17 0.8 C 43 %
1438 24-11-2019 23:40:17 0.8 C 43 %
1439 24-11-2019 23:50:17 0.9 C 43 %
1440 25-11-2019 00:00:18 0.8 C 43 %
1441 25-11-2019 00:10:18 0.9 C 43 %
1442 25-11-2019 00:20:17 1.2 C 42 %
1443 25-11-2019 00:30:17 1.4 C 42 %
1444 25-11-2019 00:40:17 1.5 C 42 %
1445 25-11-2019 00:50:18 1.5 C 42 %
1446 25-11-2019 01:00:18 1.5 C 42 %
1447 25-11-2019 01:10:18 1.5 C 42 %
1448 25-11-2019 01:20:17 1.6 C 42 %
1449 25-11-2019 01:30:17 1.5 C 42 %
1450 25-11-2019 01:40:17 1.4 C 42 %
Sensor: Nr:Datum:Temp:Feuchte:
Aussen-T/F 1451 25-11-2019 01:50:17 1.3 C 42 %
1452 25-11-2019 02:00:17 1.3 C 42 %
1453 25-11-2019 02:10:17 1.3 C 42 %
1454 25-11-2019 02:20:17 1.2 C 42 %
1455 25-11-2019 02:30:17 1.3 C 42 %
1456 25-11-2019 02:40:17 1.4 C 42 %
1457 25-11-2019 02:50:17 1.5 C 42 %
1458 25-11-2019 03:00:17 1.6 C 42 %
1459 25-11-2019 03:10:17 1.5 C 42 %
1460 25-11-2019 03:20:17 1.5 C 42 %
1461 25-11-2019 03:30:17 1.5 C 42 %
1462 25-11-2019 03:40:17 1.6 C 42 %
1463 25-11-2019 03:50:17 1.7 C 42 %
1464 25-11-2019 04:00:17 1.8 C 42 %
1465 25-11-2019 04:10:17 1.8 C 42 %
1466 25-11-2019 04:20:17 1.9 C 42 %
1467 25-11-2019 04:30:17 2 C 41 %
1468 25-11-2019 04:40:17 2.1 C 41 %
1469 25-11-2019 04:50:17 2.1 C 41 %
1470 25-11-2019 05:00:17 2.2 C 41 %
1471 25-11-2019 05:10:17 2.1 C 41 %
1472 25-11-2019 05:20:17 2.2 C 41 %
1473 25-11-2019 05:30:17 2.4 C 41 %
1474 25-11-2019 05:40:17 2.4 C 41 %
1475 25-11-2019 05:50:17 2.5 C 41 %
Sensor: Nr:Datum:Temp:Feuchte:
Aussen-T/F 1476 25-11-2019 06:00:17 2.5 C 41 %
1477 25-11-2019 06:10:17 2.5 C 41 %
1478 25-11-2019 06:20:17 2.5 C 41 %
1479 25-11-2019 06:30:17 2.6 C 41 %
1480 25-11-2019 06:40:17 2.6 C 41 %
1481 25-11-2019 06:50:17 2.8 C 41 %
1482 25-11-2019 07:00:17 2.8 C 41 %
1483 25-11-2019 07:10:17 2.8 C 41 %
1484 25-11-2019 07:20:17 2.8 C 41 %
1485 25-11-2019 07:30:17 2.8 C 41 %
1486 25-11-2019 07:40:17 2.8 C 41 %
1487 25-11-2019 07:50:17 2.8 C 41 %
1488 25-11-2019 08:00:17 2.9 C 41 %
1489 25-11-2019 08:10:17 3 C 41 %
1490 25-11-2019 08:20:17 3.1 C 41 %
1491 25-11-2019 08:30:18 3.2 C 41 %
1492 25-11-2019 08:40:18 3.3 C 42 %
1493 25-11-2019 08:50:17 3.4 C 42 %
1494 25-11-2019 09:00:17 3.6 C 43 %
1495 25-11-2019 09:10:17 3.6 C 43 %
1496 25-11-2019 09:20:17 3.7 C 43 %
1497 25-11-2019 09:30:17 3.6 C 43 %
1498 25-11-2019 09:40:17 3.8 C 43 %
1499 25-11-2019 09:50:17 3.8 C 42 %
1500 25-11-2019 10:00:17 4.1 C 42 %
Sensor: Nr:Datum:Temp:Feuchte:
Aussen-T/F 1501 25-11-2019 10:10:17 4.5 C 43 %
1502 25-11-2019 10:20:17 4.5 C 43 %
1503 25-11-2019 10:30:17 5.1 C 40 %
1504 25-11-2019 10:40:17 5.1 C 38 %
1505 25-11-2019 10:50:17 5.1 C 37 %
1506 25-11-2019 11:00:17 5.1 C 37 %
1507 25-11-2019 11:10:17 5.2 C 37 %
1508 25-11-2019 11:20:17 5.3 C 37 %
1509 25-11-2019 11:30:17 5.4 C 37 %
1510 25-11-2019 11:40:17 5.8 C 37 %
1511 25-11-2019 11:50:17 6.3 C 36 %
1512 25-11-2019 12:00:17 6.1 C 33 %
1513 25-11-2019 12:10:17 6.4 C 33 %
1514 25-11-2019 12:20:17 6.3 C 33 %
1515 25-11-2019 12:30:17 6.3 C 32 %
1516 25-11-2019 12:40:17 6.6 C 32 %
1517 25-11-2019 12:50:17 6.6 C 32 %
1518 25-11-2019 13:00:17 6.7 C 31 %
1519 25-11-2019 13:10:17 6.8 C 33 %
1520 25-11-2019 13:20:17 7 C 32 %
1521 25-11-2019 13:30:17 7 C 32 %
1522 25-11-2019 13:40:17 7 C 33 %
1523 25-11-2019 13:50:17 6.9 C 32 %
1524 25-11-2019 14:00:17 6.9 C 33 %
1525 25-11-2019 14:10:17 6.8 C 31 %
Sensor: Nr:Datum:Temp:Feuchte:
Aussen-T/F 1526 25-11-2019 14:20:17 6.8 C 35 %
1527 25-11-2019 14:30:17 6.8 C 36 %
1528 25-11-2019 14:40:17 6.9 C 36 %
1529 25-11-2019 14:50:17 6.8 C 35 %
1530 25-11-2019 15:00:17 6.7 C 35 %
1531 25-11-2019 15:10:17 6.7 C 35 %
1532 25-11-2019 15:20:17 6.7 C 34 %
1533 25-11-2019 15:30:17 6.7 C 35 %
1534 25-11-2019 15:40:17 6.6 C 33 %
1535 25-11-2019 15:50:17 6.5 C 34 %
1536 25-11-2019 16:00:17 6.5 C 35 %
1537 25-11-2019 16:10:17 6.4 C 36 %
1538 25-11-2019 16:20:17 6.3 C 36 %
1539 25-11-2019 16:30:17 6.2 C 37 %
1540 25-11-2019 16:40:17 6.1 C 38 %
1541 25-11-2019 16:50:17 6.1 C 38 %
1542 25-11-2019 17:00:17 6 C 38 %
1543 25-11-2019 17:10:17 6 C 38 %
1544 25-11-2019 17:20:17 5.9 C 38 %
1545 25-11-2019 17:30:17 5.9 C 39 %
1546 25-11-2019 17:40:17 5.8 C 39 %
1547 25-11-2019 17:50:17 5.9 C 39 %
1548 25-11-2019 18:00:18 5.9 C 39 %
1549 25-11-2019 18:10:18 5.9 C 40 %
1550 25-11-2019 18:20:17 5.9 C 39 %
Sensor: Nr:Datum:Temp:Feuchte:
Aussen-T/F 1551 25-11-2019 18:30:17 5.9 C 40 %
1552 25-11-2019 18:40:17 5.9 C 40 %
1553 25-11-2019 18:50:17 5.8 C 40 %
1554 25-11-2019 19:00:17 5.8 C 39 %
1555 25-11-2019 19:10:17 5.4 C 38 %
1556 25-11-2019 19:20:17 5 C 38 %
1557 25-11-2019 19:30:17 5.1 C 40 %
1558 25-11-2019 19:40:17 5 C 40 %
1559 25-11-2019 19:50:17 5.2 C 40 %
1560 25-11-2019 20:00:17 5.1 C 41 %
1561 25-11-2019 20:10:17 5.3 C 41 %
1562 25-11-2019 20:20:17 5.4 C 41 %
1563 25-11-2019 20:30:17 5.4 C 41 %
1564 25-11-2019 20:40:17 5.2 C 40 %
1565 25-11-2019 20:50:17 5.1 C 40 %
1566 25-11-2019 21:00:17 5.3 C 40 %
1567 25-11-2019 21:10:17 5.1 C 39 %
1568 25-11-2019 21:20:17 5.1 C 39 %
1569 25-11-2019 21:30:17 5.2 C 40 %
1570 25-11-2019 21:40:17 5 C 40 %
1571 25-11-2019 21:50:17 4.7 C 40 %
1572 25-11-2019 22:00:17 4.7 C 40 %
1573 25-11-2019 22:10:17 4.3 C 40 %
1574 25-11-2019 22:20:17 4.1 C 40 %
1575 25-11-2019 22:30:17 3.9 C 41 %
Sensor: Nr:Datum:Temp:Feuchte:
Aussen-T/F 1576 25-11-2019 22:40:17 4.1 C 41 %
1577 25-11-2019 22:50:17 3.8 C 42 %
1578 25-11-2019 23:00:17 3.5 C 42 %
1579 25-11-2019 23:10:17 3.3 C 42 %
1580 25-11-2019 23:20:17 3.1 C 42 %
1581 25-11-2019 23:30:17 2.7 C 42 %
1582 25-11-2019 23:40:17 3 C 42 %
1583 25-11-2019 23:50:17 2.8 C 43 %
1584 26-11-2019 00:00:17 2.3 C 42 %
1585 26-11-2019 00:10:17 2.3 C 42 %
1586 26-11-2019 00:20:17 2.5 C 42 %
1587 26-11-2019 00:30:17 2.4 C 42 %
1588 26-11-2019 00:40:17 2.5 C 43 %
1589 26-11-2019 00:50:17 3.1 C 42 %
1590 26-11-2019 01:00:17 3.3 C 42 %
1591 26-11-2019 01:10:17 3.4 C 42 %
1592 26-11-2019 01:20:17 3.4 C 42 %
1593 26-11-2019 01:30:17 3.4 C 42 %
1594 26-11-2019 01:40:17 3.5 C 42 %
1595 26-11-2019 01:50:17 3.6 C 42 %
1596 26-11-2019 02:00:17 3.8 C 42 %
1597 26-11-2019 02:10:17 3.8 C 42 %
1598 26-11-2019 02:20:17 3.8 C 41 %
1599 26-11-2019 02:30:17 3.8 C 41 %
1600 26-11-2019 02:40:17 3.9 C 41 %
Sensor: Nr:Datum:Temp:Feuchte:
Aussen-T/F 1601 26-11-2019 02:50:17 4.3 C 41 %
1602 26-11-2019 03:00:17 4.5 C 41 %
1603 26-11-2019 03:10:17 4.5 C 41 %
1604 26-11-2019 03:20:17 4.5 C 41 %
1605 26-11-2019 03:30:17 4.1 C 40 %
1606 26-11-2019 03:40:17 4.4 C 40 %
1607 26-11-2019 03:50:17 4.6 C 41 %
1608 26-11-2019 04:00:17 4.8 C 41 %
1609 26-11-2019 04:10:17 5.1 C 40 %
1610 26-11-2019 04:20:17 5.2 C 40 %
1611 26-11-2019 04:30:18 5.2 C 40 %
1612 26-11-2019 04:40:18 5.4 C 40 %
1613 26-11-2019 04:50:17 5.6 C 40 %
1614 26-11-2019 05:00:18 5.7 C 40 %
1615 26-11-2019 05:10:18 5.7 C 40 %
1616 26-11-2019 05:20:17 5.8 C 40 %
1617 26-11-2019 05:30:17 5.8 C 40 %
1618 26-11-2019 05:40:17 5.8 C 40 %
1619 26-11-2019 05:50:17 5.9 C 40 %
1620 26-11-2019 06:00:17 5.9 C 40 %
1621 26-11-2019 06:10:17 5.9 C 40 %
1622 26-11-2019 06:20:17 6 C 39 %
1623 26-11-2019 06:30:17 6.2 C 40 %
1624 26-11-2019 06:40:17 6.2 C 39 %
1625 26-11-2019 06:50:17 6.2 C 39 %
Sensor: Nr:Datum:Temp:Feuchte:
Aussen-T/F 1626 26-11-2019 07:00:17 6.5 C 40 %
1627 26-11-2019 07:10:17 6.5 C 40 %
1628 26-11-2019 07:20:17 6.6 C 39 %
1629 26-11-2019 07:30:17 6.6 C 39 %
1630 26-11-2019 07:40:17 6.6 C 39 %
1631 26-11-2019 07:50:17 6.7 C 39 %
1632 26-11-2019 08:00:17 6.8 C 39 %
1633 26-11-2019 08:10:17 6.9 C 39 %
1634 26-11-2019 08:20:17 6.8 C 38 %
1635 26-11-2019 08:30:17 6.8 C 38 %
1636 26-11-2019 08:40:17 6.7 C 38 %
1637 26-11-2019 08:50:17 6.8 C 38 %
1638 26-11-2019 09:00:17 7 C 37 %
1639 26-11-2019 09:10:17 7.4 C 38 %
1640 26-11-2019 09:20:17 7.6 C 37 %
1641 26-11-2019 09:30:17 7.9 C 36 %
1642 26-11-2019 09:40:17 8.3 C 33 %
1643 26-11-2019 09:50:17 8.5 C 31 %
1644 26-11-2019 10:00:17 8.8 C 32 %
1645 26-11-2019 10:10:17 9.1 C 32 %
1646 26-11-2019 10:20:17 9.4 C 32 %
1647 26-11-2019 10:30:17 9.6 C 32 %
1648 26-11-2019 10:40:17 9.7 C 31 %
1649 26-11-2019 10:50:17 9.9 C 31 %
1650 26-11-2019 11:00:17 10.3 C 29 %
Sensor: Nr:Datum:Temp:Feuchte:
Aussen-T/F 1651 26-11-2019 11:10:17 10.5 C 29 %
1652 26-11-2019 11:20:17 10.6 C 26 %
1653 26-11-2019 11:30:17 10.7 C 26 %
1654 26-11-2019 11:40:17 10.6 C 26 %
1655 26-11-2019 11:50:17 10.5 C 26 %
1656 26-11-2019 12:00:17 10.6 C 27 %
1657 26-11-2019 12:10:17 10.6 C 28 %
1658 26-11-2019 12:20:17 10.4 C 26 %
1659 26-11-2019 12:30:17 10.4 C 27 %
1660 26-11-2019 12:40:17 10.8 C 27 %
1661 26-11-2019 12:50:17 10.7 C 26 %
1662 26-11-2019 13:00:17 10.8 C 27 %
1663 26-11-2019 13:10:17 10.8 C 27 %
1664 26-11-2019 13:20:17 11 C 26 %
1665 26-11-2019 13:30:17 10.8 C 26 %
1666 26-11-2019 13:40:17 10.6 C 26 %
1667 26-11-2019 13:50:17 10.5 C 27 %
1668 26-11-2019 14:00:17 10.2 C 30 %
1669 26-11-2019 14:10:17 10.2 C 30 %
1670 26-11-2019 14:20:17 10.5 C 30 %
1671 26-11-2019 14:30:17 10.2 C 28 %
1672 26-11-2019 14:40:17 10.6 C 28 %
1673 26-11-2019 14:50:17 10.6 C 28 %
1674 26-11-2019 15:00:17 10.7 C 27 %
1675 26-11-2019 15:10:17 10.9 C 26 %
Sensor: Nr:Datum:Temp:Feuchte:
Aussen-T/F 1676 26-11-2019 15:20:17 11.1 C 26 %
1677 26-11-2019 15:30:17 11.1 C 26 %
1678 26-11-2019 15:40:17 10.6 C 27 %
1679 26-11-2019 15:50:17 10.5 C 28 %
1680 26-11-2019 16:00:17 10.1 C 30 %
1681 26-11-2019 16:10:17 10 C 30 %
1682 26-11-2019 16:20:17 9.9 C 31 %
1683 26-11-2019 16:30:17 10 C 30 %
1684 26-11-2019 16:40:17 10 C 29 %
1685 26-11-2019 16:50:17 9.7 C 30 %
1686 26-11-2019 17:00:17 9.6 C 30 %
1687 26-11-2019 17:10:17 9.4 C 31 %
1688 26-11-2019 17:20:17 9.3 C 31 %
1689 26-11-2019 17:30:17 9.2 C 31 %
1690 26-11-2019 17:40:17 9.1 C 31 %
1691 26-11-2019 17:50:17 8.9 C 32 %
1692 26-11-2019 18:00:17 8.8 C 34 %
1693 26-11-2019 18:10:17 8.9 C 36 %
1694 26-11-2019 18:20:17 8.9 C 37 %
1695 26-11-2019 18:30:17 9 C 35 %
1696 26-11-2019 18:40:17 8.9 C 35 %
1697 26-11-2019 18:50:17 9.1 C 34 %
1698 26-11-2019 19:00:17 9.7 C 31 %
1699 26-11-2019 19:10:17 9.5 C 31 %
1700 26-11-2019 19:20:17 9.6 C 30 %
Sensor: Nr:Datum:Temp:Feuchte:
Aussen-T/F 1701 26-11-2019 19:30:17 9.6 C 30 %
1702 26-11-2019 19:40:17 9.7 C 30 %
1703 26-11-2019 19:50:17 9.5 C 30 %
1704 26-11-2019 20:00:17 9.5 C 30 %
1705 26-11-2019 20:10:17 9.2 C 31 %
1706 26-11-2019 20:20:17 8.9 C 32 %
1707 26-11-2019 20:30:17 8.4 C 35 %
1708 26-11-2019 20:40:17 8.2 C 35 %
1709 26-11-2019 20:50:17 8 C 37 %
1710 26-11-2019 21:00:17 7.9 C 38 %
1711 26-11-2019 21:10:17 8.3 C 39 %
1712 26-11-2019 21:20:17 8.5 C 37 %
1713 26-11-2019 21:30:17 8.7 C 36 %
1714 26-11-2019 21:40:17 8.8 C 35 %
1715 26-11-2019 21:50:17 8.8 C 35 %
1716 26-11-2019 22:00:17 8.9 C 35 %
1717 26-11-2019 22:10:17 8.8 C 34 %
1718 26-11-2019 22:20:17 8.6 C 34 %
1719 26-11-2019 22:30:17 8.4 C 35 %
1720 26-11-2019 22:40:17 8.1 C 35 %
1721 26-11-2019 22:50:17 7.8 C 36 %
1722 26-11-2019 23:00:17 7.9 C 39 %
1723 26-11-2019 23:10:17 7.9 C 39 %
1724 26-11-2019 23:20:17 8 C 38 %
1725 26-11-2019 23:30:17 7.8 C 38 %
Sensor: Nr:Datum:Temp:Feuchte:
Aussen-T/F 1726 26-11-2019 23:40:17 7.7 C 38 %
1727 26-11-2019 23:50:17 7.8 C 39 %
1728 27-11-2019 00:00:17 7.6 C 39 %
1729 27-11-2019 00:10:17 7.5 C 39 %
1730 27-11-2019 00:20:17 7.6 C 40 %
1731 27-11-2019 00:30:17 7.6 C 39 %
1732 27-11-2019 00:40:17 7.9 C 40 %
1733 27-11-2019 00:50:17 7.7 C 39 %
1734 27-11-2019 01:00:17 7.4 C 39 %
1735 27-11-2019 01:10:17 7.6 C 40 %
1736 27-11-2019 01:20:17 7.6 C 40 %
1737 27-11-2019 01:30:17 7.8 C 40 %
1738 27-11-2019 01:40:17 7.8 C 40 %
1739 27-11-2019 01:50:17 8 C 39 %
1740 27-11-2019 02:00:17 8.1 C 39 %
1741 27-11-2019 02:10:17 8.1 C 38 %
1742 27-11-2019 02:20:17 8.1 C 38 %
1743 27-11-2019 02:30:17 8 C 39 %
1744 27-11-2019 02:40:17 7.8 C 40 %
1745 27-11-2019 02:50:17 7.7 C 40 %
1746 27-11-2019 03:00:17 7.8 C 40 %
1747 27-11-2019 03:10:17 7.6 C 41 %
1748 27-11-2019 03:20:17 7.5 C 40 %
1749 27-11-2019 03:30:17 7.2 C 40 %
1750 27-11-2019 03:40:17 7.1 C 40 %
Sensor: Nr:Datum:Temp:Feuchte:
Aussen-T/F 1751 27-11-2019 03:50:17 7 C 40 %
1752 27-11-2019 04:00:17 7.1 C 40 %
1753 27-11-2019 04:10:17 7.3 C 40 %
1754 27-11-2019 04:20:17 7.5 C 40 %
1755 27-11-2019 04:30:17 7.6 C 40 %
1756 27-11-2019 04:40:17 7.6 C 40 %
1757 27-11-2019 04:50:17 7.4 C 39 %
1758 27-11-2019 05:00:17 7.1 C 38 %
1759 27-11-2019 05:10:17 7.4 C 39 %
1760 27-11-2019 05:20:17 7.8 C 37 %
1761 27-11-2019 05:30:17 7.7 C 37 %
1762 27-11-2019 05:40:17 8 C 35 %
1763 27-11-2019 05:50:17 8 C 35 %
1764 27-11-2019 06:00:18 8 C 34 %
1765 27-11-2019 06:10:18 7.8 C 35 %
1766 27-11-2019 06:20:17 7.8 C 36 %
1767 27-11-2019 06:30:17 7.6 C 37 %
1768 27-11-2019 06:40:17 7.7 C 39 %
1769 27-11-2019 06:50:17 7.6 C 39 %
1770 27-11-2019 07:00:17 7.8 C 37 %
1771 27-11-2019 07:10:17 7.8 C 35 %
1772 27-11-2019 07:20:17 7.9 C 35 %
1773 27-11-2019 07:30:17 8.1 C 34 %
1774 27-11-2019 07:40:17 8 C 32 %
1775 27-11-2019 07:50:17 8 C 34 %
Sensor: Nr:Datum:Temp:Feuchte:
Aussen-T/F 1776 27-11-2019 08:00:17 8.2 C 33 %
1777 27-11-2019 08:10:17 8.2 C 33 %
1778 27-11-2019 08:20:17 8.3 C 34 %
1779 27-11-2019 08:30:17 8.4 C 33 %
1780 27-11-2019 08:40:17 8.4 C 33 %
1781 27-11-2019 08:50:17 8.4 C 35 %
1782 27-11-2019 09:00:17 8.6 C 35 %
1783 27-11-2019 09:10:17 8.6 C 36 %
1784 27-11-2019 09:20:17 8.8 C 36 %
1785 27-11-2019 09:30:17 9.1 C 33 %
1786 27-11-2019 09:40:17 9 C 34 %
1787 27-11-2019 09:50:17 9 C 34 %
1788 27-11-2019 10:00:17 9.1 C 35 %
1789 27-11-2019 10:10:17 9.2 C 35 %
1790 27-11-2019 10:20:17 9.3 C 35 %
1791 27-11-2019 10:30:17 9.7 C 31 %
1792 27-11-2019 10:40:17 10 C 29 %
1793 27-11-2019 10:50:17 10.4 C 27 %
1794 27-11-2019 11:00:17 11 C 25 %
1795 27-11-2019 11:10:17 11.3 C 24 %
1796 27-11-2019 11:20:17 11.6 C 22 %
1797 27-11-2019 11:30:17 11.7 C 22 %
1798 27-11-2019 11:40:17 12.1 C 20 %
1799 27-11-2019 11:50:17 12.4 C 20 %
1800 27-11-2019 12:00:17 12.7 C 20 %
Sensor: Nr:Datum:Temp:Feuchte:
Aussen-T/F 1801 27-11-2019 12:10:17 12.7 C 20 %
1802 27-11-2019 12:20:18 12.7 C 20 %
1803 27-11-2019 12:30:17 12.7 C 20 %
1804 27-11-2019 12:40:17 12.8 C 20 %
1805 27-11-2019 12:50:17 12.8 C 20 %
1806 27-11-2019 13:00:17 12.7 C 20 %
1807 27-11-2019 13:10:17 12.8 C 20 %
1808 27-11-2019 13:20:17 12.8 C 20 %
1809 27-11-2019 13:30:17 12.6 C 20 %
1810 27-11-2019 13:40:17 12.7 C 20 %
1811 27-11-2019 13:50:17 12.9 C 20 %
1812 27-11-2019 14:00:17 13.1 C 20 %
1813 27-11-2019 14:10:17 13 C 20 %
1814 27-11-2019 14:20:17 12.9 C 20 %
1815 27-11-2019 14:30:17 12.9 C 20 %
1816 27-11-2019 14:40:17 12.9 C 20 %
1817 27-11-2019 14:50:17 12.9 C 20 %
1818 27-11-2019 15:00:17 12.7 C 20 %
1819 27-11-2019 15:10:17 12.8 C 20 %
1820 27-11-2019 15:20:17 12.8 C 20 %
1821 27-11-2019 15:30:17 12.8 C 20 %
1822 27-11-2019 15:40:17 12.5 C 20 %
1823 27-11-2019 15:50:17 12.2 C 20 %
1824 27-11-2019 16:00:17 11.5 C 20 %
1825 27-11-2019 16:10:17 11.1 C 20 %
Sensor: Nr:Datum:Temp:Feuchte:
Aussen-T/F 1826 27-11-2019 16:20:17 10.8 C 25 %
1827 27-11-2019 16:30:17 10.3 C 26 %
1828 27-11-2019 16:40:17 9.9 C 29 %
1829 27-11-2019 16:50:18 9.7 C 30 %
1830 27-11-2019 17:00:17 9.5 C 31 %
1831 27-11-2019 17:10:17 9.8 C 31 %
1832 27-11-2019 17:20:17 9.8 C 31 %
1833 27-11-2019 17:30:17 9.8 C 31 %
1834 27-11-2019 17:40:17 9.7 C 33 %
1835 27-11-2019 17:50:17 9.6 C 33 %
1836 27-11-2019 18:00:17 9.7 C 32 %
1837 27-11-2019 18:10:17 9.7 C 32 %
1838 27-11-2019 18:20:17 9.9 C 31 %
1839 27-11-2019 18:30:17 9.9 C 31 %
1840 27-11-2019 18:40:17 9.8 C 32 %
1841 27-11-2019 18:50:17 9.7 C 34 %
1842 27-11-2019 19:00:17 9.7 C 36 %
1843 27-11-2019 19:10:17 9.8 C 34 %
1844 27-11-2019 19:20:17 9.7 C 33 %
1845 27-11-2019 19:30:17 10 C 31 %
1846 27-11-2019 19:40:17 10 C 31 %
1847 27-11-2019 19:50:17 10.4 C 28 %
1848 27-11-2019 20:00:17 10.8 C 26 %
1849 27-11-2019 20:10:17 10.9 C 26 %
1850 27-11-2019 20:20:17 11 C 25 %
Sensor: Nr:Datum:Temp:Feuchte:
Aussen-T/F 1851 27-11-2019 20:30:17 10.6 C 26 %
1852 27-11-2019 20:40:17 9.9 C 30 %
1853 27-11-2019 20:50:17 9.7 C 31 %
1854 27-11-2019 21:00:17 9.8 C 33 %
1855 27-11-2019 21:10:17 9.8 C 32 %
1856 27-11-2019 21:20:17 9.6 C 33 %
1857 27-11-2019 21:30:17 9.8 C 32 %
1858 27-11-2019 21:40:17 10.1 C 31 %
1859 27-11-2019 21:50:17 10.2 C 29 %
1860 27-11-2019 22:00:17 10.3 C 28 %
1861 27-11-2019 22:10:17 10.6 C 27 %
1862 27-11-2019 22:20:17 10.9 C 26 %
1863 27-11-2019 22:30:17 10.9 C 26 %
1864 27-11-2019 22:40:17 10.8 C 25 %
1865 27-11-2019 22:50:17 10.7 C 25 %
1866 27-11-2019 23:00:17 11.1 C 24 %
1867 27-11-2019 23:10:17 11.3 C 23 %
1868 27-11-2019 23:20:17 11.1 C 23 %
1869 27-11-2019 23:30:17 11.5 C 21 %
1870 27-11-2019 23:40:18 11.5 C 21 %
1871 27-11-2019 23:50:17 11.2 C 21 %
1872 28-11-2019 00:00:18 11.2 C 21 %
1873 28-11-2019 00:10:18 11.3 C 20 %
1874 28-11-2019 00:20:17 11.2 C 20 %
1875 28-11-2019 00:30:17 11.2 C 20 %
Sensor: Nr:Datum:Temp:Feuchte:
Aussen-T/F 1876 28-11-2019 00:40:17 11.5 C 20 %
1877 28-11-2019 00:50:17 11.3 C 20 %
1878 28-11-2019 01:00:17 11.4 C 20 %
1879 28-11-2019 01:10:17 11.4 C 20 %
1880 28-11-2019 01:20:17 11.4 C 20 %
1881 28-11-2019 01:30:17 11.4 C 20 %
1882 28-11-2019 01:40:17 11.1 C 20 %
1883 28-11-2019 01:50:17 11.1 C 20 %
1884 28-11-2019 02:00:18 10.8 C 20 %
1885 28-11-2019 02:10:18 10.5 C 20 %
1886 28-11-2019 02:20:17 10.7 C 20 %
1887 28-11-2019 02:30:17 11 C 20 %
1888 28-11-2019 02:40:17 10.5 C 21 %
1889 28-11-2019 02:50:17 10.8 C 20 %
1890 28-11-2019 03:00:17 10.9 C 20 %
1891 28-11-2019 03:10:17 10.3 C 20 %
1892 28-11-2019 03:20:18 10.8 C 20 %
1893 28-11-2019 03:30:18 10.6 C 20 %
1894 28-11-2019 03:40:18 10.9 C 20 %
1895 28-11-2019 03:50:18 10.9 C 20 %
1896 28-11-2019 04:00:18 10.7 C 20 %
1897 28-11-2019 04:10:18 10.6 C 20 %
1898 28-11-2019 04:20:17 10.6 C 20 %
1899 28-11-2019 04:30:17 10.6 C 20 %
1900 28-11-2019 04:40:17 10.5 C 20 %
Sensor: Nr:Datum:Temp:Feuchte:
Aussen-T/F 1901 28-11-2019 04:50:17 10.3 C 20 %
1902 28-11-2019 05:00:17 10.5 C 20 %
1903 28-11-2019 05:10:17 10.2 C 20 %
1904 28-11-2019 05:20:17 10.1 C 20 %
1905 28-11-2019 05:30:17 10.4 C 20 %
1906 28-11-2019 05:40:17 10.1 C 20 %
1907 28-11-2019 05:50:17 10.2 C 20 %
1908 28-11-2019 06:00:17 9.9 C 20 %
1909 28-11-2019 06:10:17 10.1 C 20 %
1910 28-11-2019 06:20:17 10.2 C 20 %
1911 28-11-2019 06:30:17 10.5 C 20 %
1912 28-11-2019 06:40:17 10.6 C 20 %
1913 28-11-2019 06:50:17 10.5 C 20 %
1914 28-11-2019 07:00:17 10.4 C 20 %
1915 28-11-2019 07:10:17 10 C 20 %
1916 28-11-2019 07:20:17 10 C 20 %
1917 28-11-2019 07:30:17 10 C 20 %
1918 28-11-2019 07:40:17 10.2 C 20 %
1919 28-11-2019 07:50:17 10.3 C 20 %
1920 28-11-2019 08:00:17 10.4 C 20 %
1921 28-11-2019 08:10:17 10.2 C 20 %
1922 28-11-2019 08:20:17 10.2 C 20 %
1923 28-11-2019 08:30:17 10.1 C 20 %
1924 28-11-2019 08:40:17 10.1 C 20 %
1925 28-11-2019 08:50:17 10.1 C 20 %
Sensor: Nr:Datum:Temp:Feuchte:
Aussen-T/F 1926 28-11-2019 09:00:17 10.3 C 20 %
1927 28-11-2019 09:10:17 10.7 C 20 %
1928 28-11-2019 09:20:17 11 C 20 %
1929 28-11-2019 09:30:17 11 C 20 %
1930 28-11-2019 09:40:17 11.1 C 20 %
1931 28-11-2019 09:50:17 11.1 C 20 %
1932 28-11-2019 10:00:17 11.3 C 20 %
1933 28-11-2019 10:10:17 11.3 C 20 %
1934 28-11-2019 10:20:17 11.5 C 20 %
1935 28-11-2019 10:30:17 11.6 C 20 %
1936 28-11-2019 10:40:17 11.7 C 20 %
1937 28-11-2019 10:50:17 11.7 C 20 %
1938 28-11-2019 11:00:17 11.7 C 20 %
1939 28-11-2019 11:10:17 11.8 C 20 %
1940 28-11-2019 11:20:17 11.9 C 20 %
1941 28-11-2019 11:30:17 11.9 C 20 %
1942 28-11-2019 11:40:17 12.2 C 20 %
1943 28-11-2019 11:50:17 11.9 C 20 %
1944 28-11-2019 12:00:17 11.6 C 20 %
1945 28-11-2019 12:10:17 11.5 C 20 %
1946 28-11-2019 12:20:17 11.1 C 20 %
1947 28-11-2019 12:30:17 11.1 C 20 %
1948 28-11-2019 12:40:17 10.9 C 20 %
1949 28-11-2019 12:50:17 11.2 C 20 %
1950 28-11-2019 13:00:17 11.2 C 20 %
Sensor: Nr:Datum:Temp:Feuchte:
Aussen-T/F 1951 28-11-2019 13:10:17 11.7 C 20 %
1952 28-11-2019 13:20:17 11.8 C 20 %
1953 28-11-2019 13:30:17 12.1 C 20 %
1954 28-11-2019 13:40:17 11.4 C 20 %
1955 28-11-2019 13:50:17 11.4 C 20 %
1956 28-11-2019 14:00:17 11.3 C 20 %
1957 28-11-2019 14:10:17 11.4 C 20 %
1958 28-11-2019 14:20:17 11.2 C 20 %
1959 28-11-2019 14:30:17 11.1 C 20 %
1960 28-11-2019 14:40:17 11.2 C 20 %
1961 28-11-2019 14:50:17 11.2 C 20 %
1962 28-11-2019 15:00:17 11.2 C 20 %
1963 28-11-2019 15:10:17 11.1 C 20 %
1964 28-11-2019 15:20:17 11 C 20 %
1965 28-11-2019 15:30:17 10.2 C 23 %
1966 28-11-2019 15:40:17 10.2 C 21 %
1967 28-11-2019 15:50:17 10.3 C 21 %
1968 28-11-2019 16:00:17 10.5 C 21 %
1969 28-11-2019 16:10:17 10.3 C 22 %
1970 28-11-2019 16:20:17 10.5 C 21 %
1971 28-11-2019 16:30:17 10.6 C 21 %
1972 28-11-2019 16:40:17 10.4 C 21 %
1973 28-11-2019 16:50:17 10.4 C 21 %
1974 28-11-2019 17:00:17 10.3 C 22 %
1975 28-11-2019 17:10:17 9.7 C 27 %
Sensor: Nr:Datum:Temp:Feuchte:
Aussen-T/F 1976 28-11-2019 17:20:17 9.5 C 29 %
1977 28-11-2019 17:30:17 9.4 C 30 %
1978 28-11-2019 17:40:17 9.3 C 30 %
1979 28-11-2019 17:50:17 9.6 C 28 %
1980 28-11-2019 18:00:17 9.8 C 27 %
1981 28-11-2019 18:10:17 10.2 C 25 %
1982 28-11-2019 18:20:17 10.3 C 25 %
1983 28-11-2019 18:30:17 10.2 C 25 %
1984 28-11-2019 18:40:17 10.2 C 25 %
1985 28-11-2019 18:50:17 10.2 C 25 %
1986 28-11-2019 19:00:17 10.1 C 25 %
1987 28-11-2019 19:10:17 9.8 C 26 %
1988 28-11-2019 19:20:17 9.8 C 26 %
1989 28-11-2019 19:30:17 9.8 C 26 %
1990 28-11-2019 19:40:17 9.9 C 26 %
1991 28-11-2019 19:50:17 10.1 C 25 %
1992 28-11-2019 20:00:17 10.1 C 26 %
1993 28-11-2019 20:10:17 9.8 C 26 %
1994 28-11-2019 20:20:17 9.8 C 26 %
1995 28-11-2019 20:30:17 9.8 C 27 %
1996 28-11-2019 20:40:17 10.1 C 26 %
1997 28-11-2019 20:50:17 10 C 25 %
1998 28-11-2019 21:00:17 10.1 C 25 %
1999 28-11-2019 21:10:17 9.7 C 27 %
2000 28-11-2019 21:20:17 9.9 C 27 %
Sensor: Nr:Datum:Temp:Feuchte:
Aussen-T/F 2001 28-11-2019 21:30:17 10.1 C 26 %
2002 28-11-2019 21:40:17 10 C 26 %
2003 28-11-2019 21:50:17 10 C 25 %
2004 28-11-2019 22:00:17 9.6 C 27 %
2005 28-11-2019 22:10:17 9.6 C 28 %
2006 28-11-2019 22:20:17 9.6 C 28 %
2007 28-11-2019 22:30:17 9.5 C 28 %
2008 28-11-2019 22:40:17 9.6 C 28 %
2009 28-11-2019 22:50:17 9.5 C 28 %
2010 28-11-2019 23:00:17 9.5 C 28 %
2011 28-11-2019 23:10:17 9.5 C 29 %
2012 28-11-2019 23:20:17 9.6 C 28 %
2013 28-11-2019 23:30:17 9.2 C 30 %
2014 28-11-2019 23:40:17 9.1 C 32 %
2015 28-11-2019 23:50:17 8.9 C 35 %
2016 29-11-2019 00:00:17 8.9 C 34 %
2017 29-11-2019 00:10:17 8.7 C 36 %
2018 29-11-2019 00:20:17 8.8 C 35 %
2019 29-11-2019 00:30:17 8.7 C 36 %
2020 29-11-2019 00:40:17 8.7 C 35 %
2021 29-11-2019 00:50:17 8.6 C 35 %
2022 29-11-2019 01:00:17 8.6 C 36 %
2023 29-11-2019 01:10:17 8.5 C 37 %
2024 29-11-2019 01:20:17 8.3 C 37 %
2025 29-11-2019 01:30:17 8.3 C 36 %
Sensor: Nr:Datum:Temp:Feuchte:
Aussen-T/F 2026 29-11-2019 01:40:17 8.3 C 36 %
2027 29-11-2019 01:50:17 8.1 C 39 %
2028 29-11-2019 02:00:17 8.1 C 40 %
2029 29-11-2019 02:10:17 8.1 C 40 %
2030 29-11-2019 02:20:17 8.1 C 40 %
2031 29-11-2019 02:30:17 8.1 C 40 %
2032 29-11-2019 02:40:17 8.1 C 40 %
2033 29-11-2019 02:50:17 8 C 40 %
2034 29-11-2019 03:00:17 8 C 40 %
2035 29-11-2019 03:10:17 8 C 40 %
2036 29-11-2019 03:20:17 7.9 C 40 %
2037 29-11-2019 03:30:17 7.8 C 40 %
2038 29-11-2019 03:40:17 7.7 C 40 %
2039 29-11-2019 03:50:17 7.6 C 40 %
2040 29-11-2019 04:00:17 7.6 C 40 %
2041 29-11-2019 04:10:17 7.6 C 40 %
2042 29-11-2019 04:20:17 7.6 C 40 %
2043 29-11-2019 04:30:17 7.5 C 40 %
2044 29-11-2019 04:40:17 7.5 C 40 %
2045 29-11-2019 04:50:17 7.2 C 38 %
2046 29-11-2019 05:00:17 6.8 C 34 %
2047 29-11-2019 05:10:17 6.4 C 33 %
2048 29-11-2019 05:20:17 6.2 C 34 %
2049 29-11-2019 05:30:17 6.2 C 35 %
2050 29-11-2019 05:40:18 6.1 C 36 %
Sensor: Nr:Datum:Temp:Feuchte:
Aussen-T/F 2051 29-11-2019 05:50:17 6 C 36 %
2052 29-11-2019 06:00:17 6 C 38 %
2053 29-11-2019 06:10:17 5.9 C 38 %
2054 29-11-2019 06:20:17 5.9 C 38 %
2055 29-11-2019 06:30:17 5.9 C 40 %
2056 29-11-2019 06:40:17 5.9 C 40 %
2057 29-11-2019 06:50:17 5.8 C 36 %
2058 29-11-2019 07:00:17 5.7 C 35 %
2059 29-11-2019 07:10:17 5.6 C 37 %
2060 29-11-2019 07:20:17 5.4 C 37 %
2061 29-11-2019 07:30:17 5.4 C 40 %
2062 29-11-2019 07:40:17 5.4 C 37 %
2063 29-11-2019 07:50:17 5.4 C 39 %
2064 29-11-2019 08:00:17 5.3 C 40 %
2065 29-11-2019 08:10:17 5.2 C 40 %
2066 29-11-2019 08:20:17 5.1 C 40 %
2067 29-11-2019 08:30:17 5 C 40 %
2068 29-11-2019 08:40:17 5 C 40 %
2069 29-11-2019 08:50:17 5 C 39 %
2070 29-11-2019 09:00:17 5 C 39 %
2071 29-11-2019 09:10:17 5 C 39 %
2072 29-11-2019 09:20:17 4.8 C 37 %
2073 29-11-2019 09:30:17 4.6 C 37 %
2074 29-11-2019 09:40:17 4.6 C 37 %
2075 29-11-2019 09:50:17 4.7 C 36 %
Sensor: Nr:Datum:Temp:Feuchte:
Aussen-T/F 2076 29-11-2019 10:00:17 4.8 C 32 %
2077 29-11-2019 10:10:17 5.1 C 31 %
2078 29-11-2019 10:20:17 5.8 C 27 %
2079 29-11-2019 10:30:17 5.9 C 29 %
2080 29-11-2019 10:40:17 5.7 C 27 %
2081 29-11-2019 10:50:17 5.4 C 28 %
2082 29-11-2019 11:00:17 5.6 C 30 %
2083 29-11-2019 11:10:17 5.9 C 26 %
2084 29-11-2019 11:20:17 6 C 27 %
2085 29-11-2019 11:30:17 6.4 C 26 %
2086 29-11-2019 11:40:17 7 C 23 %
2087 29-11-2019 11:50:17 7.3 C 21 %
2088 29-11-2019 12:00:17 7.2 C 20 %
2089 29-11-2019 12:10:17 7.2 C 20 %
2090 29-11-2019 12:20:17 7.1 C 20 %
2091 29-11-2019 12:30:17 7.6 C 20 %
2092 29-11-2019 12:40:17 7.2 C 20 %
2093 29-11-2019 12:50:17 6.9 C 21 %
2094 29-11-2019 13:00:17 6.6 C 21 %
2095 29-11-2019 13:10:17 6.2 C 23 %
2096 29-11-2019 13:20:17 5.9 C 25 %
2097 29-11-2019 13:30:17 6.1 C 25 %
2098 29-11-2019 13:40:17 6.1 C 25 %
2099 29-11-2019 13:50:17 6.5 C 20 %
2100 29-11-2019 14:00:17 6.5 C 20 %
Sensor: Nr:Datum:Temp:Feuchte:
Aussen-T/F 2101 29-11-2019 14:10:17 7 C 20 %
2102 29-11-2019 14:20:17 7.3 C 20 %
2103 29-11-2019 14:30:17 7.3 C 20 %
2104 29-11-2019 14:40:17 6.9 C 20 %
2105 29-11-2019 14:50:17 6.5 C 20 %
2106 29-11-2019 15:00:17 7.3 C 20 %
2107 29-11-2019 15:10:17 7.3 C 20 %
2108 29-11-2019 15:20:17 7.2 C 20 %
2109 29-11-2019 15:30:17 7.2 C 20 %
2110 29-11-2019 15:40:17 7.2 C 20 %
2111 29-11-2019 15:50:17 6.7 C 20 %
2112 29-11-2019 16:00:17 6.4 C 20 %
2113 29-11-2019 16:10:17 5.6 C 20 %
2114 29-11-2019 16:20:17 6.2 C 20 %
2115 29-11-2019 16:30:17 6 C 20 %
2116 29-11-2019 16:40:18 5.3 C 20 %
2117 29-11-2019 16:50:17 5.3 C 20 %
2118 29-11-2019 17:00:18 4.5 C 23 %
2119 29-11-2019 17:10:18 4 C 26 %
2120 29-11-2019 17:20:17 4 C 26 %
2121 29-11-2019 17:30:18 3.9 C 27 %
2122 29-11-2019 17:40:18 4 C 26 %
2123 29-11-2019 17:50:17 3.8 C 27 %
2124 29-11-2019 18:00:17 4.2 C 26 %
2125 29-11-2019 18:10:18 4.6 C 25 %
Sensor: Nr:Datum:Temp:Feuchte:
Aussen-T/F 2126 29-11-2019 18:20:17 5 C 21 %
2127 29-11-2019 18:30:17 5 C 21 %
2128 29-11-2019 18:40:17 4.8 C 23 %
2129 29-11-2019 18:50:17 4.7 C 26 %
2130 29-11-2019 19:00:17 4.8 C 21 %
2131 29-11-2019 19:10:17 4.8 C 21 %
2132 29-11-2019 19:20:17 4.8 C 21 %
2133 29-11-2019 19:30:17 4.4 C 25 %
2134 29-11-2019 19:40:17 4.6 C 21 %
2135 29-11-2019 19:50:17 4.4 C 25 %
2136 29-11-2019 20:00:17 4 C 26 %
2137 29-11-2019 20:10:17 4 C 26 %
2138 29-11-2019 20:20:17 4.3 C 25 %
2139 29-11-2019 20:30:17 4.7 C 23 %
2140 29-11-2019 20:40:17 4 C 25 %
2141 29-11-2019 20:50:17 3.9 C 26 %
2142 29-11-2019 21:00:17 3.8 C 28 %
2143 29-11-2019 21:10:17 3.9 C 27 %
2144 29-11-2019 21:20:17 3.8 C 27 %
2145 29-11-2019 21:30:17 3.8 C 28 %
2146 29-11-2019 21:40:17 3.9 C 28 %
2147 29-11-2019 21:50:17 3.2 C 30 %
2148 29-11-2019 22:00:17 3.3 C 29 %
2149 29-11-2019 22:10:17 2.6 C 32 %
2150 29-11-2019 22:20:17 2.1 C 35 %
Sensor: Nr:Datum:Temp:Feuchte:
Aussen-T/F 2151 29-11-2019 22:30:17 1.9 C 37 %
2152 29-11-2019 22:40:17 1.7 C 40 %
2153 29-11-2019 22:50:17 1.8 C 41 %
2154 29-11-2019 23:00:17 1.5 C 38 %
2155 29-11-2019 23:10:17 1.1 C 39 %
2156 29-11-2019 23:20:17 1.3 C 41 %
2157 29-11-2019 23:30:17 1.5 C 42 %
2158 29-11-2019 23:40:17 1.6 C 41 %
2159 29-11-2019 23:50:17 1.7 C 41 %
2160 30-11-2019 00:00:17 1.9 C 40 %
2161 30-11-2019 00:10:17 1.8 C 40 %
2162 30-11-2019 00:20:17 1.8 C 40 %
2163 30-11-2019 00:30:17 2 C 37 %
2164 30-11-2019 00:40:17 1.7 C 37 %
2165 30-11-2019 00:50:17 1.6 C 40 %
2166 30-11-2019 01:00:17 1.3 C 40 %
2167 30-11-2019 01:10:17 1 C 40 %
2168 30-11-2019 01:20:17 0.7 C 41 %
2169 30-11-2019 01:30:17 0.5 C 42 %
2170 30-11-2019 01:40:17 0.7 C 44 %
2171 30-11-2019 01:50:17 0.5 C 43 %
2172 30-11-2019 02:00:17 0.4 C 44 %
2173 30-11-2019 02:10:17 0.9 C 45 %
2174 30-11-2019 02:20:17 1.1 C 44 %
2175 30-11-2019 02:30:17 1.2 C 44 %
Sensor: Nr:Datum:Temp:Feuchte:
Aussen-T/F 2176 30-11-2019 02:40:17 0.8 C 43 %
2177 30-11-2019 02:50:17 0.8 C 43 %
2178 30-11-2019 03:00:17 0.9 C 43 %
2179 30-11-2019 03:10:17 0.7 C 43 %
2180 30-11-2019 03:20:17 0.3 C 41 %
2181 30-11-2019 03:30:17 0.5 C 44 %
2182 30-11-2019 03:40:17 0.2 C 43 %
2183 30-11-2019 03:50:17 0.6 C 44 %
2184 30-11-2019 04:00:17 1 C 44 %
2185 30-11-2019 04:10:17 1.3 C 43 %
2186 30-11-2019 04:20:17 1.3 C 41 %
2187 30-11-2019 04:30:17 1.4 C 40 %
2188 30-11-2019 04:40:17 1.3 C 40 %
2189 30-11-2019 04:50:17 1 C 38 %
2190 30-11-2019 05:00:17 0.6 C 40 %
2191 30-11-2019 05:10:17 1.1 C 41 %
2192 30-11-2019 05:20:17 0.8 C 40 %
2193 30-11-2019 05:30:17 0.3 C 40 %
2194 30-11-2019 05:40:17 -0.5 C 40 %
2195 30-11-2019 05:50:17 -0.7 C 41 %
2196 30-11-2019 06:00:17 -0.7 C 43 %
2197 30-11-2019 06:10:17 -0.9 C 43 %
2198 30-11-2019 06:20:17 -1 C 43 %
2199 30-11-2019 06:30:17 -1.2 C 43 %
2200 30-11-2019 06:40:17 -1.3 C 43 %
Sensor: Nr:Datum:Temp:Feuchte:
Aussen-T/F 2201 30-11-2019 06:50:17 -1.2 C 44 %
2202 30-11-2019 07:00:17 -1.4 C 44 %
2203 30-11-2019 07:10:17 -1.4 C 43 %
2204 30-11-2019 07:20:17 -1.4 C 43 %
2205 30-11-2019 07:30:17 -1.5 C 43 %
2206 30-11-2019 07:40:17 -1.2 C 44 %
2207 30-11-2019 07:50:17 -1.1 C 44 %
2208 30-11-2019 08:00:17 -1 C 44 %
2209 30-11-2019 08:10:17 -0.7 C 44 %
2210 30-11-2019 08:20:17 -0.6 C 44 %
2211 30-11-2019 08:30:17 -0.7 C 44 %
2212 30-11-2019 08:40:17 -0.6 C 44 %
2213 30-11-2019 08:50:17 -0.7 C 44 %
2214 30-11-2019 09:00:17 -0.7 C 44 %
2215 30-11-2019 09:10:17 -0.6 C 44 %
2216 30-11-2019 09:20:17 -0.7 C 44 %
2217 30-11-2019 09:30:17 -0.7 C 44 %
2218 30-11-2019 09:40:17 -0.6 C 44 %
2219 30-11-2019 09:50:17 -0.3 C 44 %
2220 30-11-2019 10:00:17 -0.3 C 44 %
2221 30-11-2019 10:10:17 0 C 44 %
2222 30-11-2019 10:20:17 0.1 C 43 %
2223 30-11-2019 10:30:17 0.4 C 43 %
2224 30-11-2019 10:40:17 0.5 C 43 %
2225 30-11-2019 10:50:17 0.4 C 43 %
Sensor: Nr:Datum:Temp:Feuchte:
Aussen-T/F 2226 30-11-2019 11:00:18 0.5 C 42 %
2227 30-11-2019 11:10:18 0.6 C 42 %
2228 30-11-2019 11:20:17 0.6 C 42 %
2229 30-11-2019 11:30:17 0.4 C 41 %
2230 30-11-2019 11:40:17 0.6 C 41 %
2231 30-11-2019 11:50:17 0.9 C 41 %
2232 30-11-2019 12:00:17 1.1 C 40 %
2233 30-11-2019 12:10:17 0.9 C 38 %
2234 30-11-2019 12:20:17 1.3 C 39 %
2235 30-11-2019 12:30:17 1.4 C 37 %
2236 30-11-2019 12:40:17 1.4 C 36 %
2237 30-11-2019 12:50:17 2.3 C 36 %
2238 30-11-2019 13:00:17 2.4 C 36 %
2239 30-11-2019 13:10:17 1.8 C 36 %
2240 30-11-2019 13:20:17 2.2 C 36 %
2241 30-11-2019 13:30:17 2.1 C 36 %
2242 30-11-2019 13:40:17 2.3 C 36 %
2243 30-11-2019 13:50:17 2.3 C 36 %
2244 30-11-2019 14:00:17 2 C 36 %
2245 30-11-2019 14:10:17 2.1 C 38 %
2246 30-11-2019 14:20:17 2.2 C 38 %
2247 30-11-2019 14:30:17 2.2 C 38 %
2248 30-11-2019 14:40:17 2.4 C 38 %
2249 30-11-2019 14:50:17 2.2 C 37 %
2250 30-11-2019 15:00:17 1.9 C 39 %
Sensor: Nr:Datum:Temp:Feuchte:
Aussen-T/F 2251 30-11-2019 15:10:17 1.8 C 40 %
2252 30-11-2019 15:20:18 1.9 C 41 %
2253 30-11-2019 15:30:17 1.8 C 41 %
2254 30-11-2019 15:40:17 1.6 C 41 %
2255 30-11-2019 15:50:17 1.7 C 42 %
2256 30-11-2019 16:00:17 1.5 C 42 %
2257 30-11-2019 16:10:17 1.5 C 42 %
2258 30-11-2019 16:20:17 1.4 C 43 %
2259 30-11-2019 16:30:17 1.3 C 43 %
2260 30-11-2019 16:40:17 1.3 C 43 %
2261 30-11-2019 16:50:17 1.1 C 43 %
2262 30-11-2019 17:00:17 0.9 C 44 %
2263 30-11-2019 17:10:17 0.9 C 44 %
2264 30-11-2019 17:20:17 0.6 C 44 %
2265 30-11-2019 17:30:17 0.6 C 44 %
2266 30-11-2019 17:40:17 0.6 C 44 %
2267 30-11-2019 17:50:17 0.5 C 44 %
2268 30-11-2019 18:00:17 0.4 C 44 %
2269 30-11-2019 18:10:17 0.3 C 44 %
2270 30-11-2019 18:20:17 0.3 C 44 %
2271 30-11-2019 18:30:17 0.4 C 44 %
2272 30-11-2019 18:40:17 0.4 C 44 %
2273 30-11-2019 18:50:17 0.4 C 44 %
2274 30-11-2019 19:00:17 0.2 C 44 %
2275 30-11-2019 19:10:17 0 C 44 %
Sensor: Nr:Datum:Temp:Feuchte:
Aussen-T/F 2276 30-11-2019 19:20:17 0 C 44 %
2277 30-11-2019 19:30:17 0 C 44 %
2278 30-11-2019 19:40:17 -0.1 C 44 %
2279 30-11-2019 19:50:17 -0.1 C 44 %
2280 30-11-2019 20:00:17 -0.2 C 44 %
2281 30-11-2019 20:10:18 -0.2 C 44 %
2282 30-11-2019 20:20:18 -0.2 C 44 %
2283 30-11-2019 20:30:17 -0.2 C 44 %
2284 30-11-2019 20:40:17 -0.4 C 44 %
2285 30-11-2019 20:50:17 -0.3 C 44 %
2286 30-11-2019 21:00:17 -0.2 C 44 %
2287 30-11-2019 21:10:17 -0.3 C 44 %
2288 30-11-2019 21:20:17 -0.3 C 44 %
2289 30-11-2019 21:30:17 -0.4 C 44 %
2290 30-11-2019 21:40:17 -0.2 C 44 %
2291 30-11-2019 21:50:17 -0.3 C 44 %
2292 30-11-2019 22:00:17 -0.3 C 44 %
2293 30-11-2019 22:10:17 -0.3 C 44 %
2294 30-11-2019 22:20:17 -0.3 C 44 %
2295 30-11-2019 22:30:17 -0.1 C 44 %
2296 30-11-2019 22:40:17 0 C 44 %
2297 30-11-2019 22:50:17 0 C 44 %
2298 30-11-2019 23:00:17 0 C 44 %
2299 30-11-2019 23:10:17 0 C 44 %
2300 30-11-2019 23:20:17 -0.1 C 44 %
Sensor: Nr:Datum:Temp:Feuchte:
Aussen-T/F 2301 30-11-2019 23:30:17 -0.4 C 43 %
2302 30-11-2019 23:40:17 -0.5 C 43 %
2303 30-11-2019 23:50:17 -0.4 C 43 %
2304 01-12-2019 00:00:17 -0.2 C 43 %
2305 01-12-2019 00:10:17 -0.3 C 43 %
2306 01-12-2019 00:20:17 -0.3 C 43 %
2307 01-12-2019 00:30:17 -0.3 C 43 %
2308 01-12-2019 00:40:17 -0.3 C 43 %
2309 01-12-2019 00:50:18 -0.2 C 43 %
2310 01-12-2019 01:00:17 0 C 44 %
2311 01-12-2019 01:10:17 -0.1 C 43 %
2312 01-12-2019 01:20:17 -0.1 C 43 %
2313 01-12-2019 01:30:17 -0.1 C 43 %
2314 01-12-2019 01:40:17 -0.1 C 43 %
2315 01-12-2019 01:50:17 -0.2 C 43 %
2316 01-12-2019 02:00:17 -0.1 C 43 %
2317 01-12-2019 02:10:17 -0.2 C 43 %
2318 01-12-2019 02:20:17 -0.2 C 43 %
2319 01-12-2019 02:30:17 -0.2 C 43 %
2320 01-12-2019 02:40:17 -0.3 C 43 %
2321 01-12-2019 02:50:17 -0.2 C 43 %
2322 01-12-2019 03:00:17 -0.3 C 43 %
2323 01-12-2019 03:10:17 -0.3 C 43 %
2324 01-12-2019 03:20:17 -0.4 C 43 %
2325 01-12-2019 03:30:17 -0.4 C 43 %
Sensor: Nr:Datum:Temp:Feuchte:
Aussen-T/F 2326 01-12-2019 03:40:17 -0.4 C 43 %
2327 01-12-2019 03:50:17 -0.4 C 43 %
2328 01-12-2019 04:00:17 -0.4 C 43 %
2329 01-12-2019 04:10:17 -0.8 C 42 %
2330 01-12-2019 04:20:17 -1.1 C 42 %
2331 01-12-2019 04:30:17 -1.3 C 42 %
2332 01-12-2019 04:40:17 -0.9 C 43 %
2333 01-12-2019 04:50:17 -0.9 C 43 %
2334 01-12-2019 05:00:17 -0.7 C 43 %
2335 01-12-2019 05:10:17 -0.8 C 43 %
2336 01-12-2019 05:20:17 -0.9 C 43 %
2337 01-12-2019 05:30:17 -1.1 C 43 %
2338 01-12-2019 05:40:17 -1 C 43 %
2339 01-12-2019 05:50:17 -0.9 C 43 %
2340 01-12-2019 06:00:17 -1 C 43 %
2341 01-12-2019 06:10:17 -1.1 C 43 %
2342 01-12-2019 06:20:17 -1.3 C 43 %
2343 01-12-2019 06:30:17 -1 C 43 %
2344 01-12-2019 06:40:17 -0.9 C 43 %
2345 01-12-2019 06:50:17 -0.9 C 43 %
2346 01-12-2019 07:00:17 -0.8 C 43 %
2347 01-12-2019 07:10:17 -0.7 C 43 %
2348 01-12-2019 07:20:17 -0.5 C 43 %
2349 01-12-2019 07:30:17 -0.5 C 43 %
2350 01-12-2019 07:40:17 -0.3 C 43 %
Sensor: Nr:Datum:Temp:Feuchte:
Aussen-T/F 2351 01-12-2019 07:50:17 -0.2 C 43 %
2352 01-12-2019 08:00:17 -0.1 C 43 %
2353 01-12-2019 08:10:17 -0.1 C 43 %
2354 01-12-2019 08:20:17 -0.2 C 43 %
2355 01-12-2019 08:30:17 -0.2 C 43 %
2356 01-12-2019 08:40:17 -0.2 C 43 %
2357 01-12-2019 08:50:17 0 C 43 %
2358 01-12-2019 09:00:17 0 C 42 %
2359 01-12-2019 09:10:17 0.2 C 42 %
2360 01-12-2019 09:20:17 0.1 C 42 %
2361 01-12-2019 09:30:17 0.1 C 42 %
2362 01-12-2019 09:40:17 0.2 C 41 %
2363 01-12-2019 09:50:17 0.3 C 41 %
2364 01-12-2019 10:00:17 0.5 C 41 %
2365 01-12-2019 10:10:17 0.6 C 41 %
2366 01-12-2019 10:20:17 0.7 C 40 %
2367 01-12-2019 10:30:17 0.8 C 39 %
2368 01-12-2019 10:40:17 1 C 38 %
2369 01-12-2019 10:50:17 1.1 C 37 %
2370 01-12-2019 11:00:17 1.4 C 36 %
2371 01-12-2019 11:10:17 1.9 C 34 %
2372 01-12-2019 11:20:17 2.1 C 32 %
2373 01-12-2019 11:30:17 2.7 C 30 %
2374 01-12-2019 11:40:17 3 C 27 %
2375 01-12-2019 11:50:17 2.9 C 20 %
Sensor: Nr:Datum:Temp:Feuchte:
Aussen-T/F 2376 01-12-2019 12:00:17 3 C 21 %
2377 01-12-2019 12:10:17 3.1 C 20 %
2378 01-12-2019 12:20:17 3.3 C 20 %
2379 01-12-2019 12:30:18 3.3 C 20 %
2380 01-12-2019 12:40:18 3.3 C 20 %
2381 01-12-2019 12:50:18 3.4 C 20 %
2382 01-12-2019 13:00:17 3.3 C 20 %
2383 01-12-2019 13:10:17 3.4 C 20 %
2384 01-12-2019 13:20:18 3.5 C 20 %
2385 01-12-2019 13:30:18 3.5 C 20 %
2386 01-12-2019 13:40:18 3.6 C 20 %
2387 01-12-2019 13:50:17 3.8 C 20 %
2388 01-12-2019 14:00:17 3.9 C 20 %
2389 01-12-2019 14:10:18 3.9 C 20 %
2390 01-12-2019 14:20:18 3.7 C 20 %
2391 01-12-2019 14:30:17 3.7 C 20 %
2392 01-12-2019 14:40:17 3.6 C 20 %
2393 01-12-2019 14:50:17 3.6 C 20 %
2394 01-12-2019 15:00:17 3.5 C 20 %
2395 01-12-2019 15:10:17 3.3 C 20 %
2396 01-12-2019 15:20:17 3.2 C 21 %
2397 01-12-2019 15:30:17 3 C 20 %
2398 01-12-2019 15:40:17 3 C 21 %
2399 01-12-2019 15:50:17 2.7 C 25 %
2400 01-12-2019 16:00:17 2.6 C 25 %
Sensor: Nr:Datum:Temp:Feuchte:
Aussen-T/F 2401 01-12-2019 16:10:17 2.5 C 25 %
2402 01-12-2019 16:20:17 2.4 C 25 %
2403 01-12-2019 16:30:18 2.4 C 25 %
2404 01-12-2019 16:40:18 2.2 C 25 %
2405 01-12-2019 16:50:18 2.2 C 25 %
2406 01-12-2019 17:00:18 2.2 C 25 %
2407 01-12-2019 17:10:18 2.2 C 25 %
2408 01-12-2019 17:20:17 2.3 C 25 %
2409 01-12-2019 17:30:17 2.3 C 25 %
2410 01-12-2019 17:40:17 2.3 C 25 %
2411 01-12-2019 17:50:17 2.3 C 25 %
2412 01-12-2019 18:00:17 2.3 C 25 %
2413 01-12-2019 18:10:17 2.3 C 25 %
2414 01-12-2019 18:20:17 2.3 C 25 %
2415 01-12-2019 18:30:17 2.3 C 25 %
2416 01-12-2019 18:40:17 2.3 C 25 %
2417 01-12-2019 18:50:17 2.3 C 23 %
2418 01-12-2019 19:00:17 2.3 C 23 %
2419 01-12-2019 19:10:18 2.4 C 25 %
2420 01-12-2019 19:20:17 2.3 C 25 %
2421 01-12-2019 19:30:17 2.3 C 25 %
2422 01-12-2019 19:40:17 2.3 C 25 %
2423 01-12-2019 19:50:17 2.2 C 26 %
2424 01-12-2019 20:00:17 2.5 C 25 %
2425 01-12-2019 20:10:17 2.2 C 25 %
Sensor: Nr:Datum:Temp:Feuchte:
Aussen-T/F 2426 01-12-2019 20:20:17 2.1 C 25 %
2427 01-12-2019 20:30:18 2.1 C 25 %
2428 01-12-2019 20:40:18 2.1 C 25 %
2429 01-12-2019 20:50:17 2 C 27 %
2430 01-12-2019 21:00:17 1.9 C 27 %
2431 01-12-2019 21:10:17 1.8 C 28 %
2432 01-12-2019 21:20:17 1.6 C 30 %
2433 01-12-2019 21:30:18 1.5 C 29 %
2434 01-12-2019 21:40:18 1.6 C 28 %
2435 01-12-2019 21:50:17 1.6 C 28 %
2436 01-12-2019 22:00:17 1.5 C 29 %
2437 01-12-2019 22:10:17 1.4 C 29 %
2438 01-12-2019 22:20:17 1.4 C 30 %
2439 01-12-2019 22:30:18 1.3 C 28 %
2440 01-12-2019 22:40:18 1.2 C 29 %
2441 01-12-2019 22:50:17 1.1 C 29 %
2442 01-12-2019 23:00:17 0.8 C 30 %
2443 01-12-2019 23:10:17 0.8 C 30 %
2444 01-12-2019 23:20:18 0.7 C 30 %
2445 01-12-2019 23:30:17 0.5 C 32 %
2446 01-12-2019 23:40:17 0.3 C 33 %
2447 01-12-2019 23:50:17 0.2 C 33 %
2448 02-12-2019 00:00:17 0.1 C 33 %
2449 02-12-2019 00:10:17 0.2 C 33 %
2450 02-12-2019 00:20:17 0.3 C 32 %
Sensor: Nr:Datum:Temp:Feuchte:
Aussen-T/F 2451 02-12-2019 00:30:17 0.3 C 32 %
2452 02-12-2019 00:40:17 0.2 C 32 %
2453 02-12-2019 00:50:18 0.2 C 35 %
2454 02-12-2019 01:00:17 0.1 C 36 %
2455 02-12-2019 01:10:17 0 C 38 %
2456 02-12-2019 01:20:17 -0.2 C 36 %
2457 02-12-2019 01:30:17 0.2 C 34 %
2458 02-12-2019 01:40:17 -0.2 C 35 %
2459 02-12-2019 01:50:17 -0.9 C 35 %
2460 02-12-2019 02:00:18 -0.9 C 37 %
2461 02-12-2019 02:10:18 -0.9 C 37 %
2462 02-12-2019 02:20:17 -0.5 C 37 %
2463 02-12-2019 02:30:17 -1 C 36 %
2464 02-12-2019 02:40:17 -1.1 C 37 %
2465 02-12-2019 02:50:17 -1.1 C 36 %
2466 02-12-2019 03:00:17 -1 C 37 %
2467 02-12-2019 03:10:17 -1.2 C 38 %
2468 02-12-2019 03:20:17 -1.3 C 37 %
2469 02-12-2019 03:30:18 -1.3 C 38 %
2470 02-12-2019 03:40:18 -1.4 C 37 %
2471 02-12-2019 03:50:17 -1.4 C 37 %
2472 02-12-2019 04:00:18 -1.7 C 39 %
2473 02-12-2019 04:10:18 -1.4 C 40 %
2474 02-12-2019 04:20:17 -1.1 C 40 %
2475 02-12-2019 04:30:17 -1 C 40 %
Sensor: Nr:Datum:Temp:Feuchte:
Aussen-T/F 2476 02-12-2019 04:40:17 -0.8 C 36 %
2477 02-12-2019 04:50:17 -1.1 C 37 %
2478 02-12-2019 05:00:17 -1.4 C 40 %
2479 02-12-2019 05:10:17 -1.1 C 40 %
2480 02-12-2019 05:20:17 -1.2 C 39 %
2481 02-12-2019 05:30:17 -1.6 C 40 %
2482 02-12-2019 05:40:17 -1.4 C 41 %
2483 02-12-2019 05:50:17 -1.3 C 42 %
2484 02-12-2019 06:00:17 -1.2 C 41 %
2485 02-12-2019 06:10:17 -1.3 C 39 %
2486 02-12-2019 06:20:17 -1.2 C 39 %
2487 02-12-2019 06:30:17 -1.4 C 38 %
2488 02-12-2019 06:40:17 -1.4 C 40 %
2489 02-12-2019 06:50:17 -1.8 C 37 %
2490 02-12-2019 07:00:17 -2.4 C 38 %
2491 02-12-2019 07:10:17 -2.6 C 40 %
2492 02-12-2019 07:20:17 -2.9 C 40 %
2493 02-12-2019 07:30:17 -2.7 C 42 %
2494 02-12-2019 07:40:17 -2.6 C 42 %
2495 02-12-2019 07:50:17 -2.4 C 43 %
2496 02-12-2019 08:00:17 -1.9 C 45 %
2497 02-12-2019 08:10:18 -1.6 C 44 %
2498 02-12-2019 08:20:17 -1.3 C 44 %
2499 02-12-2019 08:30:17 -1 C 43 %
2500 02-12-2019 08:40:17 -0.7 C 43 %
Sensor: Nr:Datum:Temp:Feuchte:
Aussen-T/F 2501 02-12-2019 08:50:17 -0.5 C 42 %
2502 02-12-2019 09:00:17 -0.5 C 40 %
2503 02-12-2019 09:10:17 -0.4 C 38 %
2504 02-12-2019 09:20:17 -0.4 C 36 %
2505 02-12-2019 09:30:17 -0.4 C 36 %
2506 02-12-2019 09:40:17 0 C 36 %
2507 02-12-2019 09:50:17 0 C 35 %
2508 02-12-2019 10:00:17 0.1 C 35 %
2509 02-12-2019 10:10:17 0.1 C 34 %
2510 02-12-2019 10:20:17 0.2 C 35 %
2511 02-12-2019 10:30:17 0.5 C 36 %
2512 02-12-2019 10:40:17 1 C 31 %
2513 02-12-2019 10:50:17 0.8 C 31 %
2514 02-12-2019 11:00:17 1.2 C 30 %
2515 02-12-2019 11:10:17 1.1 C 30 %
2516 02-12-2019 11:20:17 1.2 C 30 %
2517 02-12-2019 11:30:17 0.9 C 31 %
2518 02-12-2019 11:40:18 1 C 31 %
2519 02-12-2019 11:50:17 0.8 C 32 %
2520 02-12-2019 12:00:18 1.6 C 31 %
2521 02-12-2019 12:10:18 2.3 C 27 %
2522 02-12-2019 12:20:17 2.8 C 25 %
2523 02-12-2019 12:30:17 3.1 C 26 %
2524 02-12-2019 12:40:17 3 C 25 %
2525 02-12-2019 12:50:18 3.2 C 26 %
Sensor: Nr:Datum:Temp:Feuchte:
Aussen-T/F 2526 02-12-2019 13:00:17 3.2 C 26 %
2527 02-12-2019 13:10:17 3.5 C 25 %
2528 02-12-2019 13:20:17 3.9 C 25 %
2529 02-12-2019 13:30:17 3.9 C 25 %
2530 02-12-2019 13:40:17 3.8 C 25 %
2531 02-12-2019 13:50:17 3.6 C 25 %
2532 02-12-2019 14:00:17 4 C 26 %
2533 02-12-2019 14:10:17 3.7 C 28 %
2534 02-12-2019 14:20:17 3.7 C 30 %
2535 02-12-2019 14:30:17 4.1 C 27 %
2536 02-12-2019 14:40:17 4.3 C 27 %
2537 02-12-2019 14:50:17 4.5 C 27 %
2538 02-12-2019 15:00:18 4.3 C 28 %
2539 02-12-2019 15:10:18 4.3 C 29 %
2540 02-12-2019 15:20:17 4.7 C 27 %
2541 02-12-2019 15:30:17 4.4 C 27 %
2542 02-12-2019 15:40:17 4.1 C 31 %
2543 02-12-2019 15:50:17 3.9 C 36 %
2544 02-12-2019 16:00:18 3.7 C 37 %
2545 02-12-2019 16:10:18 3.6 C 37 %
2546 02-12-2019 16:20:17 3.5 C 40 %
2547 02-12-2019 16:30:17 3.5 C 38 %
2548 02-12-2019 16:40:17 3.5 C 35 %
2549 02-12-2019 16:50:17 3.5 C 35 %
2550 02-12-2019 17:00:17 3.3 C 36 %
Sensor: Nr:Datum:Temp:Feuchte:
Aussen-T/F 2551 02-12-2019 17:10:17 3.2 C 39 %
2552 02-12-2019 17:20:17 3.2 C 36 %
2553 02-12-2019 17:30:18 3.3 C 36 %
2554 02-12-2019 17:40:18 3.4 C 35 %
2555 02-12-2019 17:50:17 3.3 C 35 %
2556 02-12-2019 18:01:17 3.1 C 36 %
2557 02-12-2019 18:11:17 3.2 C 37 %
2558 02-12-2019 18:21:17 3.2 C 36 %
2559 02-12-2019 18:30:17 3 C 36 %
2560 02-12-2019 18:40:17 2.5 C 40 %
2561 02-12-2019 18:50:17 2.2 C 40 %
2562 02-12-2019 19:00:17 2.1 C 42 %
2563 02-12-2019 19:10:17 2.7 C 43 %
2564 02-12-2019 19:21:17 2.7 C 42 %
2565 02-12-2019 19:30:17 2.7 C 41 %
2566 02-12-2019 19:40:17 2.9 C 42 %
2567 02-12-2019 19:51:17 2.9 C 42 %
2568 02-12-2019 20:01:17 2.9 C 39 %
2569 02-12-2019 20:11:17 2.8 C 38 %
2570 02-12-2019 20:21:17 2.9 C 37 %
2571 02-12-2019 20:31:17 2.9 C 38 %
2572 02-12-2019 20:40:17 2.8 C 40 %
2573 02-12-2019 20:51:17 2.7 C 42 %
2574 02-12-2019 21:00:17 2.7 C 42 %
2575 02-12-2019 21:10:17 2.7 C 42 %
Sensor: Nr:Datum:Temp:Feuchte:
Aussen-T/F 2576 02-12-2019 21:21:17 2.7 C 42 %
2577 02-12-2019 21:30:18 2.7 C 42 %
2578 02-12-2019 21:40:18 2.6 C 41 %
2579 02-12-2019 21:51:17 2.6 C 42 %
2580 02-12-2019 22:01:17 2.6 C 41 %
2581 02-12-2019 22:11:17 2.6 C 41 %
2582 02-12-2019 22:21:17 2.6 C 41 %
2583 02-12-2019 22:30:18 2.5 C 40 %
2584 02-12-2019 22:40:18 2.5 C 41 %
2585 02-12-2019 22:51:17 2.4 C 41 %
2586 02-12-2019 23:01:17 2.5 C 41 %
2587 02-12-2019 23:11:17 2.4 C 42 %
2588 02-12-2019 23:21:17 2.5 C 42 %
2589 02-12-2019 23:31:17 2.5 C 42 %
2590 02-12-2019 23:41:17 2.5 C 42 %
2591 02-12-2019 23:50:18 2.5 C 42 %
2592 03-12-2019 00:01:17 2.5 C 42 %
2593 03-12-2019 00:11:17 2.5 C 42 %
2594 03-12-2019 00:21:17 2.5 C 41 %
2595 03-12-2019 00:30:18 2.5 C 41 %
2596 03-12-2019 00:40:18 2.6 C 41 %
2597 03-12-2019 00:51:17 2.6 C 41 %
2598 03-12-2019 01:01:18 2.6 C 41 %
2599 03-12-2019 01:11:18 2.6 C 41 %
2600 03-12-2019 01:21:17 2.7 C 41 %
Sensor: Nr:Datum:Temp:Feuchte:
Aussen-T/F 2601 03-12-2019 01:31:17 2.7 C 41 %
2602 03-12-2019 01:41:17 2.7 C 42 %
2603 03-12-2019 01:51:17 2.7 C 42 %
2604 03-12-2019 02:01:17 2.7 C 42 %
2605 03-12-2019 02:11:17 2.8 C 42 %
2606 03-12-2019 02:21:17 2.8 C 42 %
2607 03-12-2019 02:31:17 2.8 C 42 %
2608 03-12-2019 02:41:17 2.9 C 42 %
2609 03-12-2019 02:51:17 2.8 C 42 %
2610 03-12-2019 03:01:17 2.8 C 42 %
2611 03-12-2019 03:11:17 2.8 C 42 %
2612 03-12-2019 03:21:17 2.8 C 42 %
2613 03-12-2019 03:31:17 2.9 C 42 %
2614 03-12-2019 03:41:17 3 C 42 %
2615 03-12-2019 03:51:17 3 C 42 %
2616 03-12-2019 04:01:17 3 C 42 %
2617 03-12-2019 04:11:17 3 C 42 %
2618 03-12-2019 04:21:17 3 C 42 %
2619 03-12-2019 04:31:17 3.1 C 42 %
2620 03-12-2019 04:41:17 3.1 C 42 %
2621 03-12-2019 04:51:17 3.1 C 42 %
2622 03-12-2019 05:01:17 3.1 C 42 %
2623 03-12-2019 05:11:17 3.1 C 42 %
2624 03-12-2019 05:21:17 3.1 C 42 %
2625 03-12-2019 05:31:17 3.2 C 42 %
Sensor: Nr:Datum:Temp:Feuchte:
Aussen-T/F 2626 03-12-2019 05:41:17 3.2 C 41 %
2627 03-12-2019 05:51:17 3.2 C 41 %
2628 03-12-2019 06:01:18 3.2 C 41 %
2629 03-12-2019 06:11:18 3.2 C 41 %
2630 03-12-2019 06:21:17 3.2 C 41 %
2631 03-12-2019 06:31:17 3.3 C 41 %
2632 03-12-2019 06:41:17 3.3 C 41 %
2633 03-12-2019 06:51:18 3.3 C 41 %
2634 03-12-2019 07:01:17 3.3 C 41 %
2635 03-12-2019 07:11:17 3.3 C 41 %
2636 03-12-2019 07:21:17 3.3 C 41 %
2637 03-12-2019 07:31:17 3.2 C 41 %
2638 03-12-2019 07:41:17 3.3 C 41 %
2639 03-12-2019 07:51:17 3.3 C 42 %
2640 03-12-2019 08:01:17 3.3 C 42 %
2641 03-12-2019 08:11:17 3.4 C 42 %
2642 03-12-2019 08:21:17 3.3 C 42 %
2643 03-12-2019 08:31:17 3.4 C 42 %
2644 03-12-2019 08:41:17 3.4 C 41 %
2645 03-12-2019 08:51:17 3.4 C 41 %
2646 03-12-2019 09:01:17 3.5 C 42 %
2647 03-12-2019 09:11:17 3.5 C 42 %
2648 03-12-2019 09:21:17 3.5 C 41 %
2649 03-12-2019 09:31:17 3.6 C 41 %
2650 03-12-2019 09:41:17 3.6 C 41 %
Sensor: Nr:Datum:Temp:Feuchte:
Aussen-T/F 2651 03-12-2019 09:51:17 3.7 C 41 %
2652 03-12-2019 10:01:17 3.7 C 41 %
2653 03-12-2019 10:11:17 3.8 C 41 %
2654 03-12-2019 10:21:17 3.8 C 41 %
2655 03-12-2019 10:31:17 3.8 C 41 %
2656 03-12-2019 10:41:17 4.1 C 40 %
2657 03-12-2019 10:51:17 4.1 C 40 %
2658 03-12-2019 11:01:18 4.3 C 39 %
2659 03-12-2019 11:11:18 4.3 C 37 %
2660 03-12-2019 11:21:17 4.4 C 37 %
2661 03-12-2019 11:31:17 4.6 C 37 %
2662 03-12-2019 11:41:17 4.6 C 37 %
2663 03-12-2019 11:51:17 4.7 C 37 %
2664 03-12-2019 12:01:17 4.7 C 37 %
2665 03-12-2019 12:11:17 4.9 C 35 %
2666 03-12-2019 12:21:17 5 C 34 %
2667 03-12-2019 12:31:17 5 C 35 %
2668 03-12-2019 12:41:17 5.2 C 35 %
2669 03-12-2019 12:51:18 5.3 C 34 %
2670 03-12-2019 13:01:17 5.6 C 34 %
2671 03-12-2019 13:11:17 5.8 C 33 %
2672 03-12-2019 13:21:17 5.8 C 32 %
2673 03-12-2019 13:31:17 5.7 C 32 %
2674 03-12-2019 13:41:17 5.9 C 32 %
2675 03-12-2019 13:51:18 6.1 C 31 %
Sensor: Nr:Datum:Temp:Feuchte:
Aussen-T/F 2676 03-12-2019 14:01:17 6.1 C 31 %
2677 03-12-2019 14:11:17 6.2 C 31 %
2678 03-12-2019 14:21:17 6.1 C 31 %
2679 03-12-2019 14:31:17 6.3 C 31 %
2680 03-12-2019 14:41:17 6.2 C 30 %
2681 03-12-2019 14:51:18 6.4 C 31 %
2682 03-12-2019 15:01:17 6.2 C 30 %
2683 03-12-2019 15:11:17 6.3 C 31 %
2684 03-12-2019 15:21:17 6.3 C 31 %
2685 03-12-2019 15:31:17 6.2 C 31 %
2686 03-12-2019 15:41:17 6.1 C 32 %
2687 03-12-2019 15:51:17 6 C 33 %
2688 03-12-2019 16:01:17 5.7 C 36 %
2689 03-12-2019 16:11:17 5.6 C 39 %
2690 03-12-2019 16:21:17 5.4 C 40 %
2691 03-12-2019 16:31:18 5.3 C 41 %
2692 03-12-2019 16:41:18 5.2 C 41 %
2693 03-12-2019 16:51:17 5.2 C 41 %
2694 03-12-2019 17:01:18 5.1 C 41 %
2695 03-12-2019 17:11:18 5.1 C 41 %
2696 03-12-2019 17:21:17 5.1 C 41 %
2697 03-12-2019 17:31:17 5 C 41 %
2698 03-12-2019 17:41:17 5 C 41 %
2699 03-12-2019 17:51:17 5 C 41 %
2700 03-12-2019 18:01:18 4.8 C 41 %
Sensor: Nr:Datum:Temp:Feuchte:
Aussen-T/F 2701 03-12-2019 18:11:18 4.7 C 40 %
2702 03-12-2019 18:21:17 4.7 C 40 %
2703 03-12-2019 18:31:18 4.7 C 40 %
2704 03-12-2019 18:41:18 4.7 C 40 %
2705 03-12-2019 18:51:17 4.7 C 40 %
2706 03-12-2019 19:01:17 4.7 C 40 %
2707 03-12-2019 19:11:17 4.6 C 39 %
2708 03-12-2019 19:21:17 4.6 C 38 %
2709 03-12-2019 19:31:17 4.6 C 38 %
2710 03-12-2019 19:41:17 4.4 C 37 %
2711 03-12-2019 19:51:17 4.3 C 38 %
2712 03-12-2019 20:01:17 4.3 C 39 %
2713 03-12-2019 20:11:17 4.3 C 38 %
2714 03-12-2019 20:21:18 4.2 C 37 %
2715 03-12-2019 20:31:17 4.2 C 38 %
2716 03-12-2019 20:41:18 4.1 C 39 %
2717 03-12-2019 20:51:17 3.9 C 40 %
2718 03-12-2019 21:01:17 3.9 C 41 %
2719 03-12-2019 21:11:17 4 C 40 %
2720 03-12-2019 21:21:17 4 C 40 %
2721 03-12-2019 21:31:17 3.8 C 40 %
2722 03-12-2019 21:41:17 3.5 C 40 %
2723 03-12-2019 21:51:17 3.3 C 40 %
2724 03-12-2019 22:01:17 2.9 C 41 %
2725 03-12-2019 22:11:17 2.8 C 42 %
Sensor: Nr:Datum:Temp:Feuchte:
Aussen-T/F 2726 03-12-2019 22:21:18 2.8 C 42 %
2727 03-12-2019 22:31:18 3.3 C 42 %
2728 03-12-2019 22:41:18 3.5 C 40 %
2729 03-12-2019 22:51:17 3.2 C 38 %
2730 03-12-2019 23:01:18 2.6 C 39 %
2731 03-12-2019 23:11:18 2.5 C 41 %
2732 03-12-2019 23:21:17 2.5 C 41 %
2733 03-12-2019 23:31:17 2.2 C 40 %
2734 03-12-2019 23:41:17 2.8 C 40 %
2735 03-12-2019 23:51:17 2.6 C 38 %
2736 04-12-2019 00:01:18 2.3 C 39 %
2737 04-12-2019 00:11:18 1.7 C 41 %
2738 04-12-2019 00:21:17 1.3 C 42 %
2739 04-12-2019 00:31:17 0.9 C 43 %
2740 04-12-2019 00:41:17 0.4 C 43 %
2741 04-12-2019 00:51:17 0.6 C 45 %
2742 04-12-2019 01:01:18 0.2 C 44 %
2743 04-12-2019 01:11:18 0.2 C 45 %
2744 04-12-2019 01:21:17 0 C 44 %
2745 04-12-2019 01:31:17 -0.1 C 45 %
2746 04-12-2019 01:41:17 0.1 C 45 %
2747 04-12-2019 01:51:18 -0.3 C 45 %
2748 04-12-2019 02:01:17 -0.3 C 45 %
2749 04-12-2019 02:11:17 -0.2 C 45 %
2750 04-12-2019 02:21:17 -0.5 C 45 %
Sensor: Nr:Datum:Temp:Feuchte:
Aussen-T/F 2751 04-12-2019 02:31:18 -0.4 C 45 %
2752 04-12-2019 02:41:18 0.1 C 45 %
2753 04-12-2019 02:51:17 0.3 C 45 %
2754 04-12-2019 03:01:18 0.6 C 45 %
2755 04-12-2019 03:11:18 0.9 C 45 %
2756 04-12-2019 03:21:17 0.9 C 45 %
2757 04-12-2019 03:31:17 1 C 44 %
2758 04-12-2019 03:41:17 1 C 44 %
2759 04-12-2019 03:51:17 1 C 44 %
2760 04-12-2019 04:01:18 0.8 C 45 %
2761 04-12-2019 04:11:18 0.9 C 45 %
2762 04-12-2019 04:21:17 0.8 C 45 %
2763 04-12-2019 04:31:17 0.8 C 45 %
2764 04-12-2019 04:41:17 0.8 C 45 %
2765 04-12-2019 04:51:17 0.8 C 45 %
2766 04-12-2019 05:01:17 0.8 C 45 %
2767 04-12-2019 05:11:17 0.8 C 44 %
2768 04-12-2019 05:21:17 0.8 C 44 %
2769 04-12-2019 05:31:17 1 C 43 %
2770 04-12-2019 05:41:17 1 C 43 %
2771 04-12-2019 05:51:18 1 C 43 %
2772 04-12-2019 06:01:17 1 C 43 %
2773 04-12-2019 06:11:17 1.1 C 43 %
2774 04-12-2019 06:21:17 1.2 C 43 %
2775 04-12-2019 06:31:17 1.2 C 43 %
Sensor: Nr:Datum:Temp:Feuchte:
Aussen-T/F 2776 04-12-2019 06:41:18 1.2 C 43 %
2777 04-12-2019 06:51:17 1.2 C 43 %
2778 04-12-2019 07:01:17 1.1 C 43 %
2779 04-12-2019 07:11:17 1.1 C 43 %
2780 04-12-2019 07:21:18 1.1 C 43 %
2781 04-12-2019 07:31:17 1 C 43 %
2782 04-12-2019 07:41:17 0.9 C 44 %
2783 04-12-2019 07:51:17 1 C 43 %
2784 04-12-2019 08:01:17 0.9 C 44 %
2785 04-12-2019 08:11:17 0.9 C 44 %
2786 04-12-2019 08:21:17 0.9 C 44 %
2787 04-12-2019 08:31:17 0.9 C 44 %
2788 04-12-2019 08:41:17 1 C 42 %
2789 04-12-2019 08:51:17 1 C 42 %
2790 04-12-2019 09:01:18 1 C 42 %
2791 04-12-2019 09:11:18 1.2 C 42 %
2792 04-12-2019 09:21:18 1.2 C 42 %
2793 04-12-2019 09:31:17 1.2 C 41 %
2794 04-12-2019 09:41:17 1.2 C 41 %
2795 04-12-2019 09:51:17 1.4 C 41 %
2796 04-12-2019 10:01:17 1.5 C 41 %
2797 04-12-2019 10:11:18 1.4 C 39 %
2798 04-12-2019 10:21:17 1.3 C 38 %
2799 04-12-2019 10:31:17 1.1 C 37 %
2800 04-12-2019 10:41:17 1.1 C 37 %
Sensor: Nr:Datum:Temp:Feuchte:
Aussen-T/F 2801 04-12-2019 10:51:18 1 C 38 %
2802 04-12-2019 11:01:17 1 C 38 %
2803 04-12-2019 11:11:17 1.1 C 39 %
2804 04-12-2019 11:21:17 1.1 C 39 %
2805 04-12-2019 11:31:18 1.1 C 40 %
2806 04-12-2019 11:41:18 1 C 40 %
2807 04-12-2019 11:51:17 1.1 C 41 %
2808 04-12-2019 12:01:17 1.2 C 41 %
2809 04-12-2019 12:11:17 1.3 C 41 %
2810 04-12-2019 12:21:18 1.3 C 41 %
2811 04-12-2019 12:31:17 1.5 C 41 %
2812 04-12-2019 12:41:17 1.5 C 41 %
2813 04-12-2019 12:51:17 1.6 C 41 %
2814 04-12-2019 13:01:17 1.6 C 41 %
2815 04-12-2019 13:11:17 1.7 C 41 %
2816 04-12-2019 13:21:17 1.8 C 40 %
2817 04-12-2019 13:31:18 1.8 C 40 %
2818 04-12-2019 13:41:18 2.1 C 38 %
2819 04-12-2019 13:51:17 2.1 C 37 %
2820 04-12-2019 14:01:17 2.1 C 37 %
2821 04-12-2019 14:11:17 2.1 C 36 %
2822 04-12-2019 14:21:17 2.1 C 36 %
2823 04-12-2019 14:31:18 2 C 36 %
2824 04-12-2019 14:41:18 2.2 C 35 %
2825 04-12-2019 14:51:17 2.1 C 36 %
Sensor: Nr:Datum:Temp:Feuchte:
Aussen-T/F 2826 04-12-2019 15:01:18 2 C 37 %
2827 04-12-2019 15:11:18 1.7 C 38 %
2828 04-12-2019 15:21:17 1.7 C 40 %
2829 04-12-2019 15:31:17 1.7 C 40 %
2830 04-12-2019 15:41:17 1.8 C 39 %
2831 04-12-2019 15:51:18 1.8 C 39 %
2832 04-12-2019 16:01:17 1.6 C 37 %
2833 04-12-2019 16:11:17 1.5 C 37 %
2834 04-12-2019 16:21:17 1.4 C 37 %
2835 04-12-2019 16:31:17 1.4 C 37 %
2836 04-12-2019 16:41:17 1.2 C 37 %
2837 04-12-2019 16:51:17 1.1 C 36 %
2838 04-12-2019 17:01:17 1 C 37 %
2839 04-12-2019 17:11:17 1 C 37 %
2840 04-12-2019 17:21:18 1 C 36 %
2841 04-12-2019 17:31:17 0.9 C 38 %
2842 04-12-2019 17:41:17 0.6 C 38 %
2843 04-12-2019 17:51:18 0.7 C 39 %
2844 04-12-2019 18:01:17 0.8 C 38 %
2845 04-12-2019 18:11:17 0.3 C 39 %
2846 04-12-2019 18:21:17 0.4 C 40 %
2847 04-12-2019 18:31:17 0.6 C 40 %
2848 04-12-2019 18:41:17 -0.2 C 40 %
2849 04-12-2019 18:51:17 -0.5 C 41 %
2850 04-12-2019 19:01:17 -0.3 C 44 %
Sensor: Nr:Datum:Temp:Feuchte:
Aussen-T/F 2851 04-12-2019 19:11:17 -0.7 C 42 %
2852 04-12-2019 19:21:17 -1.1 C 42 %
2853 04-12-2019 19:31:17 -1 C 44 %
2854 04-12-2019 19:41:17 -1.2 C 44 %
2855 04-12-2019 19:51:17 -1.4 C 43 %
2856 04-12-2019 20:01:17 -1.3 C 44 %
2857 04-12-2019 20:11:17 -1.1 C 45 %
2858 04-12-2019 20:21:17 -1.5 C 44 %
2859 04-12-2019 20:31:17 -1.5 C 44 %
2860 04-12-2019 20:41:17 -1.8 C 43 %
2861 04-12-2019 20:51:18 -1.9 C 44 %
2862 04-12-2019 21:01:18 -1.9 C 44 %
2863 04-12-2019 21:11:18 -1.7 C 44 %
2864 04-12-2019 21:21:17 -2 C 43 %
2865 04-12-2019 21:31:17 -2 C 43 %
2866 04-12-2019 21:41:17 -2.4 C 43 %
2867 04-12-2019 21:51:17 -2.4 C 43 %
2868 04-12-2019 22:01:17 -2.5 C 43 %
2869 04-12-2019 22:11:17 -2.6 C 43 %
2870 04-12-2019 22:21:17 -2.7 C 44 %
2871 04-12-2019 22:31:18 -2.8 C 43 %
2872 04-12-2019 22:41:18 -2.7 C 43 %
2873 04-12-2019 22:51:17 -2.5 C 43 %
2874 04-12-2019 23:01:17 -2.6 C 42 %
2875 04-12-2019 23:11:17 -2.9 C 42 %
Sensor: Nr:Datum:Temp:Feuchte:
Aussen-T/F 2876 04-12-2019 23:21:17 -2.7 C 42 %
2877 04-12-2019 23:31:17 -2.7 C 42 %
2878 04-12-2019 23:41:17 -2.9 C 41 %
2879 04-12-2019 23:51:18 -2.9 C 42 %
2880 05-12-2019 00:01:17 -3 C 41 %
2881 05-12-2019 00:11:17 -3 C 41 %
2882 05-12-2019 00:21:17 -3.1 C 41 %
2883 05-12-2019 00:31:18 -2.8 C 41 %
2884 05-12-2019 00:41:18 -2.8 C 41 %
2885 05-12-2019 00:51:17 -2.9 C 41 %
2886 05-12-2019 01:01:17 -2.9 C 41 %
2887 05-12-2019 01:11:17 -3.2 C 41 %
2888 05-12-2019 01:21:17 -2.5 C 43 %
2889 05-12-2019 01:31:18 -2.6 C 43 %
2890 05-12-2019 01:41:18 -2.7 C 43 %
2891 05-12-2019 01:51:17 -2.6 C 43 %
2892 05-12-2019 02:01:17 -2.6 C 42 %
2893 05-12-2019 02:11:18 -2.8 C 41 %
2894 05-12-2019 02:21:17 -3 C 41 %
2895 05-12-2019 02:31:17 -3.2 C 41 %
2896 05-12-2019 02:41:17 -3.2 C 41 %
2897 05-12-2019 02:51:17 -3.2 C 41 %
2898 05-12-2019 03:01:17 -3.4 C 40 %
2899 05-12-2019 03:11:17 -3.5 C 40 %
2900 05-12-2019 03:21:17 -3.3 C 41 %
Sensor: Nr:Datum:Temp:Feuchte:
Aussen-T/F 2901 05-12-2019 03:31:17 -3.2 C 41 %
2902 05-12-2019 03:41:17 -3.6 C 40 %
2903 05-12-2019 03:51:17 -3 C 43 %
2904 05-12-2019 04:01:17 -2.7 C 43 %
2905 05-12-2019 04:11:17 -2.7 C 43 %
2906 05-12-2019 04:21:17 -2.7 C 43 %
2907 05-12-2019 04:31:18 -2.9 C 42 %
2908 05-12-2019 04:41:18 -3.3 C 40 %
2909 05-12-2019 04:51:17 -2.9 C 42 %
2910 05-12-2019 05:01:17 -2.8 C 43 %
2911 05-12-2019 05:11:17 -2.8 C 42 %
2912 05-12-2019 05:21:17 -2.7 C 43 %
2913 05-12-2019 05:31:17 -2.7 C 43 %
2914 05-12-2019 05:41:18 -2.5 C 43 %
2915 05-12-2019 05:51:17 -2.5 C 43 %
2916 05-12-2019 06:01:17 -2.6 C 43 %
2917 05-12-2019 06:11:17 -2.7 C 43 %
2918 05-12-2019 06:21:17 -2.9 C 43 %
2919 05-12-2019 06:31:17 -2.9 C 43 %
2920 05-12-2019 06:41:17 -3 C 42 %
2921 05-12-2019 06:51:17 -2.9 C 43 %
2922 05-12-2019 07:01:17 -2.9 C 42 %
2923 05-12-2019 07:11:17 -2.9 C 42 %
2924 05-12-2019 07:21:17 -3.2 C 42 %
2925 05-12-2019 07:31:17 -3.1 C 42 %
Sensor: Nr:Datum:Temp:Feuchte:
Aussen-T/F 2926 05-12-2019 07:41:18 -2.9 C 42 %
2927 05-12-2019 07:51:17 -2.9 C 42 %
2928 05-12-2019 08:01:17 -3 C 42 %
2929 05-12-2019 08:11:17 -2.8 C 43 %
2930 05-12-2019 08:21:18 -2.9 C 42 %
2931 05-12-2019 08:31:17 -2.8 C 42 %
2932 05-12-2019 08:41:17 -3 C 42 %
2933 05-12-2019 08:51:17 -3 C 42 %
2934 05-12-2019 09:01:18 -2.7 C 43 %
2935 05-12-2019 09:11:18 -2.6 C 43 %
2936 05-12-2019 09:21:17 -2.6 C 42 %
2937 05-12-2019 09:31:17 -2.6 C 42 %
2938 05-12-2019 09:41:17 -2.5 C 43 %
2939 05-12-2019 09:51:17 -2.4 C 42 %
2940 05-12-2019 10:01:18 -2.3 C 42 %
2941 05-12-2019 10:11:18 -2.4 C 42 %
2942 05-12-2019 10:21:17 -2.1 C 43 %
2943 05-12-2019 10:31:17 -1.7 C 43 %
2944 05-12-2019 10:41:17 -2 C 42 %
2945 05-12-2019 10:51:18 -1.7 C 42 %
2946 05-12-2019 11:01:17 -1.7 C 43 %
2947 05-12-2019 11:11:17 -1.4 C 42 %
2948 05-12-2019 11:21:17 -1.2 C 41 %
2949 05-12-2019 11:31:18 -1.2 C 41 %
2950 05-12-2019 11:41:18 -0.7 C 42 %
Sensor: Nr:Datum:Temp:Feuchte:
Aussen-T/F 2951 05-12-2019 11:51:17 -0.9 C 42 %
2952 05-12-2019 12:01:18 -1 C 41 %
2953 05-12-2019 12:11:18 -0.8 C 41 %
2954 05-12-2019 12:21:17 -0.6 C 41 %
2955 05-12-2019 12:31:17 -0.8 C 40 %
2956 05-12-2019 12:41:17 -0.9 C 40 %
2957 05-12-2019 12:51:18 -0.6 C 41 %
2958 05-12-2019 13:01:17 -0.5 C 40 %
2959 05-12-2019 13:11:17 -0.6 C 40 %
2960 05-12-2019 13:21:17 -0.4 C 41 %
2961 05-12-2019 13:31:17 -0.4 C 41 %
2962 05-12-2019 13:41:17 -0.2 C 41 %
2963 05-12-2019 13:51:17 0.1 C 40 %
2964 05-12-2019 14:01:18 0.1 C 40 %
2965 05-12-2019 14:11:18 0.2 C 40 %
2966 05-12-2019 14:21:17 0.2 C 40 %
2967 05-12-2019 14:31:17 0.2 C 40 %
2968 05-12-2019 14:41:17 0.2 C 40 %
2969 05-12-2019 14:51:17 0.2 C 41 %
2970 05-12-2019 15:01:17 0.1 C 41 %
2971 05-12-2019 15:11:17 0 C 41 %
2972 05-12-2019 15:21:17 -0.1 C 42 %
2973 05-12-2019 15:31:17 -0.1 C 43 %
2974 05-12-2019 15:41:17 -0.1 C 44 %
2975 05-12-2019 15:51:18 -0.1 C 44 %
Sensor: Nr:Datum:Temp:Feuchte:
Aussen-T/F 2976 05-12-2019 16:01:17 -0.4 C 44 %
2977 05-12-2019 16:11:17 -0.5 C 44 %
2978 05-12-2019 16:21:17 -0.7 C 45 %
2979 05-12-2019 16:31:18 -0.8 C 44 %
2980 05-12-2019 16:41:18 -1 C 44 %
2981 05-12-2019 16:51:17 -1 C 44 %
2982 05-12-2019 17:01:17 -1.2 C 44 %
2983 05-12-2019 17:11:17 -1.1 C 45 %
2984 05-12-2019 17:21:18 -1.2 C 45 %
2985 05-12-2019 17:31:17 -1.3 C 44 %
2986 05-12-2019 17:41:17 -1.7 C 44 %
2987 05-12-2019 17:51:17 -1.6 C 44 %
2988 05-12-2019 18:01:18 -1.8 C 43 %
2989 05-12-2019 18:11:18 -2 C 43 %
2990 05-12-2019 18:21:17 -2 C 43 %
2991 05-12-2019 18:31:17 -2 C 43 %
2992 05-12-2019 18:41:17 -2.2 C 43 %
2993 05-12-2019 18:51:18 -2.5 C 42 %
2994 05-12-2019 19:01:17 -2.1 C 43 %
2995 05-12-2019 19:11:17 -2.1 C 44 %
2996 05-12-2019 19:21:17 -2.6 C 42 %
2997 05-12-2019 19:31:17 -2.9 C 41 %
2998 05-12-2019 19:41:17 -2.6 C 42 %
2999 05-12-2019 19:51:18 -1.9 C 43 %
3000 05-12-2019 20:01:17 -1.5 C 44 %
Sensor: Nr:Datum:Temp:Feuchte:
Aussen-T/F 3001 05-12-2019 20:11:17 -1.6 C 43 %
3002 05-12-2019 20:21:17 -1.5 C 43 %
3003 05-12-2019 20:31:17 -1.9 C 42 %
3004 05-12-2019 20:41:17 -2 C 42 %
3005 05-12-2019 20:51:18 -2.1 C 42 %
3006 05-12-2019 21:01:17 -2.3 C 42 %
3007 05-12-2019 21:11:17 -2.6 C 42 %
3008 05-12-2019 21:21:17 -2.1 C 43 %
3009 05-12-2019 21:31:17 -2 C 43 %
3010 05-12-2019 21:41:17 -2 C 43 %
3011 05-12-2019 21:51:17 -2 C 43 %
3012 05-12-2019 22:01:17 -2.3 C 42 %
3013 05-12-2019 22:11:17 -2.3 C 42 %
3014 05-12-2019 22:21:18 -2.2 C 42 %
3015 05-12-2019 22:31:17 -2.4 C 42 %
3016 05-12-2019 22:41:17 -2.4 C 42 %
3017 05-12-2019 22:51:17 -2.3 C 42 %
3018 05-12-2019 23:01:17 -2.6 C 41 %
3019 05-12-2019 23:11:17 -2.7 C 41 %
3020 05-12-2019 23:21:18 -2.7 C 42 %
3021 05-12-2019 23:31:17 -3.1 C 41 %
3022 05-12-2019 23:41:17 -3.3 C 41 %
3023 05-12-2019 23:51:17 -3.2 C 42 %
3024 06-12-2019 00:01:18 -2.9 C 42 %
3025 06-12-2019 00:11:18 -3.4 C 40 %
Sensor: Nr:Datum:Temp:Feuchte:
Aussen-T/F 3026 06-12-2019 00:21:17 -3.8 C 40 %
3027 06-12-2019 00:31:17 -3.4 C 42 %
3028 06-12-2019 00:41:17 -3.2 C 42 %
3029 06-12-2019 00:51:17 -2.7 C 43 %
3030 06-12-2019 01:01:17 -2.4 C 43 %
3031 06-12-2019 01:11:17 -2.1 C 43 %
3032 06-12-2019 01:21:17 -2 C 41 %
3033 06-12-2019 01:31:18 -1.8 C 42 %
3034 06-12-2019 01:41:18 -1.6 C 43 %
3035 06-12-2019 01:51:17 -1.6 C 43 %
3036 06-12-2019 02:01:17 -1.4 C 42 %
3037 06-12-2019 02:11:17 -1.4 C 40 %
3038 06-12-2019 02:21:17 -1.6 C 40 %
3039 06-12-2019 02:31:17 -1.5 C 40 %
3040 06-12-2019 02:41:17 -1.7 C 39 %
3041 06-12-2019 02:51:17 -1.6 C 40 %
3042 06-12-2019 03:01:18 -1.4 C 39 %
3043 06-12-2019 03:11:18 -1.2 C 39 %
3044 06-12-2019 03:21:17 -1 C 38 %
3045 06-12-2019 03:31:17 -1 C 37 %
3046 06-12-2019 03:41:17 -1 C 38 %
3047 06-12-2019 03:51:17 -1.1 C 37 %
3048 06-12-2019 04:01:17 -1.2 C 38 %
3049 06-12-2019 04:11:17 -1.3 C 37 %
3050 06-12-2019 04:21:17 -1.3 C 38 %
Sensor: Nr:Datum:Temp:Feuchte:
Aussen-T/F 3051 06-12-2019 04:31:17 -1.1 C 38 %
3052 06-12-2019 04:41:17 -1.1 C 38 %
3053 06-12-2019 04:51:17 -0.8 C 38 %
3054 06-12-2019 05:01:17 -1 C 38 %
3055 06-12-2019 05:11:17 -0.8 C 37 %
3056 06-12-2019 05:21:17 -0.9 C 36 %
3057 06-12-2019 05:31:18 -1 C 37 %
3058 06-12-2019 05:41:18 -0.8 C 38 %
3059 06-12-2019 05:51:17 -0.6 C 36 %
3060 06-12-2019 06:01:17 -0.6 C 35 %
3061 06-12-2019 06:11:17 -0.6 C 36 %
3062 06-12-2019 06:21:17 -0.5 C 36 %
3063 06-12-2019 06:31:17 -0.5 C 35 %
3064 06-12-2019 06:41:17 -0.4 C 36 %
3065 06-12-2019 06:51:18 -0.4 C 37 %
3066 06-12-2019 07:01:17 -0.4 C 38 %
3067 06-12-2019 07:11:17 -0.4 C 38 %
3068 06-12-2019 07:21:17 -0.1 C 37 %
3069 06-12-2019 07:31:17 0 C 36 %
3070 06-12-2019 07:41:17 0.2 C 34 %
3071 06-12-2019 07:51:18 0.4 C 32 %
3072 06-12-2019 08:01:17 0.4 C 32 %
3073 06-12-2019 08:11:17 0.4 C 32 %
3074 06-12-2019 08:21:17 0.4 C 35 %
3075 06-12-2019 08:31:17 0.6 C 32 %
Sensor: Nr:Datum:Temp:Feuchte:
Aussen-T/F 3076 06-12-2019 08:41:17 0.5 C 35 %
3077 06-12-2019 08:51:18 0.5 C 35 %
3078 06-12-2019 09:01:17 0.6 C 36 %
3079 06-12-2019 09:11:17 0.8 C 36 %
3080 06-12-2019 09:21:17 1.2 C 33 %
3081 06-12-2019 09:31:17 1.4 C 33 %
3082 06-12-2019 09:41:17 1.5 C 33 %
3083 06-12-2019 09:51:17 1.7 C 34 %
3084 06-12-2019 10:01:17 1.8 C 33 %
3085 06-12-2019 10:11:17 1.8 C 35 %
3086 06-12-2019 10:21:18 1.9 C 36 %
3087 06-12-2019 10:31:17 1.9 C 36 %
3088 06-12-2019 10:41:17 2.4 C 35 %
3089 06-12-2019 10:51:17 2.5 C 35 %
3090 06-12-2019 11:01:18 2.7 C 35 %
3091 06-12-2019 11:11:18 3.2 C 32 %
3092 06-12-2019 11:21:17 3.3 C 32 %
3093 06-12-2019 11:31:17 3.5 C 32 %
3094 06-12-2019 11:41:17 3.5 C 32 %
3095 06-12-2019 11:51:17 3.5 C 33 %
3096 06-12-2019 12:01:17 3.6 C 33 %
3097 06-12-2019 12:11:17 3.6 C 33 %
3098 06-12-2019 12:21:17 3.6 C 35 %
3099 06-12-2019 12:31:18 3.7 C 37 %
3100 06-12-2019 12:41:18 3.7 C 39 %
Sensor: Nr:Datum:Temp:Feuchte:
Aussen-T/F 3101 06-12-2019 12:51:17 3.7 C 40 %
3102 06-12-2019 13:01:17 3.8 C 39 %
3103 06-12-2019 13:11:17 3.9 C 38 %
3104 06-12-2019 13:21:17 4 C 36 %
3105 06-12-2019 13:31:18 4.2 C 35 %
3106 06-12-2019 13:41:18 4.2 C 35 %
3107 06-12-2019 13:51:17 4.1 C 36 %
3108 06-12-2019 14:01:17 4.1 C 39 %
3109 06-12-2019 14:11:17 4.2 C 40 %
3110 06-12-2019 14:21:17 4.2 C 38 %
3111 06-12-2019 14:31:18 4.2 C 38 %
3112 06-12-2019 14:41:18 4.4 C 38 %
3113 06-12-2019 14:51:17 4.4 C 39 %
3114 06-12-2019 15:01:17 4.3 C 38 %
3115 06-12-2019 15:11:17 4.4 C 38 %
3116 06-12-2019 15:21:17 4.7 C 36 %
3117 06-12-2019 15:31:17 4.5 C 37 %
3118 06-12-2019 15:41:17 4.5 C 37 %
3119 06-12-2019 15:51:18 4.6 C 37 %
3120 06-12-2019 16:01:18 4.8 C 38 %
3121 06-12-2019 16:11:18 5 C 34 %
3122 06-12-2019 16:21:17 5.2 C 32 %
3123 06-12-2019 16:31:17 5.1 C 32 %
3124 06-12-2019 16:41:17 5.3 C 32 %
3125 06-12-2019 16:51:17 5.2 C 31 %
Sensor: Nr:Datum:Temp:Feuchte:
Aussen-T/F 3126 06-12-2019 17:01:17 5.2 C 31 %
3127 06-12-2019 17:11:17 5.3 C 31 %
3128 06-12-2019 17:21:17 5.3 C 30 %
3129 06-12-2019 17:31:18 5.5 C 30 %
3130 06-12-2019 17:41:18 5.6 C 29 %
3131 06-12-2019 17:51:17 5.5 C 30 %
3132 06-12-2019 18:01:17 5.9 C 29 %
3133 06-12-2019 18:11:17 6 C 28 %
3134 06-12-2019 18:21:18 6.2 C 29 %
3135 06-12-2019 18:31:17 6.1 C 28 %
3136 06-12-2019 18:41:17 6.1 C 29 %
3137 06-12-2019 18:51:17 5.9 C 30 %
3138 06-12-2019 19:01:17 5.6 C 31 %
3139 06-12-2019 19:11:17 5.8 C 32 %
3140 06-12-2019 19:21:17 5.9 C 31 %
3141 06-12-2019 19:31:17 6.2 C 30 %
3142 06-12-2019 19:41:17 6.5 C 28 %
3143 06-12-2019 19:51:17 6.5 C 28 %
3144 06-12-2019 20:01:17 6.8 C 28 %
3145 06-12-2019 20:11:17 6.7 C 28 %
3146 06-12-2019 20:21:17 6.8 C 28 %
3147 06-12-2019 20:31:17 6.7 C 28 %
3148 06-12-2019 20:41:17 6.7 C 28 %
3149 06-12-2019 20:51:18 6.7 C 28 %
3150 06-12-2019 21:01:17 6.8 C 27 %
Sensor: Nr:Datum:Temp:Feuchte:
Aussen-T/F 3151 06-12-2019 21:11:17 6.7 C 28 %
3152 06-12-2019 21:21:17 6.7 C 28 %
3153 06-12-2019 21:31:17 6.6 C 28 %
3154 06-12-2019 21:41:17 6.5 C 28 %
3155 06-12-2019 21:51:17 6.5 C 29 %
3156 06-12-2019 22:01:17 6.6 C 29 %
3157 06-12-2019 22:11:17 6.7 C 28 %
3158 06-12-2019 22:21:17 6.7 C 28 %
3159 06-12-2019 22:31:17 6.7 C 28 %
3160 06-12-2019 22:41:17 6.9 C 28 %
3161 06-12-2019 22:51:17 6.9 C 27 %
3162 06-12-2019 23:01:18 7 C 27 %
3163 06-12-2019 23:11:18 6.9 C 28 %
3164 06-12-2019 23:21:17 6.8 C 29 %
3165 06-12-2019 23:31:17 6.8 C 29 %
3166 06-12-2019 23:41:17 6.9 C 29 %
3167 06-12-2019 23:51:18 6.8 C 30 %
3168 07-12-2019 00:01:17 6.9 C 30 %
3169 07-12-2019 00:11:17 7 C 28 %
3170 07-12-2019 00:21:17 7.2 C 28 %
3171 07-12-2019 00:31:17 7.2 C 28 %
3172 07-12-2019 00:41:17 7.2 C 28 %
3173 07-12-2019 00:51:17 7.4 C 28 %
3174 07-12-2019 01:01:17 7.4 C 28 %
3175 07-12-2019 01:11:17 7.6 C 28 %
Sensor: Nr:Datum:Temp:Feuchte:
Aussen-T/F 3176 07-12-2019 01:21:17 7.7 C 28 %
3177 07-12-2019 01:31:18 7.8 C 28 %
3178 07-12-2019 01:41:18 7.6 C 29 %
3179 07-12-2019 01:51:17 7.6 C 29 %
3180 07-12-2019 02:01:17 7.5 C 30 %
3181 07-12-2019 02:11:17 7.7 C 31 %
3182 07-12-2019 02:21:17 7.5 C 31 %
3183 07-12-2019 02:31:17 7.1 C 35 %
3184 07-12-2019 02:41:17 7.2 C 38 %
3185 07-12-2019 02:51:17 7.3 C 35 %
3186 07-12-2019 03:01:17 7.4 C 35 %
3187 07-12-2019 03:11:17 7.6 C 33 %
3188 07-12-2019 03:21:17 8.4 C 30 %
3189 07-12-2019 03:31:17 8.5 C 29 %
3190 07-12-2019 03:41:17 8.7 C 28 %
3191 07-12-2019 03:51:17 9 C 27 %
3192 07-12-2019 04:01:18 8.4 C 29 %
3193 07-12-2019 04:11:18 8.5 C 29 %
3194 07-12-2019 04:21:17 8 C 30 %
3195 07-12-2019 04:31:17 7.9 C 30 %
3196 07-12-2019 04:41:17 8 C 30 %
3197 07-12-2019 04:51:17 8 C 30 %
3198 07-12-2019 05:01:17 7.7 C 30 %
3199 07-12-2019 05:11:17 8 C 30 %
3200 07-12-2019 05:21:17 8 C 30 %
Sensor: Nr:Datum:Temp:Feuchte:
Aussen-T/F 3201 07-12-2019 05:31:17 7.8 C 31 %
3202 07-12-2019 05:41:17 8.2 C 30 %
3203 07-12-2019 05:51:18 7.2 C 31 %
3204 07-12-2019 06:01:18 7.6 C 30 %
3205 07-12-2019 06:11:18 8.7 C 26 %
3206 07-12-2019 06:21:17 8.6 C 26 %
3207 07-12-2019 06:31:18 8.2 C 26 %
3208 07-12-2019 06:41:18 8.1 C 26 %
3209 07-12-2019 06:51:17 7.5 C 27 %
3210 07-12-2019 07:01:17 6.8 C 30 %
3211 07-12-2019 07:11:17 7.1 C 28 %
3212 07-12-2019 07:21:17 7.3 C 27 %
3213 07-12-2019 07:31:17 6.8 C 30 %
3214 07-12-2019 07:41:17 6.3 C 31 %
3215 07-12-2019 07:51:18 7.8 C 28 %
3216 07-12-2019 08:01:18 8 C 27 %
3217 07-12-2019 08:11:18 7.9 C 28 %
3218 07-12-2019 08:21:17 8.1 C 28 %
3219 07-12-2019 08:31:17 8.1 C 27 %
3220 07-12-2019 08:41:17 8.3 C 28 %
3221 07-12-2019 08:51:17 8.4 C 27 %
3222 07-12-2019 09:01:17 8.4 C 27 %
3223 07-12-2019 09:11:17 8.3 C 28 %
3224 07-12-2019 09:21:17 8.2 C 28 %
3225 07-12-2019 09:31:17 8.1 C 29 %
Sensor: Nr:Datum:Temp:Feuchte:
Aussen-T/F 3226 07-12-2019 09:41:17 8.3 C 28 %
3227 07-12-2019 09:51:18 8.6 C 27 %
3228 07-12-2019 10:01:17 8.6 C 27 %
3229 07-12-2019 10:11:17 8.8 C 27 %
3230 07-12-2019 10:21:17 9 C 26 %
3231 07-12-2019 10:31:17 9.1 C 25 %
3232 07-12-2019 10:41:17 9.1 C 26 %
3233 07-12-2019 10:51:18 9.2 C 25 %
3234 07-12-2019 11:01:18 9 C 26 %
3235 07-12-2019 11:11:18 8.4 C 29 %
3236 07-12-2019 11:21:17 8.3 C 30 %
3237 07-12-2019 11:31:17 8.4 C 30 %
3238 07-12-2019 11:41:17 8.5 C 30 %
3239 07-12-2019 11:51:17 8.6 C 28 %
3240 07-12-2019 12:01:17 8.8 C 27 %
3241 07-12-2019 12:11:17 8.9 C 27 %
3242 07-12-2019 12:21:17 9.2 C 25 %
3243 07-12-2019 12:31:18 9.4 C 25 %
3244 07-12-2019 12:41:18 9.5 C 25 %
3245 07-12-2019 12:51:17 9.5 C 25 %
3246 07-12-2019 13:01:17 9.7 C 23 %
3247 07-12-2019 13:11:17 10 C 20 %
3248 07-12-2019 13:21:17 9.8 C 20 %
3249 07-12-2019 13:31:17 9.8 C 20 %
3250 07-12-2019 13:41:17 9.9 C 20 %
Sensor: Nr:Datum:Temp:Feuchte:
Aussen-T/F 3251 07-12-2019 13:51:17 9.9 C 20 %
3252 07-12-2019 14:01:17 9.8 C 20 %
3253 07-12-2019 14:11:17 9.7 C 20 %
3254 07-12-2019 14:21:17 9.9 C 20 %
3255 07-12-2019 14:31:18 9.9 C 20 %
3256 07-12-2019 14:41:18 9.9 C 20 %
3257 07-12-2019 14:51:17 9.9 C 20 %
3258 07-12-2019 15:01:17 9.9 C 20 %
3259 07-12-2019 15:11:17 9.7 C 21 %
3260 07-12-2019 15:21:17 9.6 C 21 %
3261 07-12-2019 15:31:17 9.7 C 21 %
3262 07-12-2019 15:41:17 9.6 C 20 %
3263 07-12-2019 15:51:17 9.4 C 23 %
3264 07-12-2019 16:01:17 9 C 25 %
3265 07-12-2019 16:11:17 8.9 C 25 %
3266 07-12-2019 16:21:18 8.8 C 25 %
3267 07-12-2019 16:31:17 8.6 C 26 %
3268 07-12-2019 16:41:18 8.5 C 26 %
3269 07-12-2019 16:51:17 8.2 C 27 %
3270 07-12-2019 17:01:17 8.1 C 29 %
3271 07-12-2019 17:11:17 8.2 C 28 %
3272 07-12-2019 17:21:17 8.1 C 28 %
3273 07-12-2019 17:31:18 8.2 C 28 %
3274 07-12-2019 17:41:18 8.3 C 27 %
3275 07-12-2019 17:51:17 8.1 C 27 %
Sensor: Nr:Datum:Temp:Feuchte:
Aussen-T/F 3276 07-12-2019 18:01:18 8 C 28 %
3277 07-12-2019 18:11:18 8 C 27 %
3278 07-12-2019 18:21:17 7.8 C 28 %
3279 07-12-2019 18:31:17 7.7 C 29 %
3280 07-12-2019 18:41:17 7.6 C 30 %
3281 07-12-2019 18:51:17 7.6 C 30 %
3282 07-12-2019 19:01:17 7.5 C 31 %
3283 07-12-2019 19:11:17 7.5 C 31 %
3284 07-12-2019 19:21:17 7.5 C 32 %
3285 07-12-2019 19:31:17 7.7 C 31 %
3286 07-12-2019 19:41:17 7.6 C 30 %
3287 07-12-2019 19:51:17 7.7 C 30 %
3288 07-12-2019 20:01:18 7.4 C 30 %
3289 07-12-2019 20:11:18 7.3 C 31 %
3290 07-12-2019 20:21:17 7.3 C 31 %
3291 07-12-2019 20:31:17 7.4 C 30 %
3292 07-12-2019 20:41:17 7.6 C 30 %
3293 07-12-2019 20:51:17 7.6 C 30 %
3294 07-12-2019 21:01:17 7.5 C 30 %
3295 07-12-2019 21:11:17 7.6 C 30 %
3296 07-12-2019 21:21:17 8 C 28 %
3297 07-12-2019 21:31:17 8.1 C 28 %
3298 07-12-2019 21:41:17 8.2 C 28 %
3299 07-12-2019 21:51:17 7.9 C 28 %
3300 07-12-2019 22:01:17 8.2 C 28 %
Sensor: Nr:Datum:Temp:Feuchte:
Aussen-T/F 3301 07-12-2019 22:11:17 8.1 C 27 %
3302 07-12-2019 22:21:17 7.8 C 28 %
3303 07-12-2019 22:31:18 7.7 C 30 %
3304 07-12-2019 22:41:18 7.6 C 30 %
3305 07-12-2019 22:51:17 7.5 C 31 %
3306 07-12-2019 23:01:17 7.4 C 32 %
3307 07-12-2019 23:11:17 7.6 C 31 %
3308 07-12-2019 23:21:17 7.6 C 32 %
3309 07-12-2019 23:31:17 7.5 C 32 %
3310 07-12-2019 23:41:17 7.7 C 31 %
3311 07-12-2019 23:51:18 7.9 C 28 %
3312 08-12-2019 00:01:17 8.1 C 27 %
3313 08-12-2019 00:11:17 8.9 C 23 %
3314 08-12-2019 00:21:17 8.9 C 21 %
3315 08-12-2019 00:31:18 9 C 21 %
3316 08-12-2019 00:41:18 8.9 C 23 %
3317 08-12-2019 00:51:17 8.5 C 25 %
3318 08-12-2019 01:01:18 8.3 C 25 %
3319 08-12-2019 01:11:18 8.5 C 25 %
3320 08-12-2019 01:21:17 8.4 C 26 %
3321 08-12-2019 01:31:17 8.9 C 25 %
3322 08-12-2019 01:41:17 8.8 C 25 %
3323 08-12-2019 01:51:18 9.2 C 20 %
3324 08-12-2019 02:01:17 9.2 C 20 %
3325 08-12-2019 02:11:17 8.9 C 20 %
Sensor: Nr:Datum:Temp:Feuchte:
Aussen-T/F 3326 08-12-2019 02:21:17 9 C 20 %
3327 08-12-2019 02:31:17 9.1 C 20 %
3328 08-12-2019 02:41:18 9 C 20 %
3329 08-12-2019 02:51:17 9.1 C 20 %
3330 08-12-2019 03:01:17 9 C 20 %
3331 08-12-2019 03:11:17 9.1 C 20 %
3332 08-12-2019 03:21:17 9.1 C 20 %
3333 08-12-2019 03:31:17 9.3 C 20 %
3334 08-12-2019 03:41:17 9.3 C 20 %
3335 08-12-2019 03:51:17 9.4 C 20 %
3336 08-12-2019 04:01:17 9.7 C 20 %
3337 08-12-2019 04:11:18 9.6 C 20 %
3338 08-12-2019 04:21:17 9.5 C 20 %
3339 08-12-2019 04:31:17 9.6 C 20 %
3340 08-12-2019 04:41:17 9.6 C 20 %
3341 08-12-2019 04:51:17 9.5 C 20 %
3342 08-12-2019 05:01:17 9.6 C 20 %
3343 08-12-2019 05:11:17 9.5 C 21 %
3344 08-12-2019 05:21:17 9.5 C 21 %
3345 08-12-2019 05:31:17 9.4 C 23 %
3346 08-12-2019 05:41:17 9.5 C 23 %
3347 08-12-2019 05:51:17 9.2 C 25 %
3348 08-12-2019 06:01:17 9.3 C 25 %
3349 08-12-2019 06:11:18 9.5 C 25 %
3350 08-12-2019 06:21:17 9.9 C 21 %
Sensor: Nr:Datum:Temp:Feuchte:
Aussen-T/F 3351 08-12-2019 06:31:17 9.8 C 23 %
3352 08-12-2019 06:41:17 9.7 C 25 %
3353 08-12-2019 06:51:17 9.9 C 23 %
3354 08-12-2019 07:01:18 10 C 21 %
3355 08-12-2019 07:11:18 10.1 C 20 %
3356 08-12-2019 07:21:17 9.9 C 21 %
3357 08-12-2019 07:31:17 10 C 21 %
3358 08-12-2019 07:41:17 10.1 C 20 %
3359 08-12-2019 07:51:17 10 C 20 %
3360 08-12-2019 08:01:17 10 C 20 %
3361 08-12-2019 08:11:17 10.2 C 20 %
3362 08-12-2019 08:21:17 10.1 C 20 %
3363 08-12-2019 08:31:17 10.3 C 21 %
3364 08-12-2019 08:41:17 10.1 C 21 %
3365 08-12-2019 08:51:17 10.3 C 21 %
3366 08-12-2019 09:01:17 10.3 C 21 %
3367 08-12-2019 09:11:17 10.1 C 21 %
3368 08-12-2019 09:21:17 10.2 C 21 %
3369 08-12-2019 09:31:17 10.3 C 21 %
3370 08-12-2019 09:41:17 10.4 C 21 %
3371 08-12-2019 09:51:17 10.4 C 21 %
3372 08-12-2019 10:01:17 10.4 C 21 %
3373 08-12-2019 10:11:17 10.5 C 21 %
3374 08-12-2019 10:21:17 10.5 C 22 %
3375 08-12-2019 10:31:17 10.5 C 22 %
Sensor: Nr:Datum:Temp:Feuchte:
Aussen-T/F 3376 08-12-2019 10:41:17 10.1 C 25 %
3377 08-12-2019 10:51:17 10.2 C 25 %
3378 08-12-2019 11:01:17 10.5 C 25 %
3379 08-12-2019 11:11:17 10.6 C 23 %
3380 08-12-2019 11:21:17 10.8 C 23 %
3381 08-12-2019 11:31:17 10.8 C 23 %
3382 08-12-2019 11:41:17 10.8 C 22 %
3383 08-12-2019 11:51:17 11 C 22 %
3384 08-12-2019 12:01:18 11.1 C 22 %
3385 08-12-2019 12:11:18 11.3 C 22 %
3386 08-12-2019 12:21:17 11.4 C 22 %
3387 08-12-2019 12:31:17 11.4 C 22 %
3388 08-12-2019 12:41:17 11.4 C 23 %
3389 08-12-2019 12:51:17 11.3 C 24 %
3390 08-12-2019 13:01:18 11.5 C 24 %
3391 08-12-2019 13:11:18 11.5 C 22 %
3392 08-12-2019 13:21:17 11.3 C 25 %
3393 08-12-2019 13:31:17 11.1 C 25 %
3394 08-12-2019 13:41:17 11.4 C 25 %
3395 08-12-2019 13:51:17 11.4 C 25 %
3396 08-12-2019 14:01:17 11.5 C 25 %
3397 08-12-2019 14:11:17 11.5 C 25 %
3398 08-12-2019 14:21:17 11.5 C 25 %
3399 08-12-2019 14:31:18 11.7 C 25 %
3400 08-12-2019 14:41:18 11.7 C 25 %
Sensor: Nr:Datum:Temp:Feuchte:
Aussen-T/F 3401 08-12-2019 14:51:17 11.7 C 25 %
3402 08-12-2019 15:01:18 11.8 C 25 %
3403 08-12-2019 15:11:18 11.8 C 25 %
3404 08-12-2019 15:21:18 11.7 C 25 %
3405 08-12-2019 15:31:18 11.7 C 25 %
3406 08-12-2019 15:41:18 11.8 C 25 %
3407 08-12-2019 15:51:17 11.8 C 25 %
3408 08-12-2019 16:01:17 11.7 C 25 %
3409 08-12-2019 16:11:17 11.8 C 25 %
3410 08-12-2019 16:21:18 11.7 C 25 %
3411 08-12-2019 16:31:18 11.6 C 26 %
3412 08-12-2019 16:41:18 11.4 C 27 %
3413 08-12-2019 16:51:17 9.4 C 31 %
3414 08-12-2019 17:01:17 8.9 C 33 %
3415 08-12-2019 17:11:17 8.8 C 33 %
3416 08-12-2019 17:21:17 8.7 C 34 %
3417 08-12-2019 17:31:17 9.2 C 27 %
3418 08-12-2019 17:41:17 8.5 C 33 %
3419 08-12-2019 17:51:17 8.5 C 33 %
3420 08-12-2019 18:01:17 8.5 C 32 %
3421 08-12-2019 18:11:17 8.6 C 31 %
3422 08-12-2019 18:21:17 8.2 C 33 %
3423 08-12-2019 18:31:18 8.5 C 29 %
3424 08-12-2019 18:41:18 8.5 C 29 %
3425 08-12-2019 18:51:17 8.6 C 28 %
Sensor: Nr:Datum:Temp:Feuchte:
Aussen-T/F 3426 08-12-2019 19:01:17 8.9 C 27 %
3427 08-12-2019 19:11:17 8.5 C 28 %
3428 08-12-2019 19:21:17 8.5 C 28 %
3429 08-12-2019 19:31:17 8.6 C 27 %
3430 08-12-2019 19:41:17 8 C 31 %
3431 08-12-2019 19:51:18 7.8 C 33 %
3432 08-12-2019 20:01:17 7.5 C 36 %
3433 08-12-2019 20:11:17 8.1 C 33 %
3434 08-12-2019 20:21:17 8.2 C 30 %
3435 08-12-2019 20:31:17 8.3 C 29 %
3436 08-12-2019 20:41:17 8.5 C 28 %
3437 08-12-2019 20:51:17 8.6 C 26 %
3438 08-12-2019 21:01:18 8.8 C 26 %
3439 08-12-2019 21:11:18 8.9 C 25 %
3440 08-12-2019 21:21:17 8.4 C 26 %
3441 08-12-2019 21:31:17 8.7 C 26 %
3442 08-12-2019 21:41:17 8.4 C 26 %
3443 08-12-2019 21:51:18 8.4 C 26 %
3444 08-12-2019 22:01:17 8.5 C 26 %
3445 08-12-2019 22:11:17 7.9 C 27 %
3446 08-12-2019 22:21:17 8.1 C 26 %
3447 08-12-2019 22:31:17 8.6 C 26 %
3448 08-12-2019 22:41:17 8.8 C 26 %
3449 08-12-2019 22:51:17 8.7 C 25 %
3450 08-12-2019 23:01:17 8.8 C 25 %
Sensor: Nr:Datum:Temp:Feuchte:
Aussen-T/F 3451 08-12-2019 23:11:17 8.7 C 26 %
3452 08-12-2019 23:21:17 8.8 C 25 %
3453 08-12-2019 23:31:18 8.7 C 25 %
3454 08-12-2019 23:41:18 8.5 C 25 %
3455 08-12-2019 23:51:17 8.4 C 21 %
3456 09-12-2019 00:01:18 8.7 C 20 %
3457 09-12-2019 00:11:18 8.1 C 21 %
3458 09-12-2019 00:21:17 8.4 C 21 %
3459 09-12-2019 00:31:17 8.4 C 21 %
3460 09-12-2019 00:41:17 8.5 C 20 %
3461 09-12-2019 00:51:17 8.4 C 20 %
3462 09-12-2019 01:01:17 8.4 C 20 %
3463 09-12-2019 01:11:17 8.5 C 20 %
3464 09-12-2019 01:21:18 8.1 C 20 %
3465 09-12-2019 01:31:17 8 C 20 %
3466 09-12-2019 01:41:17 8.3 C 20 %
3467 09-12-2019 01:51:17 8.2 C 20 %
3468 09-12-2019 02:01:17 7.8 C 20 %
3469 09-12-2019 02:11:17 7.6 C 20 %
3470 09-12-2019 02:21:17 7.4 C 21 %
3471 09-12-2019 02:31:18 7.4 C 21 %
3472 09-12-2019 02:41:18 7.1 C 23 %
3473 09-12-2019 02:51:18 7.5 C 20 %
3474 09-12-2019 03:01:17 7.5 C 20 %
3475 09-12-2019 03:11:17 7.5 C 20 %
Sensor: Nr:Datum:Temp:Feuchte:
Aussen-T/F 3476 09-12-2019 03:21:17 7.5 C 20 %
3477 09-12-2019 03:31:17 7.3 C 20 %
3478 09-12-2019 03:41:17 6.8 C 23 %
3479 09-12-2019 03:51:17 7.3 C 21 %
3480 09-12-2019 04:01:17 7.3 C 20 %
3481 09-12-2019 04:11:17 7.9 C 20 %
3482 09-12-2019 04:21:18 8 C 20 %
3483 09-12-2019 04:31:18 7.6 C 20 %
3484 09-12-2019 04:41:18 7.4 C 21 %
3485 09-12-2019 04:51:17 6.9 C 25 %
3486 09-12-2019 05:01:17 6.9 C 25 %
3487 09-12-2019 05:11:17 7.4 C 20 %
3488 09-12-2019 05:21:17 7.5 C 20 %
3489 09-12-2019 05:31:17 7.4 C 20 %
3490 09-12-2019 05:41:18 7.1 C 20 %
3491 09-12-2019 05:51:17 7.2 C 20 %
3492 09-12-2019 06:01:17 7.4 C 20 %
3493 09-12-2019 06:11:17 7.4 C 20 %
3494 09-12-2019 06:21:17 7.4 C 20 %
3495 09-12-2019 06:31:17 7.6 C 20 %
3496 09-12-2019 06:41:17 7.8 C 20 %
3497 09-12-2019 06:51:18 7.7 C 20 %
3498 09-12-2019 07:01:17 7.6 C 20 %
3499 09-12-2019 07:11:18 7.5 C 20 %
3500 09-12-2019 07:21:17 7.2 C 20 %
Sensor: Nr:Datum:Temp:Feuchte:
Aussen-T/F 3501 09-12-2019 07:31:17 7.2 C 20 %
3502 09-12-2019 07:41:17 7.6 C 20 %
3503 09-12-2019 07:51:18 7.5 C 20 %
3504 09-12-2019 08:01:17 7.9 C 20 %
3505 09-12-2019 08:11:17 7.8 C 20 %
3506 09-12-2019 08:21:17 7.9 C 20 %
3507 09-12-2019 08:31:17 8 C 20 %
3508 09-12-2019 08:41:17 7.9 C 20 %
3509 09-12-2019 08:51:17 7.9 C 20 %
3510 09-12-2019 09:01:17 7.8 C 20 %
3511 09-12-2019 09:11:17 7.9 C 20 %
3512 09-12-2019 09:21:17 7.5 C 20 %
3513 09-12-2019 09:31:17 7.4 C 23 %
3514 09-12-2019 09:41:17 7.5 C 21 %
3515 09-12-2019 09:51:17 7.7 C 21 %
3516 09-12-2019 10:01:17 7.9 C 21 %
3517 09-12-2019 10:11:17 7.9 C 21 %
3518 09-12-2019 10:21:17 7.9 C 20 %
3519 09-12-2019 10:31:18 7.9 C 21 %
3520 09-12-2019 10:41:18 7.9 C 21 %
3521 09-12-2019 10:51:17 8.1 C 20 %
3522 09-12-2019 11:01:17 8 C 20 %
3523 09-12-2019 11:11:17 8.2 C 20 %
3524 09-12-2019 11:21:17 8.4 C 20 %
3525 09-12-2019 11:31:18 8.4 C 20 %
Sensor: Nr:Datum:Temp:Feuchte:
Aussen-T/F 3526 09-12-2019 11:41:18 8.3 C 20 %
3527 09-12-2019 11:51:17 8.1 C 20 %
3528 09-12-2019 12:01:17 8.2 C 20 %
3529 09-12-2019 12:11:17 8 C 20 %
3530 09-12-2019 12:21:18 8.1 C 20 %
3531 09-12-2019 12:31:17 8.3 C 20 %
3532 09-12-2019 12:41:17 8.2 C 20 %
3533 09-12-2019 12:51:17 8.3 C 20 %
3534 09-12-2019 13:01:18 8.3 C 20 %
3535 09-12-2019 13:11:18 8.3 C 20 %
3536 09-12-2019 13:21:17 8.2 C 20 %
3537 09-12-2019 13:31:17 8.1 C 20 %
3538 09-12-2019 13:41:17 8.5 C 20 %
3539 09-12-2019 13:51:17 8.8 C 20 %
3540 09-12-2019 14:01:17 8.6 C 20 %
3541 09-12-2019 14:11:17 8.5 C 20 %
3542 09-12-2019 14:21:17 8.6 C 20 %
3543 09-12-2019 14:31:17 8.4 C 20 %
3544 09-12-2019 14:41:17 7.9 C 20 %
3545 09-12-2019 14:51:18 8.4 C 20 %
3546 09-12-2019 15:01:17 7.9 C 20 %
3547 09-12-2019 15:11:17 7.3 C 25 %
3548 09-12-2019 15:21:17 7 C 27 %
3549 09-12-2019 15:31:18 7.1 C 26 %
3550 09-12-2019 15:41:18 7.1 C 25 %
Sensor: Nr:Datum:Temp:Feuchte:
Aussen-T/F 3551 09-12-2019 15:51:17 7.4 C 23 %
3552 09-12-2019 16:01:18 7.5 C 20 %
3553 09-12-2019 16:11:18 7.5 C 20 %
3554 09-12-2019 16:21:17 7.6 C 20 %
3555 09-12-2019 16:31:18 7.3 C 20 %
3556 09-12-2019 16:41:18 7.4 C 20 %
3557 09-12-2019 16:51:17 7.3 C 20 %
3558 09-12-2019 17:01:18 7.1 C 20 %
3559 09-12-2019 17:11:18 7.2 C 20 %
3560 09-12-2019 17:21:17 6.7 C 25 %
3561 09-12-2019 17:31:17 6.1 C 32 %
3562 09-12-2019 17:41:17 5.9 C 36 %
3563 09-12-2019 17:51:17 6 C 34 %
3564 09-12-2019 18:01:18 6 C 30 %
3565 09-12-2019 18:11:18 6.1 C 31 %
3566 09-12-2019 18:21:17 6 C 33 %
3567 09-12-2019 18:31:17 5.8 C 35 %
3568 09-12-2019 18:41:17 5.7 C 37 %
3569 09-12-2019 18:51:18 5.7 C 38 %
3570 09-12-2019 19:01:17 5.6 C 35 %
3571 09-12-2019 19:11:17 5.5 C 38 %
3572 09-12-2019 19:21:17 5.6 C 39 %
3573 09-12-2019 19:31:17 5.6 C 38 %
3574 09-12-2019 19:41:17 5.6 C 38 %
3575 09-12-2019 19:51:17 5.6 C 37 %
Sensor: Nr:Datum:Temp:Feuchte:
Aussen-T/F 3576 09-12-2019 20:01:17 5.6 C 35 %
3577 09-12-2019 20:11:17 5.6 C 34 %
3578 09-12-2019 20:21:17 5.6 C 35 %
3579 09-12-2019 20:31:17 5.6 C 32 %
3580 09-12-2019 20:41:17 5.4 C 33 %
3581 09-12-2019 20:51:17 5.3 C 34 %
3582 09-12-2019 21:01:17 5.2 C 33 %
3583 09-12-2019 21:11:18 5.1 C 34 %
3584 09-12-2019 21:21:17 5.2 C 35 %
3585 09-12-2019 21:31:17 5.3 C 32 %
3586 09-12-2019 21:41:17 5.1 C 31 %
3587 09-12-2019 21:51:17 5 C 31 %
3588 09-12-2019 22:01:17 4.8 C 32 %
3589 09-12-2019 22:11:17 4.7 C 31 %
3590 09-12-2019 22:21:17 4.9 C 30 %
3591 09-12-2019 22:31:17 4.9 C 30 %
3592 09-12-2019 22:41:17 4.9 C 30 %
3593 09-12-2019 22:51:18 4.7 C 30 %
3594 09-12-2019 23:01:17 4.6 C 29 %
3595 09-12-2019 23:11:17 4.5 C 29 %
3596 09-12-2019 23:21:17 4.1 C 30 %
3597 09-12-2019 23:31:18 4 C 30 %
3598 09-12-2019 23:41:18 4.1 C 29 %
3599 09-12-2019 23:51:17 4.1 C 29 %
3600 10-12-2019 00:01:17 3.7 C 30 %
Sensor: Nr:Datum:Temp:Feuchte:
Aussen-T/F 3601 10-12-2019 00:11:17 4.1 C 28 %
3602 10-12-2019 00:21:17 3.4 C 30 %
3603 10-12-2019 00:31:17 3.6 C 30 %
3604 10-12-2019 00:41:17 3.1 C 31 %
3605 10-12-2019 00:51:17 3 C 31 %
3606 10-12-2019 01:01:17 2.4 C 33 %
3607 10-12-2019 01:11:17 2.4 C 36 %
3608 10-12-2019 01:21:17 2.5 C 36 %
3609 10-12-2019 01:31:18 2.8 C 34 %
3610 10-12-2019 01:41:18 2.4 C 34 %
3611 10-12-2019 01:51:17 2.4 C 33 %
3612 10-12-2019 02:01:18 2.7 C 33 %
3613 10-12-2019 02:11:18 2.9 C 32 %
3614 10-12-2019 02:21:17 2.3 C 33 %
3615 10-12-2019 02:31:17 2.1 C 35 %
3616 10-12-2019 02:41:17 1.7 C 37 %
3617 10-12-2019 02:51:17 1.6 C 39 %
3618 10-12-2019 03:01:17 1.8 C 40 %
3619 10-12-2019 03:11:17 1.8 C 40 %
3620 10-12-2019 03:21:17 1.8 C 40 %
3621 10-12-2019 03:31:17 2 C 40 %
3622 10-12-2019 03:41:17 1.4 C 41 %
3623 10-12-2019 03:51:17 1.4 C 43 %
3624 10-12-2019 04:01:17 1.1 C 43 %
3625 10-12-2019 04:11:17 1.3 C 41 %
Sensor: Nr:Datum:Temp:Feuchte:
Aussen-T/F 3626 10-12-2019 04:21:17 0.6 C 41 %
3627 10-12-2019 04:31:18 0.6 C 44 %
3628 10-12-2019 04:41:18 0.7 C 45 %
3629 10-12-2019 04:51:17 0.9 C 46 %
3630 10-12-2019 05:01:17 1.1 C 44 %
3631 10-12-2019 05:11:17 1.8 C 41 %
3632 10-12-2019 05:21:18 2.2 C 35 %
3633 10-12-2019 05:31:18 2 C 35 %
3634 10-12-2019 05:41:18 2 C 35 %
3635 10-12-2019 05:51:17 1.8 C 36 %
3636 10-12-2019 06:01:17 1.5 C 36 %
3637 10-12-2019 06:11:17 1.6 C 37 %
3638 10-12-2019 06:21:18 1.4 C 36 %
3639 10-12-2019 06:31:17 1.1 C 38 %
3640 10-12-2019 06:41:17 0.9 C 42 %
3641 10-12-2019 06:51:17 1.2 C 42 %
3642 10-12-2019 07:01:18 1.3 C 40 %
3643 10-12-2019 07:11:18 1.5 C 40 %
3644 10-12-2019 07:21:17 1.7 C 36 %
3645 10-12-2019 07:31:17 1.2 C 37 %
3646 10-12-2019 07:41:17 0.8 C 41 %
3647 10-12-2019 07:51:17 0.8 C 41 %
3648 10-12-2019 08:01:17 0.7 C 41 %
3649 10-12-2019 08:11:17 0.8 C 41 %
3650 10-12-2019 08:21:17 0.4 C 42 %
Sensor: Nr:Datum:Temp:Feuchte:
Aussen-T/F 3651 10-12-2019 08:31:18 0.6 C 42 %
3652 10-12-2019 08:41:18 0.4 C 42 %
3653 10-12-2019 08:51:17 0.4 C 43 %
3654 10-12-2019 09:01:17 0.1 C 42 %
3655 10-12-2019 09:11:17 0.5 C 44 %
3656 10-12-2019 09:21:17 0.8 C 44 %
3657 10-12-2019 09:31:17 1.4 C 42 %
3658 10-12-2019 09:41:17 1.7 C 39 %
3659 10-12-2019 09:51:17 1.8 C 39 %
3660 10-12-2019 10:01:17 2.2 C 36 %
3661 10-12-2019 10:11:17 2.5 C 35 %
3662 10-12-2019 10:21:17 2.7 C 33 %
3663 10-12-2019 10:31:17 2.7 C 33 %
3664 10-12-2019 10:41:17 2.5 C 33 %
3665 10-12-2019 10:51:17 2.4 C 35 %
3666 10-12-2019 11:01:17 2.4 C 34 %
3667 10-12-2019 11:11:17 2.5 C 34 %
3668 10-12-2019 11:21:17 2.3 C 35 %
3669 10-12-2019 11:31:18 2.2 C 36 %
3670 10-12-2019 11:41:18 2.9 C 34 %
3671 10-12-2019 11:51:17 3.5 C 30 %
3672 10-12-2019 12:01:17 3.7 C 30 %
3673 10-12-2019 12:11:17 3.8 C 30 %
3674 10-12-2019 12:21:17 3.9 C 30 %
3675 10-12-2019 12:31:17 3.9 C 30 %
Sensor: Nr:Datum:Temp:Feuchte:
Aussen-T/F 3676 10-12-2019 12:41:17 4.3 C 27 %
3677 10-12-2019 12:51:17 4.5 C 27 %
3678 10-12-2019 13:01:17 4.6 C 27 %
3679 10-12-2019 13:11:17 4.7 C 27 %
3680 10-12-2019 13:21:17 4.7 C 27 %
3681 10-12-2019 13:31:17 4.9 C 27 %
3682 10-12-2019 13:41:17 5.1 C 25 %
3683 10-12-2019 13:51:17 5 C 25 %
3684 10-12-2019 14:01:17 4.6 C 27 %
3685 10-12-2019 14:11:17 4.2 C 28 %
3686 10-12-2019 14:21:17 3.8 C 30 %
3687 10-12-2019 14:31:18 3.9 C 30 %
3688 10-12-2019 14:41:18 3.8 C 30 %
3689 10-12-2019 14:51:17 3.5 C 30 %
3690 10-12-2019 15:01:17 3.5 C 30 %
3691 10-12-2019 15:11:17 3.3 C 31 %
3692 10-12-2019 15:21:17 3.2 C 31 %
3693 10-12-2019 15:31:17 3.1 C 31 %
3694 10-12-2019 15:41:18 3.2 C 31 %
3695 10-12-2019 15:51:17 2.9 C 31 %
3696 10-12-2019 16:01:17 2.4 C 32 %
3697 10-12-2019 16:11:17 3.1 C 31 %
3698 10-12-2019 16:21:17 3.4 C 30 %
3699 10-12-2019 16:31:17 3.5 C 28 %
3700 10-12-2019 16:41:17 3.3 C 28 %
Sensor: Nr:Datum:Temp:Feuchte:
Aussen-T/F 3701 10-12-2019 16:51:17 3.3 C 26 %
3702 10-12-2019 17:01:17 2.8 C 27 %
3703 10-12-2019 17:11:17 2.7 C 27 %
3704 10-12-2019 17:21:18 2.7 C 27 %
3705 10-12-2019 17:31:17 2.7 C 27 %
3706 10-12-2019 17:41:17 2.6 C 27 %
3707 10-12-2019 17:51:17 2.4 C 28 %
3708 10-12-2019 18:01:17 2.3 C 27 %
3709 10-12-2019 18:11:17 1.7 C 31 %
3710 10-12-2019 18:21:17 1.9 C 32 %
3711 10-12-2019 18:31:17 1.8 C 33 %
3712 10-12-2019 18:41:17 1.7 C 34 %
3713 10-12-2019 18:51:17 1.6 C 35 %
3714 10-12-2019 19:01:17 1.5 C 36 %
3715 10-12-2019 19:11:17 1.5 C 36 %
3716 10-12-2019 19:21:17 1.6 C 36 %
3717 10-12-2019 19:31:17 1.5 C 36 %
3718 10-12-2019 19:41:18 1.7 C 36 %
3719 10-12-2019 19:51:17 1.7 C 35 %
3720 10-12-2019 20:01:17 2.2 C 32 %
3721 10-12-2019 20:11:17 2.1 C 32 %
3722 10-12-2019 20:21:17 2.7 C 29 %
3723 10-12-2019 20:31:18 2.9 C 28 %
3724 10-12-2019 20:41:18 2.6 C 30 %
3725 10-12-2019 20:51:17 2.3 C 30 %
Sensor: Nr:Datum:Temp:Feuchte:
Aussen-T/F 3726 10-12-2019 21:01:17 2.5 C 31 %
3727 10-12-2019 21:11:17 2.3 C 31 %
3728 10-12-2019 21:21:17 2.1 C 32 %
3729 10-12-2019 21:31:17 2 C 33 %
3730 10-12-2019 21:41:18 1.8 C 35 %
3731 10-12-2019 21:51:17 1.8 C 36 %
3732 10-12-2019 22:01:17 1.8 C 36 %
3733 10-12-2019 22:11:17 2.1 C 35 %
3734 10-12-2019 22:21:17 2.2 C 34 %
3735 10-12-2019 22:31:17 2.4 C 32 %
3736 10-12-2019 22:41:17 2.5 C 33 %
3737 10-12-2019 22:51:18 2.8 C 31 %
3738 10-12-2019 23:01:17 2.9 C 30 %
3739 10-12-2019 23:11:17 3 C 30 %
3740 10-12-2019 23:21:17 3 C 30 %
3741 10-12-2019 23:31:17 2.9 C 31 %
3742 10-12-2019 23:41:17 3.3 C 28 %
3743 10-12-2019 23:51:17 3.3 C 30 %
3744 11-12-2019 00:01:18 3.2 C 30 %
3745 11-12-2019 00:11:18 3.3 C 29 %
3746 11-12-2019 00:21:17 3.4 C 28 %
3747 11-12-2019 00:31:17 3.4 C 29 %
3748 11-12-2019 00:41:17 3.5 C 27 %
3749 11-12-2019 00:51:17 3.4 C 27 %
3750 11-12-2019 01:01:17 3.5 C 25 %
Sensor: Nr:Datum:Temp:Feuchte:
Aussen-T/F 3751 11-12-2019 01:11:17 3.4 C 27 %
3752 11-12-2019 01:21:18 3.4 C 28 %
3753 11-12-2019 01:31:17 3.4 C 29 %
3754 11-12-2019 01:41:17 3.2 C 30 %
3755 11-12-2019 01:51:17 3.1 C 32 %
3756 11-12-2019 02:01:17 3 C 33 %
3757 11-12-2019 02:11:17 2.9 C 33 %
3758 11-12-2019 02:21:17 2.9 C 32 %
3759 11-12-2019 02:31:18 2.8 C 34 %
3760 11-12-2019 02:41:18 2.9 C 31 %
3761 11-12-2019 02:51:17 3 C 30 %
3762 11-12-2019 03:01:18 3.1 C 30 %
3763 11-12-2019 03:11:18 3 C 32 %
3764 11-12-2019 03:21:17 2.9 C 30 %
3765 11-12-2019 03:31:17 3 C 30 %
3766 11-12-2019 03:41:17 3 C 35 %
3767 11-12-2019 03:51:17 2.8 C 36 %
3768 11-12-2019 04:01:17 2.7 C 35 %
3769 11-12-2019 04:11:17 2.8 C 35 %
3770 11-12-2019 04:21:17 2.8 C 35 %
3771 11-12-2019 04:31:18 2.8 C 38 %
3772 11-12-2019 04:41:18 2.7 C 38 %
3773 11-12-2019 04:51:17 2.7 C 39 %
3774 11-12-2019 05:01:17 2.7 C 39 %
3775 11-12-2019 05:11:17 2.7 C 39 %
Sensor: Nr:Datum:Temp:Feuchte:
Aussen-T/F 3776 11-12-2019 05:21:18 2.7 C 40 %
3777 11-12-2019 05:31:17 2.6 C 42 %
3778 11-12-2019 05:41:17 2.6 C 43 %
3779 11-12-2019 05:51:17 2.5 C 44 %
3780 11-12-2019 06:01:18 2.5 C 44 %
3781 11-12-2019 06:11:18 2.5 C 44 %
3782 11-12-2019 06:21:17 2.5 C 44 %
3783 11-12-2019 06:31:17 2.5 C 44 %
3784 11-12-2019 06:41:17 2.5 C 44 %
3785 11-12-2019 06:51:17 2.5 C 44 %
3786 11-12-2019 07:01:17 2.4 C 44 %
3787 11-12-2019 07:11:17 2.5 C 44 %
3788 11-12-2019 07:21:17 2.4 C 44 %
3789 11-12-2019 07:31:17 2.4 C 44 %
3790 11-12-2019 07:41:18 2.4 C 43 %
3791 11-12-2019 07:51:17 2.4 C 43 %
3792 11-12-2019 08:01:17 2.4 C 43 %
3793 11-12-2019 08:11:17 2.4 C 43 %
3794 11-12-2019 08:21:17 2.4 C 43 %
3795 11-12-2019 08:31:18 2.3 C 43 %
3796 11-12-2019 08:41:18 2.3 C 43 %
3797 11-12-2019 08:51:17 2.3 C 43 %
3798 11-12-2019 09:01:18 2.3 C 43 %
3799 11-12-2019 09:11:18 2.4 C 43 %
3800 11-12-2019 09:21:17 2.5 C 43 %
Sensor: Nr:Datum:Temp:Feuchte:
Aussen-T/F 3801 11-12-2019 09:31:17 2.5 C 43 %
3802 11-12-2019 09:41:17 2.5 C 43 %
3803 11-12-2019 09:51:17 2.5 C 43 %
3804 11-12-2019 10:01:17 2.6 C 43 %
3805 11-12-2019 10:11:17 2.7 C 43 %
3806 11-12-2019 10:21:17 2.7 C 42 %
3807 11-12-2019 10:31:17 2.7 C 42 %
3808 11-12-2019 10:41:17 2.8 C 41 %
3809 11-12-2019 10:51:17 3.1 C 40 %
3810 11-12-2019 11:01:17 3 C 39 %
3811 11-12-2019 11:11:17 3.1 C 39 %
3812 11-12-2019 11:21:17 3.2 C 39 %
3813 11-12-2019 11:31:17 3.1 C 38 %
3814 11-12-2019 11:41:17 3.1 C 38 %
3815 11-12-2019 11:51:17 3.2 C 39 %
3816 11-12-2019 12:01:18 3.2 C 39 %
3817 11-12-2019 12:11:18 3.1 C 39 %
3818 11-12-2019 12:21:17 3.1 C 39 %
3819 11-12-2019 12:31:17 3.1 C 40 %
3820 11-12-2019 12:41:17 3.1 C 40 %
3821 11-12-2019 12:51:17 3.1 C 40 %
3822 11-12-2019 13:01:18 3.2 C 40 %
3823 11-12-2019 13:11:18 3.2 C 40 %
3824 11-12-2019 13:21:17 3.2 C 40 %
3825 11-12-2019 13:31:17 3.2 C 40 %
Sensor: Nr:Datum:Temp:Feuchte:
Aussen-T/F 3826 11-12-2019 13:41:17 3.2 C 40 %
3827 11-12-2019 13:51:17 3.2 C 40 %
3828 11-12-2019 14:01:17 3.2 C 41 %
3829 11-12-2019 14:11:18 3.2 C 41 %
3830 11-12-2019 14:21:17 3.2 C 41 %
3831 11-12-2019 14:31:17 3.3 C 41 %
3832 11-12-2019 14:41:17 3.3 C 42 %
3833 11-12-2019 14:51:17 3.3 C 42 %
3834 11-12-2019 15:01:17 3.3 C 42 %
3835 11-12-2019 15:11:17 3.4 C 42 %
3836 11-12-2019 15:21:17 3.3 C 42 %
3837 11-12-2019 15:31:18 3.3 C 42 %
3838 11-12-2019 15:41:18 3.3 C 42 %
3839 11-12-2019 15:51:17 3.3 C 42 %
3840 11-12-2019 16:01:17 3.2 C 42 %
3841 11-12-2019 16:11:17 3.2 C 42 %
3842 11-12-2019 16:21:17 3.2 C 42 %
3843 11-12-2019 16:31:17 3.2 C 42 %
3844 11-12-2019 16:41:17 3.1 C 42 %
3845 11-12-2019 16:51:17 3.1 C 42 %
3846 11-12-2019 17:01:17 3.1 C 43 %
3847 11-12-2019 17:11:17 3.1 C 42 %
3848 11-12-2019 17:21:17 3.1 C 42 %
3849 11-12-2019 17:31:17 3.1 C 42 %
3850 11-12-2019 17:41:17 3.1 C 42 %
Sensor: Nr:Datum:Temp:Feuchte:
Aussen-T/F 3851 11-12-2019 17:51:18 3.2 C 43 %
3852 11-12-2019 18:01:17 3.2 C 43 %
3853 11-12-2019 18:11:17 3.3 C 43 %
3854 11-12-2019 18:21:17 3.3 C 43 %
3855 11-12-2019 18:31:18 3.4 C 43 %
3856 11-12-2019 18:41:18 3.4 C 43 %
3857 11-12-2019 18:51:17 3.5 C 43 %
3858 11-12-2019 19:01:17 3.5 C 42 %
3859 11-12-2019 19:11:17 3.5 C 42 %
3860 11-12-2019 19:21:18 3.5 C 42 %
3861 11-12-2019 19:31:17 3.5 C 42 %
3862 11-12-2019 19:41:17 3.6 C 42 %
3863 11-12-2019 19:51:18 3.6 C 42 %
3864 11-12-2019 20:01:17 3.6 C 42 %
3865 11-12-2019 20:11:17 3.7 C 42 %
3866 11-12-2019 20:21:17 3.8 C 42 %
3867 11-12-2019 20:31:18 3.8 C 42 %
3868 11-12-2019 20:41:18 3.9 C 42 %
3869 11-12-2019 20:51:17 4.1 C 41 %
3870 11-12-2019 21:01:17 4.1 C 40 %
3871 11-12-2019 21:11:17 4.3 C 39 %
3872 11-12-2019 21:21:17 4.4 C 37 %
3873 11-12-2019 21:31:17 4.1 C 37 %
3874 11-12-2019 21:41:17 4.3 C 37 %
3875 11-12-2019 21:51:17 4.3 C 36 %
Sensor: Nr:Datum:Temp:Feuchte:
Aussen-T/F 3876 11-12-2019 22:01:17 4.5 C 35 %
3877 11-12-2019 22:11:17 4.1 C 35 %
3878 11-12-2019 22:21:17 3.9 C 37 %
3879 11-12-2019 22:31:17 3.6 C 39 %
3880 11-12-2019 22:41:17 3.8 C 39 %
3881 11-12-2019 22:51:18 3.5 C 40 %
3882 11-12-2019 23:01:17 3.8 C 40 %
3883 11-12-2019 23:11:17 3.8 C 40 %
3884 11-12-2019 23:21:17 3.4 C 40 %
3885 11-12-2019 23:31:17 3 C 41 %
3886 11-12-2019 23:41:17 3.4 C 43 %
3887 11-12-2019 23:51:18 3.2 C 42 %
3888 12-12-2019 00:01:17 3 C 42 %
3889 12-12-2019 00:11:17 2.9 C 43 %
3890 12-12-2019 00:21:17 2.8 C 43 %
3891 12-12-2019 00:31:17 2.5 C 43 %
3892 12-12-2019 00:41:17 2.4 C 43 %
3893 12-12-2019 00:51:17 2.3 C 43 %
3894 12-12-2019 01:01:17 2.7 C 44 %
3895 12-12-2019 01:11:17 2.8 C 44 %
3896 12-12-2019 01:21:18 2.6 C 43 %
3897 12-12-2019 01:31:17 2.2 C 43 %
3898 12-12-2019 01:41:17 2.5 C 43 %
3899 12-12-2019 01:51:18 2.1 C 43 %
3900 12-12-2019 02:01:17 1.8 C 44 %
Sensor: Nr:Datum:Temp:Feuchte:
Aussen-T/F 3901 12-12-2019 02:11:17 1.6 C 44 %
3902 12-12-2019 02:21:17 1.7 C 44 %
3903 12-12-2019 02:31:18 1.6 C 44 %
3904 12-12-2019 02:41:18 2 C 43 %
3905 12-12-2019 02:51:17 2 C 43 %
3906 12-12-2019 03:01:17 2.3 C 43 %
3907 12-12-2019 03:11:17 2.4 C 43 %
3908 12-12-2019 03:21:17 2.5 C 43 %
3909 12-12-2019 03:31:17 2.4 C 43 %
3910 12-12-2019 03:41:17 2.5 C 43 %
3911 12-12-2019 03:51:17 2.7 C 43 %
3912 12-12-2019 04:01:17 2.6 C 43 %
3913 12-12-2019 04:11:17 2.7 C 43 %
3914 12-12-2019 04:21:17 2.8 C 43 %
3915 12-12-2019 04:31:17 2.8 C 43 %
3916 12-12-2019 04:41:17 2.9 C 43 %
3917 12-12-2019 04:51:17 2.4 C 42 %
3918 12-12-2019 05:01:17 2 C 42 %
3919 12-12-2019 05:11:17 2.1 C 42 %
3920 12-12-2019 05:21:17 2.2 C 42 %
3921 12-12-2019 05:31:18 2.1 C 42 %
3922 12-12-2019 05:41:18 2.1 C 42 %
3923 12-12-2019 05:51:17 2.1 C 42 %
3924 12-12-2019 06:01:17 1.9 C 43 %
3925 12-12-2019 06:11:17 2 C 42 %
Sensor: Nr:Datum:Temp:Feuchte:
Aussen-T/F 3926 12-12-2019 06:21:17 2.1 C 42 %
3927 12-12-2019 06:31:17 2.1 C 42 %
3928 12-12-2019 06:41:17 2.3 C 42 %
3929 12-12-2019 06:51:17 2.7 C 43 %
3930 12-12-2019 07:01:17 3 C 42 %
3931 12-12-2019 07:11:17 3 C 42 %
3932 12-12-2019 07:21:17 3 C 42 %
3933 12-12-2019 07:31:17 3 C 42 %
3934 12-12-2019 07:41:17 2.8 C 42 %
3935 12-12-2019 07:51:17 2.9 C 42 %
3936 12-12-2019 08:01:17 2.9 C 42 %
3937 12-12-2019 08:11:17 3.1 C 42 %
3938 12-12-2019 08:21:17 3.2 C 42 %
3939 12-12-2019 08:31:18 3.3 C 42 %
3940 12-12-2019 08:41:18 3.5 C 42 %
3941 12-12-2019 08:51:17 3.5 C 42 %
3942 12-12-2019 09:01:18 3.5 C 42 %
3943 12-12-2019 09:11:18 3.6 C 42 %
3944 12-12-2019 09:21:17 3.9 C 42 %
3945 12-12-2019 09:31:17 3.9 C 42 %
3946 12-12-2019 09:41:17 3.7 C 41 %
3947 12-12-2019 09:51:17 3.5 C 41 %
3948 12-12-2019 10:01:17 3.9 C 41 %
3949 12-12-2019 10:11:17 4 C 40 %
3950 12-12-2019 10:21:18 4.4 C 37 %
Sensor: Nr:Datum:Temp:Feuchte:
Aussen-T/F 3951 12-12-2019 10:31:17 4.6 C 35 %
3952 12-12-2019 10:41:17 4.7 C 32 %
3953 12-12-2019 10:51:17 4.8 C 31 %
3954 12-12-2019 11:01:18 4.7 C 32 %
3955 12-12-2019 11:11:18 4.6 C 31 %
3956 12-12-2019 11:21:17 4.4 C 31 %
3957 12-12-2019 11:31:17 4.4 C 32 %
3958 12-12-2019 11:41:17 4.7 C 31 %
3959 12-12-2019 11:51:18 4.9 C 29 %
3960 12-12-2019 12:01:17 5.1 C 29 %
3961 12-12-2019 12:11:17 5.1 C 27 %
3962 12-12-2019 12:21:17 5 C 26 %
3963 12-12-2019 12:31:18 4.7 C 27 %
3964 12-12-2019 12:41:18 4.7 C 28 %
3965 12-12-2019 12:51:17 4.7 C 27 %
3966 12-12-2019 13:01:17 4.6 C 28 %
3967 12-12-2019 13:11:18 5 C 26 %
3968 12-12-2019 13:21:17 4.8 C 27 %
3969 12-12-2019 13:31:17 4.6 C 26 %
3970 12-12-2019 13:41:17 4.2 C 26 %
3971 12-12-2019 13:51:17 4.6 C 25 %
3972 12-12-2019 14:01:17 4.6 C 25 %
3973 12-12-2019 14:11:17 4.3 C 25 %
3974 12-12-2019 14:21:17 4 C 27 %
3975 12-12-2019 14:31:18 4.5 C 25 %
Sensor: Nr:Datum:Temp:Feuchte:
Aussen-T/F 3976 12-12-2019 14:41:18 4.8 C 25 %
3977 12-12-2019 14:51:17 4.7 C 25 %
3978 12-12-2019 15:01:18 4 C 26 %
3979 12-12-2019 15:11:18 4.2 C 26 %
3980 12-12-2019 15:21:17 3.6 C 29 %
3981 12-12-2019 15:31:17 3.5 C 29 %
3982 12-12-2019 15:41:17 3.8 C 28 %
3983 12-12-2019 15:51:17 3.7 C 28 %
3984 12-12-2019 16:01:17 3.6 C 28 %
3985 12-12-2019 16:11:17 3.7 C 26 %
3986 12-12-2019 16:21:18 3.5 C 27 %
3987 12-12-2019 16:31:17 3.4 C 26 %
3988 12-12-2019 16:41:17 3.3 C 28 %
3989 12-12-2019 16:51:17 3.1 C 30 %
3990 12-12-2019 17:01:17 2.6 C 30 %
3991 12-12-2019 17:11:17 1.7 C 35 %
3992 12-12-2019 17:21:17 1.2 C 36 %
3993 12-12-2019 17:31:17 1.1 C 38 %
3994 12-12-2019 17:41:17 0.9 C 41 %
3995 12-12-2019 17:51:17 1 C 40 %
3996 12-12-2019 18:01:17 1.1 C 40 %
3997 12-12-2019 18:11:17 1.1 C 40 %
3998 12-12-2019 18:21:17 1.1 C 40 %
3999 12-12-2019 18:31:17 1 C 40 %
4000 12-12-2019 18:41:17 0.9 C 41 %
Sensor: Nr:Datum:Temp:Feuchte:
Aussen-T/F 4001 12-12-2019 18:51:17 0.7 C 41 %
4002 12-12-2019 19:01:17 0.7 C 41 %
4003 12-12-2019 19:11:17 0.6 C 41 %
4004 12-12-2019 19:21:17 0.6 C 42 %
4005 12-12-2019 19:31:17 0.6 C 42 %
4006 12-12-2019 19:41:17 0.7 C 42 %
4007 12-12-2019 19:51:17 0.7 C 41 %
4008 12-12-2019 20:01:17 0.6 C 41 %
4009 12-12-2019 20:11:17 0.6 C 41 %
4010 12-12-2019 20:21:17 0.6 C 41 %
4011 12-12-2019 20:31:17 0.6 C 41 %
4012 12-12-2019 20:41:17 0.6 C 41 %
4013 12-12-2019 20:51:17 1.3 C 42 %
4014 12-12-2019 21:01:17 1.6 C 38 %
4015 12-12-2019 21:11:17 1.6 C 36 %
4016 12-12-2019 21:21:17 1.3 C 36 %
4017 12-12-2019 21:31:17 1.3 C 35 %
4018 12-12-2019 21:41:17 1 C 35 %
4019 12-12-2019 21:51:17 0.7 C 37 %
4020 12-12-2019 22:01:17 1.2 C 37 %
4021 12-12-2019 22:11:17 0.9 C 37 %
4022 12-12-2019 22:21:18 0.4 C 38 %
4023 12-12-2019 22:31:17 0.3 C 39 %
4024 12-12-2019 22:41:17 0.2 C 40 %
4025 12-12-2019 22:51:17 0.4 C 39 %
Sensor: Nr:Datum:Temp:Feuchte:
Aussen-T/F 4026 12-12-2019 23:01:18 1.1 C 37 %
4027 12-12-2019 23:11:18 1.5 C 35 %
4028 12-12-2019 23:21:17 1.9 C 32 %
4029 12-12-2019 23:31:17 1.6 C 31 %
4030 12-12-2019 23:41:17 1.4 C 32 %
4031 12-12-2019 23:51:17 1.5 C 31 %
4032 13-12-2019 00:01:17 0.9 C 33 %
4033 13-12-2019 00:11:17 0.6 C 35 %
4034 13-12-2019 00:21:17 1 C 33 %
4035 13-12-2019 00:31:18 0.7 C 34 %
4036 13-12-2019 00:41:18 0.9 C 35 %
4037 13-12-2019 00:51:17 1.3 C 32 %
4038 13-12-2019 01:01:18 1.7 C 30 %
4039 13-12-2019 01:11:18 1.8 C 29 %
4040 13-12-2019 01:21:17 2 C 27 %
4041 13-12-2019 01:31:17 1.9 C 28 %
4042 13-12-2019 01:41:17 2 C 27 %
4043 13-12-2019 01:51:17 2 C 27 %
4044 13-12-2019 02:01:18 1.9 C 29 %
4045 13-12-2019 02:11:18 2 C 27 %
4046 13-12-2019 02:21:17 2 C 27 %
4047 13-12-2019 02:31:17 2 C 27 %
4048 13-12-2019 02:41:17 2 C 27 %
4049 13-12-2019 02:51:17 2 C 27 %
4050 13-12-2019 03:01:17 1.8 C 29 %
Sensor: Nr:Datum:Temp:Feuchte:
Aussen-T/F 4051 13-12-2019 03:11:17 1.8 C 30 %
4052 13-12-2019 03:21:17 1.7 C 30 %
4053 13-12-2019 03:31:17 1.6 C 30 %
4054 13-12-2019 03:41:17 1.7 C 30 %
4055 13-12-2019 03:51:17 1.6 C 31 %
4056 13-12-2019 04:01:17 1.4 C 32 %
4057 13-12-2019 04:11:17 1.5 C 32 %
4058 13-12-2019 04:21:17 1.6 C 32 %
4059 13-12-2019 04:31:17 1.6 C 32 %
4060 13-12-2019 04:41:17 1.6 C 32 %
4061 13-12-2019 04:51:17 1.4 C 34 %
4062 13-12-2019 05:01:17 1.4 C 35 %
4063 13-12-2019 05:11:17 1.5 C 34 %
4064 13-12-2019 05:21:17 1.5 C 34 %
4065 13-12-2019 05:31:18 1.7 C 33 %
4066 13-12-2019 05:41:18 1.7 C 32 %
4067 13-12-2019 05:51:17 1.8 C 33 %
4068 13-12-2019 06:01:17 1.9 C 32 %
4069 13-12-2019 06:11:17 2 C 31 %
4070 13-12-2019 06:21:17 2 C 31 %
4071 13-12-2019 06:31:17 2 C 32 %
4072 13-12-2019 06:41:17 1.7 C 35 %
4073 13-12-2019 06:51:17 1.8 C 37 %
4074 13-12-2019 07:01:17 1.8 C 37 %
4075 13-12-2019 07:11:18 1.7 C 39 %
Sensor: Nr:Datum:Temp:Feuchte:
Aussen-T/F 4076 13-12-2019 07:21:17 1.8 C 38 %
4077 13-12-2019 07:31:17 1.8 C 40 %
4078 13-12-2019 07:41:17 1.8 C 39 %
4079 13-12-2019 07:51:17 1.9 C 38 %
4080 13-12-2019 08:01:17 1.8 C 38 %
4081 13-12-2019 08:11:17 1.8 C 39 %
4082 13-12-2019 08:21:17 1.7 C 40 %
4083 13-12-2019 08:31:17 1.7 C 41 %
4084 13-12-2019 08:41:17 1.6 C 41 %
4085 13-12-2019 08:51:17 1.7 C 41 %
4086 13-12-2019 09:01:17 1.9 C 40 %
4087 13-12-2019 09:11:17 1.9 C 40 %
4088 13-12-2019 09:21:17 1.9 C 40 %
4089 13-12-2019 09:31:17 1.7 C 42 %
4090 13-12-2019 09:41:17 1.7 C 42 %
4091 13-12-2019 09:51:18 1.9 C 43 %
4092 13-12-2019 10:01:17 1.8 C 43 %
4093 13-12-2019 10:11:17 1.9 C 43 %
4094 13-12-2019 10:21:18 2 C 41 %
4095 13-12-2019 10:31:17 2.2 C 41 %
4096 13-12-2019 10:41:17 2.3 C 41 %
4097 13-12-2019 10:51:18 2.3 C 41 %
4098 13-12-2019 11:01:17 2.4 C 41 %
4099 13-12-2019 11:11:17 2.3 C 40 %
4100 13-12-2019 11:21:17 2.3 C 40 %
Sensor: Nr:Datum:Temp:Feuchte:
Aussen-T/F 4101 13-12-2019 11:31:17 2.4 C 41 %
4102 13-12-2019 11:41:17 2.5 C 41 %
4103 13-12-2019 11:51:18 2.8 C 42 %
4104 13-12-2019 12:01:17 3 C 41 %
4105 13-12-2019 12:11:17 3.1 C 39 %
4106 13-12-2019 12:21:17 3.2 C 38 %
4107 13-12-2019 12:31:17 3.5 C 38 %
4108 13-12-2019 12:41:17 3.5 C 38 %
4109 13-12-2019 12:51:18 3.6 C 38 %
4110 13-12-2019 13:01:18 3.8 C 39 %
4111 13-12-2019 13:11:18 4.1 C 37 %
4112 13-12-2019 13:21:17 4.6 C 38 %
4113 13-12-2019 13:31:17 5.2 C 35 %
4114 13-12-2019 13:41:17 5.7 C 35 %
4115 13-12-2019 13:51:17 6.4 C 31 %
4116 13-12-2019 14:01:17 6.7 C 30 %
4117 13-12-2019 14:11:17 7 C 28 %
4118 13-12-2019 14:21:17 6.8 C 29 %
4119 13-12-2019 14:31:17 6.8 C 28 %
4120 13-12-2019 14:41:17 6.7 C 28 %
4121 13-12-2019 14:51:18 6.4 C 29 %
4122 13-12-2019 15:01:18 6.3 C 29 %
4123 13-12-2019 15:11:18 6.3 C 29 %
4124 13-12-2019 15:21:17 6.2 C 30 %
4125 13-12-2019 15:31:17 5.9 C 30 %
Sensor: Nr:Datum:Temp:Feuchte:
Aussen-T/F 4126 13-12-2019 15:41:17 5.8 C 31 %
4127 13-12-2019 15:51:17 5.5 C 31 %
4128 13-12-2019 16:01:18 5.3 C 30 %
4129 13-12-2019 16:11:18 5.4 C 30 %
4130 13-12-2019 16:21:17 5.3 C 30 %
4131 13-12-2019 16:31:17 5.1 C 30 %
4132 13-12-2019 16:41:17 4.8 C 31 %
4133 13-12-2019 16:51:17 4.5 C 31 %
4134 13-12-2019 17:01:17 4.6 C 31 %
4135 13-12-2019 17:11:17 4.5 C 31 %
4136 13-12-2019 17:21:17 4.3 C 34 %
4137 13-12-2019 17:31:18 4.3 C 34 %
4138 13-12-2019 17:41:18 4.2 C 33 %
4139 13-12-2019 17:51:17 4 C 33 %
4140 13-12-2019 18:01:17 3.8 C 36 %
4141 13-12-2019 18:11:17 3.7 C 40 %
4142 13-12-2019 18:21:17 3.8 C 39 %
4143 13-12-2019 18:31:17 3.8 C 40 %
4144 13-12-2019 18:41:18 3.8 C 39 %
4145 13-12-2019 18:51:17 3.9 C 36 %
4146 13-12-2019 19:01:17 3.9 C 36 %
4147 13-12-2019 19:11:17 3.9 C 35 %
4148 13-12-2019 19:21:17 4 C 34 %
4149 13-12-2019 19:31:17 4.1 C 35 %
4150 13-12-2019 19:41:17 4 C 36 %
Sensor: Nr:Datum:Temp:Feuchte:
Aussen-T/F 4151 13-12-2019 19:51:17 4.6 C 32 %
4152 13-12-2019 20:01:17 4.6 C 32 %
4153 13-12-2019 20:11:17 4.8 C 31 %
4154 13-12-2019 20:21:17 4.7 C 31 %
4155 13-12-2019 20:31:17 4.7 C 31 %
4156 13-12-2019 20:41:17 4.7 C 32 %
4157 13-12-2019 20:51:17 4.5 C 32 %
4158 13-12-2019 21:01:17 4.3 C 34 %
4159 13-12-2019 21:11:17 4 C 36 %
4160 13-12-2019 21:21:17 4.5 C 35 %
4161 13-12-2019 21:31:18 4.4 C 33 %
4162 13-12-2019 21:41:18 4.4 C 35 %
4163 13-12-2019 21:51:17 4.6 C 32 %
4164 13-12-2019 22:01:17 4.6 C 31 %
4165 13-12-2019 22:11:17 4.6 C 30 %
4166 13-12-2019 22:21:17 4.7 C 30 %
4167 13-12-2019 22:31:18 4.7 C 30 %
4168 13-12-2019 22:41:18 3.8 C 34 %
4169 13-12-2019 22:51:17 3.8 C 36 %
4170 13-12-2019 23:01:17 4.5 C 32 %
4171 13-12-2019 23:11:17 5.1 C 29 %
4172 13-12-2019 23:21:17 5.2 C 28 %
4173 13-12-2019 23:31:17 5.2 C 28 %
4174 13-12-2019 23:41:17 5 C 30 %
4175 13-12-2019 23:51:17 5 C 30 %
Sensor: Nr:Datum:Temp:Feuchte:
G-T/H 1 15-11-2019 00:09:17 9.7 C 69 %
2 15-11-2019 00:19:17 9.7 C 69 %
3 15-11-2019 00:29:17 9.7 C 69 %
4 15-11-2019 00:39:17 9.7 C 69 %
5 15-11-2019 00:49:17 9.7 C 69 %
6 15-11-2019 00:59:17 9.7 C 69 %
7 15-11-2019 01:09:17 9.7 C 69 %
8 15-11-2019 01:19:17 9.7 C 69 %
9 15-11-2019 01:29:17 9.7 C 69 %
10 15-11-2019 01:39:17 9.6 C 69 %
11 15-11-2019 01:49:17 9.6 C 69 %
12 15-11-2019 01:59:17 9.6 C 69 %
13 15-11-2019 02:09:17 9.6 C 69 %
14 15-11-2019 02:19:17 9.6 C 69 %
15 15-11-2019 02:29:17 9.6 C 69 %
16 15-11-2019 02:39:17 9.6 C 69 %
17 15-11-2019 02:49:17 9.6 C 69 %
18 15-11-2019 02:59:17 9.6 C 70 %
19 15-11-2019 03:09:17 9.6 C 70 %
20 15-11-2019 03:19:17 9.6 C 70 %
21 15-11-2019 03:29:17 9.6 C 70 %
22 15-11-2019 03:39:17 9.6 C 70 %
23 15-11-2019 03:49:17 9.6 C 70 %
24 15-11-2019 03:59:17 9.6 C 70 %
25 15-11-2019 04:09:17 9.6 C 70 %
Sensor: Nr:Datum:Temp:Feuchte:
G-T/H 26 15-11-2019 04:19:17 9.6 C 70 %
27 15-11-2019 04:29:17 9.6 C 70 %
28 15-11-2019 04:39:17 9.6 C 70 %
29 15-11-2019 04:49:17 9.6 C 70 %
30 15-11-2019 04:59:17 9.6 C 70 %
31 15-11-2019 05:09:17 9.5 C 70 %
32 15-11-2019 05:19:17 9.5 C 70 %
33 15-11-2019 05:29:17 9.5 C 70 %
34 15-11-2019 05:39:17 9.5 C 70 %
35 15-11-2019 05:49:17 9.5 C 70 %
36 15-11-2019 05:59:17 9.5 C 70 %
37 15-11-2019 06:09:17 9.5 C 70 %
38 15-11-2019 06:19:17 9.5 C 70 %
39 15-11-2019 06:29:17 9.5 C 70 %
40 15-11-2019 06:39:17 9.5 C 70 %
41 15-11-2019 06:49:17 9.5 C 70 %
42 15-11-2019 06:59:17 9.5 C 70 %
43 15-11-2019 07:09:17 9.5 C 70 %
44 15-11-2019 07:19:17 9.5 C 70 %
45 15-11-2019 07:29:17 9.5 C 70 %
46 15-11-2019 07:39:17 9.5 C 70 %
47 15-11-2019 07:49:17 9.5 C 70 %
48 15-11-2019 07:59:17 9.4 C 70 %
49 15-11-2019 08:09:17 9.4 C 70 %
50 15-11-2019 08:19:17 9.4 C 70 %
Sensor: Nr:Datum:Temp:Feuchte:
G-T/H 51 15-11-2019 08:29:17 9.4 C 70 %
52 15-11-2019 08:39:17 9.4 C 70 %
53 15-11-2019 08:49:17 9.5 C 70 %
54 15-11-2019 08:59:17 9.4 C 70 %
55 15-11-2019 09:09:17 9.4 C 70 %
56 15-11-2019 09:19:17 9.4 C 70 %
57 15-11-2019 09:29:17 9.4 C 70 %
58 15-11-2019 09:39:17 9.4 C 70 %
59 15-11-2019 09:49:17 9.4 C 70 %
60 15-11-2019 09:59:17 9.4 C 70 %
61 15-11-2019 10:09:17 9.4 C 70 %
62 15-11-2019 10:19:17 9.4 C 70 %
63 15-11-2019 10:29:17 9.4 C 70 %
64 15-11-2019 10:39:17 9.4 C 70 %
65 15-11-2019 10:49:17 9.4 C 70 %
66 15-11-2019 10:59:17 9.4 C 70 %
67 15-11-2019 11:09:17 9.4 C 70 %
68 15-11-2019 11:19:17 9.4 C 70 %
69 15-11-2019 11:29:17 9.4 C 70 %
70 15-11-2019 11:39:17 9.4 C 70 %
71 15-11-2019 11:49:17 9.4 C 70 %
72 15-11-2019 11:59:17 9.5 C 70 %
73 15-11-2019 12:09:17 9.5 C 70 %
74 15-11-2019 12:19:17 9.5 C 71 %
75 15-11-2019 12:29:17 9.5 C 71 %
Sensor: Nr:Datum:Temp:Feuchte:
G-T/H 76 15-11-2019 12:39:17 9.5 C 71 %
77 15-11-2019 12:49:17 9.5 C 71 %
78 15-11-2019 12:59:17 9.5 C 71 %
79 15-11-2019 13:09:17 9.5 C 71 %
80 15-11-2019 13:19:17 9.5 C 71 %
81 15-11-2019 13:29:17 9.5 C 71 %
82 15-11-2019 13:39:17 9.5 C 71 %
83 15-11-2019 13:49:17 9.6 C 71 %
84 15-11-2019 13:59:17 9.5 C 71 %
85 15-11-2019 14:09:17 9.5 C 71 %
86 15-11-2019 14:19:17 9.6 C 71 %
87 15-11-2019 14:29:17 9.6 C 71 %
88 15-11-2019 14:39:17 9.6 C 71 %
89 15-11-2019 14:49:17 9.6 C 71 %
90 15-11-2019 14:59:17 9.6 C 71 %
91 15-11-2019 15:09:17 9.6 C 71 %
92 15-11-2019 15:19:17 9.3 C 69 %
93 15-11-2019 15:29:17 9.3 C 67 %
94 15-11-2019 15:39:17 9.6 C 66 %
95 15-11-2019 15:49:17 9.7 C 66 %
96 15-11-2019 15:59:17 9.7 C 67 %
97 15-11-2019 16:09:17 9.8 C 67 %
98 15-11-2019 16:19:17 9.8 C 67 %
99 15-11-2019 16:29:17 9.8 C 68 %
100 15-11-2019 16:39:17 9.9 C 68 %
Sensor: Nr:Datum:Temp:Feuchte:
G-T/H 101 15-11-2019 16:49:17 9.9 C 68 %
102 15-11-2019 16:59:17 10 C 67 %
103 15-11-2019 17:09:17 9.9 C 68 %
104 15-11-2019 17:19:17 9.9 C 68 %
105 15-11-2019 17:29:17 10 C 68 %
106 15-11-2019 17:39:17 10 C 68 %
107 15-11-2019 17:49:17 10 C 68 %
108 15-11-2019 17:59:17 10 C 68 %
109 15-11-2019 18:09:17 10 C 68 %
110 15-11-2019 18:19:17 10 C 68 %
111 15-11-2019 18:29:17 10 C 68 %
112 15-11-2019 18:39:17 10 C 68 %
113 15-11-2019 18:49:17 10 C 68 %
114 15-11-2019 18:59:17 10 C 68 %
115 15-11-2019 19:09:17 10 C 68 %
116 15-11-2019 19:19:17 10 C 68 %
117 15-11-2019 19:29:17 10.1 C 68 %
118 15-11-2019 19:39:17 10 C 69 %
119 15-11-2019 19:49:17 10.1 C 69 %
120 15-11-2019 19:59:17 10.1 C 69 %
121 15-11-2019 20:09:17 10.1 C 69 %
122 15-11-2019 20:19:17 10.1 C 69 %
123 15-11-2019 20:29:17 10.1 C 69 %
124 15-11-2019 20:39:17 10.1 C 69 %
125 15-11-2019 20:49:17 10.1 C 69 %
Sensor: Nr:Datum:Temp:Feuchte:
G-T/H 126 15-11-2019 20:59:17 10.1 C 69 %
127 15-11-2019 21:09:17 10.1 C 69 %
128 15-11-2019 21:19:17 10.1 C 69 %
129 15-11-2019 21:29:17 10.1 C 69 %
130 15-11-2019 21:39:17 10.1 C 69 %
131 15-11-2019 21:49:17 10.1 C 69 %
132 15-11-2019 21:59:17 10.1 C 69 %
133 15-11-2019 22:09:17 10.1 C 69 %
134 15-11-2019 22:19:17 10.1 C 69 %
135 15-11-2019 22:29:17 10 C 69 %
136 15-11-2019 22:39:17 10 C 69 %
137 15-11-2019 22:49:17 10 C 69 %
138 15-11-2019 22:59:17 10 C 69 %
139 15-11-2019 23:09:17 10 C 69 %
140 15-11-2019 23:19:17 10 C 69 %
141 15-11-2019 23:29:17 10 C 69 %
142 15-11-2019 23:39:17 10 C 69 %
143 15-11-2019 23:49:17 10 C 69 %
144 15-11-2019 23:59:17 10 C 69 %
145 16-11-2019 00:09:17 10 C 69 %
146 16-11-2019 00:19:17 10 C 69 %
147 16-11-2019 00:29:17 10 C 69 %
148 16-11-2019 00:39:17 10 C 69 %
149 16-11-2019 00:49:17 10 C 69 %
150 16-11-2019 00:59:17 10 C 69 %
Sensor: Nr:Datum:Temp:Feuchte:
G-T/H 151 16-11-2019 01:09:17 10 C 69 %
152 16-11-2019 01:19:17 10 C 69 %
153 16-11-2019 01:29:17 10 C 69 %
154 16-11-2019 01:39:17 10 C 69 %
155 16-11-2019 01:49:17 10 C 69 %
156 16-11-2019 01:59:17 10 C 69 %
157 16-11-2019 02:09:17 10 C 69 %
158 16-11-2019 02:19:17 10 C 69 %
159 16-11-2019 02:29:17 10 C 69 %
160 16-11-2019 02:39:17 10 C 69 %
161 16-11-2019 02:49:17 10 C 69 %
162 16-11-2019 02:59:17 9.9 C 70 %
163 16-11-2019 03:09:17 10 C 69 %
164 16-11-2019 03:19:17 10 C 69 %
165 16-11-2019 03:29:17 9.9 C 70 %
166 16-11-2019 03:39:18 9.9 C 70 %
167 16-11-2019 03:49:17 10 C 69 %
168 16-11-2019 03:59:17 9.9 C 70 %
169 16-11-2019 04:09:17 9.9 C 70 %
170 16-11-2019 04:19:17 9.9 C 70 %
171 16-11-2019 04:29:17 9.9 C 70 %
172 16-11-2019 04:39:17 9.9 C 70 %
173 16-11-2019 04:49:17 9.9 C 70 %
174 16-11-2019 04:59:17 9.9 C 70 %
175 16-11-2019 05:09:17 9.8 C 69 %
Sensor: Nr:Datum:Temp:Feuchte:
G-T/H 176 16-11-2019 05:19:17 9.8 C 69 %
177 16-11-2019 05:29:17 9.8 C 69 %
178 16-11-2019 05:39:17 9.8 C 69 %
179 16-11-2019 05:49:17 9.8 C 69 %
180 16-11-2019 05:59:17 9.8 C 69 %
181 16-11-2019 06:09:17 9.8 C 69 %
182 16-11-2019 06:19:17 9.8 C 69 %
183 16-11-2019 06:29:17 9.8 C 69 %
184 16-11-2019 06:39:17 9.7 C 69 %
185 16-11-2019 06:49:17 9.7 C 69 %
186 16-11-2019 06:59:17 9.7 C 69 %
187 16-11-2019 07:09:17 9.7 C 69 %
188 16-11-2019 07:19:17 9.7 C 69 %
189 16-11-2019 07:29:17 9.7 C 69 %
190 16-11-2019 07:39:17 9.7 C 69 %
191 16-11-2019 07:49:17 9.7 C 69 %
192 16-11-2019 07:59:17 9.7 C 69 %
193 16-11-2019 08:09:17 9.6 C 69 %
194 16-11-2019 08:19:17 9.6 C 68 %
195 16-11-2019 08:29:17 9.6 C 68 %
196 16-11-2019 08:39:17 9.6 C 68 %
197 16-11-2019 08:49:17 9.6 C 68 %
198 16-11-2019 08:59:17 9.6 C 68 %
199 16-11-2019 09:09:17 9.6 C 68 %
200 16-11-2019 09:19:17 9.6 C 68 %
Sensor: Nr:Datum:Temp:Feuchte:
G-T/H 201 16-11-2019 09:29:17 9.6 C 68 %
202 16-11-2019 09:39:17 9.6 C 68 %
203 16-11-2019 09:49:17 9.6 C 68 %
204 16-11-2019 09:59:17 9.6 C 68 %
205 16-11-2019 10:09:17 9.5 C 68 %
206 16-11-2019 10:19:17 9.5 C 68 %
207 16-11-2019 10:29:17 9.5 C 68 %
208 16-11-2019 10:39:17 9.5 C 68 %
209 16-11-2019 10:49:17 9.5 C 68 %
210 16-11-2019 10:59:17 9.5 C 68 %
211 16-11-2019 11:09:17 9.5 C 68 %
212 16-11-2019 11:19:17 9.5 C 68 %
213 16-11-2019 11:29:17 9.5 C 68 %
214 16-11-2019 11:39:17 9.5 C 68 %
215 16-11-2019 11:49:17 9.5 C 68 %
216 16-11-2019 11:59:17 9.7 C 69 %
217 16-11-2019 12:09:17 9.8 C 68 %
218 16-11-2019 12:19:17 9.8 C 68 %
219 16-11-2019 12:29:17 9.7 C 68 %
220 16-11-2019 12:39:17 9.7 C 68 %
221 16-11-2019 12:49:17 9.7 C 68 %
222 16-11-2019 12:59:17 9.3 C 66 %
223 16-11-2019 13:09:17 9.4 C 66 %
224 16-11-2019 13:19:17 9.5 C 67 %
225 16-11-2019 13:29:17 9.5 C 67 %
Sensor: Nr:Datum:Temp:Feuchte:
G-T/H 226 16-11-2019 13:39:17 9.5 C 67 %
227 16-11-2019 13:49:17 9.5 C 67 %
228 16-11-2019 13:59:17 9.5 C 68 %
229 16-11-2019 14:09:17 9.6 C 68 %
230 16-11-2019 14:19:17 9.5 C 68 %
231 16-11-2019 14:29:17 9.6 C 68 %
232 16-11-2019 14:39:17 9.6 C 68 %
233 16-11-2019 14:49:17 9.5 C 68 %
234 16-11-2019 14:59:17 9.6 C 68 %
235 16-11-2019 15:09:17 9.6 C 69 %
236 16-11-2019 15:19:17 9.6 C 69 %
237 16-11-2019 15:29:17 9.5 C 69 %
238 16-11-2019 15:39:17 9.6 C 69 %
239 16-11-2019 15:49:17 9.6 C 69 %
240 16-11-2019 15:59:17 9.6 C 69 %
241 16-11-2019 16:09:17 9.5 C 69 %
242 16-11-2019 16:19:17 9.6 C 69 %
243 16-11-2019 16:29:17 9.5 C 69 %
244 16-11-2019 16:39:17 9.5 C 69 %
245 16-11-2019 16:49:17 9.5 C 69 %
246 16-11-2019 16:59:17 9.5 C 69 %
247 16-11-2019 17:09:17 9.5 C 69 %
248 16-11-2019 17:19:17 9.5 C 69 %
249 16-11-2019 17:29:17 9.5 C 69 %
250 16-11-2019 17:39:17 9.5 C 69 %
Sensor: Nr:Datum:Temp:Feuchte:
G-T/H 251 16-11-2019 17:49:17 9.5 C 69 %
252 16-11-2019 17:59:17 9.5 C 69 %
253 16-11-2019 18:09:17 9.5 C 69 %
254 16-11-2019 18:19:17 9.5 C 69 %
255 16-11-2019 18:29:17 9.5 C 69 %
256 16-11-2019 18:39:17 9.5 C 69 %
257 16-11-2019 18:49:17 9.5 C 69 %
258 16-11-2019 18:59:17 9.4 C 69 %
259 16-11-2019 19:09:17 9.5 C 69 %
260 16-11-2019 19:19:17 9.4 C 69 %
261 16-11-2019 19:29:17 9.4 C 69 %
262 16-11-2019 19:39:17 9.4 C 69 %
263 16-11-2019 19:49:17 9.4 C 69 %
264 16-11-2019 19:59:17 9.4 C 69 %
265 16-11-2019 20:09:17 9.4 C 69 %
266 16-11-2019 20:19:17 9.4 C 69 %
267 16-11-2019 20:29:17 9.4 C 69 %
268 16-11-2019 20:39:17 9.4 C 69 %
269 16-11-2019 20:49:17 9.4 C 69 %
270 16-11-2019 20:59:17 9.3 C 69 %
271 16-11-2019 21:09:17 9.3 C 69 %
272 16-11-2019 21:19:17 9.3 C 69 %
273 16-11-2019 21:29:17 9.3 C 69 %
274 16-11-2019 21:39:17 9.3 C 69 %
275 16-11-2019 21:49:17 9.3 C 69 %
Sensor: Nr:Datum:Temp:Feuchte:
G-T/H 276 16-11-2019 21:59:17 9.3 C 69 %
277 16-11-2019 22:09:17 9.3 C 69 %
278 16-11-2019 22:19:17 9.3 C 69 %
279 16-11-2019 22:29:17 9.3 C 69 %
280 16-11-2019 22:39:17 9.2 C 69 %
281 16-11-2019 22:49:17 9.3 C 69 %
282 16-11-2019 22:59:17 9.3 C 69 %
283 16-11-2019 23:09:17 9.2 C 69 %
284 16-11-2019 23:19:17 9.2 C 69 %
285 16-11-2019 23:29:17 9.2 C 68 %
286 16-11-2019 23:39:17 9.2 C 68 %
287 16-11-2019 23:49:17 9.2 C 68 %
288 16-11-2019 23:59:17 9.2 C 68 %
289 17-11-2019 00:09:17 9.2 C 68 %
290 17-11-2019 00:19:17 9.1 C 68 %
291 17-11-2019 00:29:17 9.1 C 68 %
292 17-11-2019 00:39:17 9.1 C 68 %
293 17-11-2019 00:49:17 9.1 C 68 %
294 17-11-2019 00:59:17 9.1 C 68 %
295 17-11-2019 01:09:17 9.1 C 68 %
296 17-11-2019 01:19:17 9.1 C 68 %
297 17-11-2019 01:29:17 9.1 C 68 %
298 17-11-2019 01:39:17 9.1 C 68 %
299 17-11-2019 01:49:17 9 C 68 %
300 17-11-2019 01:59:17 9 C 68 %
Sensor: Nr:Datum:Temp:Feuchte:
G-T/H 301 17-11-2019 02:09:17 9 C 68 %
302 17-11-2019 02:19:17 9 C 68 %
303 17-11-2019 02:29:17 9 C 68 %
304 17-11-2019 02:39:17 9 C 68 %
305 17-11-2019 02:49:17 9 C 68 %
306 17-11-2019 02:59:17 9 C 68 %
307 17-11-2019 03:09:17 9 C 68 %
308 17-11-2019 03:19:17 9 C 68 %
309 17-11-2019 03:29:17 9 C 68 %
310 17-11-2019 03:39:17 9 C 68 %
311 17-11-2019 03:49:17 9 C 68 %
312 17-11-2019 03:59:17 9 C 68 %
313 17-11-2019 04:09:17 9 C 68 %
314 17-11-2019 04:19:17 9 C 68 %
315 17-11-2019 04:29:17 9 C 68 %
316 17-11-2019 04:39:17 9 C 68 %
317 17-11-2019 04:49:17 9 C 68 %
318 17-11-2019 04:59:17 9 C 68 %
319 17-11-2019 05:09:17 8.9 C 69 %
320 17-11-2019 05:19:17 8.9 C 69 %
321 17-11-2019 05:29:17 9 C 68 %
322 17-11-2019 05:39:17 8.9 C 69 %
323 17-11-2019 05:49:17 8.9 C 69 %
324 17-11-2019 05:59:17 8.9 C 69 %
325 17-11-2019 06:09:17 8.9 C 69 %
Sensor: Nr:Datum:Temp:Feuchte:
G-T/H 326 17-11-2019 06:19:17 8.9 C 69 %
327 17-11-2019 06:29:17 8.9 C 69 %
328 17-11-2019 06:39:17 8.9 C 69 %
329 17-11-2019 06:49:17 8.9 C 69 %
330 17-11-2019 06:59:17 8.9 C 69 %
331 17-11-2019 07:09:17 8.9 C 69 %
332 17-11-2019 07:19:17 8.9 C 69 %
333 17-11-2019 07:29:17 8.9 C 69 %
334 17-11-2019 07:39:17 8.9 C 69 %
335 17-11-2019 07:49:17 8.9 C 69 %
336 17-11-2019 07:59:17 8.9 C 69 %
337 17-11-2019 08:09:17 8.9 C 70 %
338 17-11-2019 08:19:17 8.9 C 70 %
339 17-11-2019 08:29:17 8.9 C 70 %
340 17-11-2019 08:39:17 8.9 C 70 %
341 17-11-2019 08:49:17 8.9 C 70 %
342 17-11-2019 08:59:17 8.9 C 70 %
343 17-11-2019 09:09:17 8.9 C 70 %
344 17-11-2019 09:19:17 8.9 C 70 %
345 17-11-2019 09:29:17 8.9 C 70 %
346 17-11-2019 09:39:17 8.9 C 70 %
347 17-11-2019 09:49:17 8.9 C 70 %
348 17-11-2019 09:59:17 8.9 C 70 %
349 17-11-2019 10:09:17 8.9 C 70 %
350 17-11-2019 10:19:17 8.9 C 70 %
Sensor: Nr:Datum:Temp:Feuchte:
G-T/H 351 17-11-2019 10:29:17 8.9 C 70 %
352 17-11-2019 10:39:17 8.9 C 70 %
353 17-11-2019 10:49:17 8.9 C 70 %
354 17-11-2019 10:59:17 8.9 C 70 %
355 17-11-2019 11:09:17 8.9 C 70 %
356 17-11-2019 11:19:17 8.9 C 70 %
357 17-11-2019 11:29:17 8.9 C 70 %
358 17-11-2019 11:39:17 8.9 C 70 %
359 17-11-2019 11:49:17 8.9 C 70 %
360 17-11-2019 11:59:17 8.9 C 70 %
361 17-11-2019 12:09:17 8.9 C 71 %
362 17-11-2019 12:19:17 8.9 C 71 %
363 17-11-2019 12:29:17 8.9 C 71 %
364 17-11-2019 12:39:17 8.9 C 71 %
365 17-11-2019 12:49:17 8.9 C 71 %
366 17-11-2019 12:59:17 8.9 C 71 %
367 17-11-2019 13:09:17 8.9 C 71 %
368 17-11-2019 13:19:17 9 C 70 %
369 17-11-2019 13:29:17 9 C 70 %
370 17-11-2019 13:39:17 9 C 70 %
371 17-11-2019 13:49:17 9 C 70 %
372 17-11-2019 13:59:17 9 C 70 %
373 17-11-2019 14:09:17 9 C 70 %
374 17-11-2019 14:19:17 9 C 70 %
375 17-11-2019 14:29:17 9 C 70 %
Sensor: Nr:Datum:Temp:Feuchte:
G-T/H 376 17-11-2019 14:39:17 9 C 70 %
377 17-11-2019 14:49:17 9.1 C 70 %
378 17-11-2019 14:59:17 9 C 70 %
379 17-11-2019 15:09:17 9 C 70 %
380 17-11-2019 15:19:17 9 C 70 %
381 17-11-2019 15:29:17 9 C 70 %
382 17-11-2019 15:39:18 9 C 71 %
383 17-11-2019 15:49:17 9 C 71 %
384 17-11-2019 15:59:17 9.1 C 71 %
385 17-11-2019 16:09:17 9.1 C 71 %
386 17-11-2019 16:19:17 9.1 C 71 %
387 17-11-2019 16:29:17 9.1 C 71 %
388 17-11-2019 16:39:17 9.1 C 71 %
389 17-11-2019 16:49:17 9.1 C 71 %
390 17-11-2019 16:59:17 9.1 C 71 %
391 17-11-2019 17:09:17 9.1 C 71 %
392 17-11-2019 17:19:17 9.1 C 71 %
393 17-11-2019 17:29:17 9.1 C 71 %
394 17-11-2019 17:39:17 9.1 C 71 %
395 17-11-2019 17:49:17 9.1 C 71 %
396 17-11-2019 17:59:17 9.1 C 71 %
397 17-11-2019 18:09:17 9.1 C 71 %
398 17-11-2019 18:19:17 9.1 C 71 %
399 17-11-2019 18:29:17 9.1 C 71 %
400 17-11-2019 18:39:17 9.1 C 71 %
Sensor: Nr:Datum:Temp:Feuchte:
G-T/H 401 17-11-2019 18:49:17 9.2 C 71 %
402 17-11-2019 18:59:17 9.1 C 71 %
403 17-11-2019 19:09:17 9.2 C 71 %
404 17-11-2019 19:19:17 9.2 C 71 %
405 17-11-2019 19:29:17 9.2 C 71 %
406 17-11-2019 19:39:17 9.2 C 71 %
407 17-11-2019 19:49:17 9.2 C 71 %
408 17-11-2019 19:59:17 9.2 C 71 %
409 17-11-2019 20:09:17 9.2 C 71 %
410 17-11-2019 20:19:17 9.2 C 71 %
411 17-11-2019 20:29:17 9.2 C 71 %
412 17-11-2019 20:39:17 9.2 C 71 %
413 17-11-2019 20:49:17 9.2 C 71 %
414 17-11-2019 20:59:17 9.2 C 71 %
415 17-11-2019 21:09:17 9.2 C 71 %
416 17-11-2019 21:19:17 9.2 C 71 %
417 17-11-2019 21:29:17 9.2 C 71 %
418 17-11-2019 21:39:17 9.2 C 71 %
419 17-11-2019 21:49:17 9.3 C 71 %
420 17-11-2019 21:59:17 9.2 C 71 %
421 17-11-2019 22:09:17 9.2 C 71 %
422 17-11-2019 22:19:17 9.2 C 72 %
423 17-11-2019 22:29:17 9.3 C 72 %
424 17-11-2019 22:39:17 9.3 C 72 %
425 17-11-2019 22:49:17 9.3 C 72 %
Sensor: Nr:Datum:Temp:Feuchte:
G-T/H 426 17-11-2019 22:59:17 9.3 C 72 %
427 17-11-2019 23:09:17 9.3 C 72 %
428 17-11-2019 23:19:17 9.3 C 72 %
429 17-11-2019 23:29:17 9.3 C 72 %
430 17-11-2019 23:39:17 9.3 C 72 %
431 17-11-2019 23:49:17 9.3 C 72 %
432 17-11-2019 23:59:17 9.3 C 72 %
433 18-11-2019 00:09:17 9.3 C 72 %
434 18-11-2019 00:19:17 9.3 C 72 %
435 18-11-2019 00:29:17 9.3 C 72 %
436 18-11-2019 00:39:17 9.3 C 72 %
437 18-11-2019 00:49:17 9.3 C 72 %
438 18-11-2019 00:59:17 9.3 C 72 %
439 18-11-2019 01:09:17 9.3 C 72 %
440 18-11-2019 01:19:17 9.3 C 72 %
441 18-11-2019 01:29:17 9.3 C 72 %
442 18-11-2019 01:39:17 9.3 C 72 %
443 18-11-2019 01:49:17 9.3 C 72 %
444 18-11-2019 01:59:17 9.3 C 72 %
445 18-11-2019 02:09:17 9.3 C 72 %
446 18-11-2019 02:19:17 9.3 C 72 %
447 18-11-2019 02:29:17 9.3 C 72 %
448 18-11-2019 02:39:17 9.3 C 72 %
449 18-11-2019 02:49:17 9.3 C 72 %
450 18-11-2019 02:59:17 9.3 C 72 %
Sensor: Nr:Datum:Temp:Feuchte:
G-T/H 451 18-11-2019 03:09:17 9.3 C 72 %
452 18-11-2019 03:19:17 9.3 C 72 %
453 18-11-2019 03:29:17 9.4 C 72 %
454 18-11-2019 03:39:17 9.4 C 72 %
455 18-11-2019 03:49:17 9.4 C 72 %
456 18-11-2019 03:59:17 9.4 C 72 %
457 18-11-2019 04:09:17 9.3 C 72 %
458 18-11-2019 04:19:17 9.4 C 72 %
459 18-11-2019 04:29:17 9.4 C 72 %
460 18-11-2019 04:39:18 9.3 C 72 %
461 18-11-2019 04:49:17 9.4 C 72 %
462 18-11-2019 04:59:17 9.3 C 72 %
463 18-11-2019 05:09:17 9.3 C 72 %
464 18-11-2019 05:19:18 9.4 C 72 %
465 18-11-2019 05:29:18 9.4 C 72 %
466 18-11-2019 05:39:17 9.3 C 72 %
467 18-11-2019 05:49:17 9.4 C 72 %
468 18-11-2019 05:59:17 9.4 C 72 %
469 18-11-2019 06:09:17 9.3 C 72 %
470 18-11-2019 06:19:17 9.4 C 72 %
471 18-11-2019 06:29:17 9.3 C 72 %
472 18-11-2019 06:39:17 9.4 C 72 %
473 18-11-2019 06:49:17 9.4 C 72 %
474 18-11-2019 06:59:17 9.4 C 72 %
475 18-11-2019 07:09:17 9.4 C 72 %
Sensor: Nr:Datum:Temp:Feuchte:
G-T/H 476 18-11-2019 07:19:18 9.4 C 72 %
477 18-11-2019 07:29:18 9.4 C 72 %
478 18-11-2019 07:39:18 9.3 C 72 %
479 18-11-2019 07:49:17 9.4 C 72 %
480 18-11-2019 07:59:17 9.4 C 72 %
481 18-11-2019 08:09:17 9.4 C 72 %
482 18-11-2019 08:19:17 9.4 C 72 %
483 18-11-2019 08:29:17 9.4 C 72 %
484 18-11-2019 08:39:18 9.4 C 72 %
485 18-11-2019 08:49:18 9.4 C 72 %
486 18-11-2019 08:59:18 9.4 C 72 %
487 18-11-2019 09:09:17 9.4 C 72 %
488 18-11-2019 09:19:17 9.4 C 72 %
489 18-11-2019 09:29:17 9.4 C 72 %
490 18-11-2019 09:39:17 9.4 C 72 %
491 18-11-2019 09:49:17 9.4 C 72 %
492 18-11-2019 09:59:17 9.4 C 72 %
493 18-11-2019 10:09:17 9.4 C 72 %
494 18-11-2019 10:19:31 9.4 C 72 %
495 18-11-2019 10:29:31 9.4 C 72 %
496 18-11-2019 10:39:17 9.5 C 72 %
497 18-11-2019 10:49:17 9.5 C 72 %
498 18-11-2019 10:59:17 9.5 C 72 %
499 18-11-2019 11:09:17 9.4 C 72 %
500 18-11-2019 11:19:17 9.5 C 72 %
Sensor: Nr:Datum:Temp:Feuchte:
G-T/H 501 18-11-2019 11:29:17 9.4 C 72 %
502 18-11-2019 11:39:17 9.5 C 72 %
503 18-11-2019 11:49:17 9.5 C 72 %
504 18-11-2019 11:59:17 9.5 C 72 %
505 18-11-2019 12:09:17 9.5 C 72 %
506 18-11-2019 12:19:17 9.5 C 72 %
507 18-11-2019 12:29:17 9.5 C 72 %